[[[{"header":{"parameterUnit":"kt","parameterCategory":2,"dx":1,"dy":1,"la1":29.587661999999998,"la2":31.0,"lo1":-88.76705300000003,"lo2":-86.6583820000003,"nx":115,"ny":88,"refTime":"2022-10-17T18:00:00:Z","depth":0,"parameterNumber":1,"parameterNumberName":"U-component_of_WINDS"},"data":[-4.9053,-4.8463,-4.7986,-4.6991,-4.5736,-4.5057,-4.4065,-4.2822,-4.101,-3.993,-3.9345,-3.8254,-3.7678,-3.7678,-3.7475,-3.6955,-3.6521,-3.5735,-3.543,-3.511,-3.4701,-3.4497,-3.4292,-3.419,-3.3997,-3.3689,-3.3381,-3.306,-3.2326,-3.1822,-3.1086,-2.9714,-2.9111,-2.8161,-2.6464,-2.5422,-2.4386,-2.3221,-2.2045,-2.0784,-2.0677,-2.0378,-2.0067,-1.9557,-1.8938,-1.8653,-1.8231,-1.7801,-1.7587,-1.7479,-1.7378,-1.7372,-1.7372,-1.7264,-1.7264,-1.715,-1.6929,-1.6606,-1.6203,-1.5165,-1.4539,-1.4046,-1.2784,-1.1112,-0.9844,-0.8965,-0.8116,-0.662,-0.6431,-0.6262,-0.4681,-0.3609,-0.2428,-0.1957,-0.1458,-0.0944,-0.0423,0.0,0.0,0.0,0.0,0.0,0.0,0.0,0.0,0.0,0.0,0.0,0.0,0.0,0.0,0.0589,0.0982,0.1864,0.2451,0.2845,0.3631,0.5097,0.6663,0.8031,0.9592,1.1448,1.2328,1.2323,1.2809,1.3488,1.3973,1.407,1.4264,1.4463,1.4566,1.476,1.4948,1.5135,1.4941,-4.9565,-4.9053,-4.8482,-4.789,-4.7201,-4.6316,-4.5753,-4.5171,-4.2526,-4.124,-4.1141,-4.1339,-4.1141,-4.0643,-3.993,-3.8944,-3.7909,-3.6916,-3.606,-3.5654,-3.5017,-3.4707,-3.4517,-3.4444,-3.4164,-3.3959,-3.3689,-3.3484,-3.3266,-3.2648,-3.2132,-3.1524,-3.089,-3.0152,-2.8694,-2.7522,-2.6677,-2.5153,-2.3781,-2.271,-2.2422,-2.2171,-2.1713,-2.1162,-2.0481,-1.9594,-1.8967,-1.8431,-1.8224,-1.7996,-1.754,-1.7446,-1.7352,-1.7372,-1.7372,-1.7264,-1.715,-1.6929,-1.655,-1.6042,-1.5615,-1.5133,-1.4114,-1.2792,-1.1438,-1.0651,-1.0152,-0.9531,-0.9433,-0.866,-0.6492,-0.4938,-0.3692,-0.2828,-0.2337,-0.184,-0.1239,0.0,0.0,0.0,0.0,0.0,0.0,0.0,0.0,0.0,0.0,0.0,0.0,0.0,0.0,0.0,0.0,0.0786,0.1178,0.1767,0.2453,0.3825,0.4805,0.6274,0.7839,0.9499,1.0576,1.0868,1.155,1.2323,1.2906,1.3003,1.3682,1.407,1.4076,1.4173,1.4457,1.4651,1.4451,-4.9831,-4.9565,-4.9053,-4.8672,-4.8368,-4.7411,-4.6912,-4.6544,-4.4277,-4.3298,-4.3494,-4.2904,-4.2329,-4.1736,-4.1423,-4.0429,-3.907,-3.7991,-3.6949,-3.5783,-3.4935,-3.4644,-3.4436,-3.4187,-3.4169,-3.4138,-3.3985,-3.3792,-3.3779,-3.3266,-3.2957,-3.266,-3.2096,-3.1253,-2.9945,-2.8669,-2.7615,-2.6494,-2.4687,-2.4371,-2.5027,-2.3839,-2.3025,-2.2007,-2.1016,-2.0033,-1.9273,-1.8448,-1.813,-1.7828,-1.7756,-1.7479,-1.7319,-1.7365,-1.7372,-1.7372,-1.7264,-1.7157,-1.6864,-1.6504,-1.6005,-1.5592,-1.4878,-1.413,-1.284,-1.2897,-1.2472,-1.1598,-1.1499,-1.0425,-0.8352,-0.6766,-0.5638,-0.4482,-0.3907,-0.3021,-0.2234,-0.1531,-0.0917,-0.061,0.0,0.0,0.0,0.0,0.0,0.0,0.0,0.0,0.0,0.0,0.0,0.0,0.0,0.0393,0.0589,0.1178,0.1669,0.2258,0.3043,0.4413,0.5782,0.7448,0.8819,0.8913,0.9499,1.0669,1.1258,1.1258,1.1837,1.2614,1.3003,1.33,1.3876,1.4161,1.3091,-4.9925,-4.9925,-4.9546,-4.9243,-4.9053,-4.8272,-4.789,-4.768,-4.6026,-4.5639,-4.5736,-4.4748,-4.3886,-4.3428,-4.279,-4.1779,-4.0248,-3.8809,-3.74,-3.6319,-3.487,-3.449,-3.4259,-3.413,-3.4095,-3.4107,-3.4227,-3.419,-3.4087,-3.3779,-3.3587,-3.3381,-3.2957,-3.2306,-3.1093,-3.0331,-2.9262,-2.8205,-2.683,-2.6563,-2.6849,-2.5609,-2.421,-2.3242,-2.1688,-2.0735,-2.0024,-1.8991,-1.8203,-1.8008,-1.7843,-1.7613,-1.736,-1.7339,-1.7365,-1.7372,-1.7264,-1.7264,-1.7105,-1.6787,-1.6579,-1.624,-1.5758,-1.4992,-1.4794,-1.5107,-1.474,-1.3788,-1.2813,-1.1602,-1.0246,-0.8936,-0.7757,-0.6615,-0.5657,-0.4486,-0.3305,-0.2498,-0.1693,-0.1189,-0.069,0.0,0.0,0.0,0.0,0.0,0.0,0.0,0.0,0.0,0.0,0.0,0.0,0.0,0.0393,0.0884,0.1178,0.1669,0.2062,0.2846,0.3727,0.5001,0.6176,0.6665,0.7546,0.8718,0.9499,0.9601,0.9991,1.0766,1.1156,1.0859,1.1438,1.1636,1.0757,-4.9925,-4.9925,-4.9831,-4.9622,-4.9243,-4.9053,-4.8749,-4.8272,-4.8081,-4.8081,-4.7872,-4.7393,-4.6702,-4.5728,-4.4265,-4.3052,-4.1669,-3.9499,-3.8098,-3.7512,-3.5628,-3.4757,-3.4676,-3.4232,-3.4024,-3.4129,-3.4104,-3.4162,-3.4138,-3.4074,-3.3779,-3.3497,-3.3381,-3.2922,-3.2236,-3.1574,-3.1027,-3.0058,-2.9365,-2.864,-2.845,-2.7311,-2.5825,-2.5228,-2.355,-2.1877,-2.1191,-2.0123,-1.8757,-1.8561,-1.8307,-1.7916,-1.7683,-1.7479,-1.7312,-1.7358,-1.7372,-1.7372,-1.7238,-1.7098,-1.7072,-1.6887,-1.6447,-1.6041,-1.5794,-1.5812,-1.534,-1.4474,-1.3964,-1.2849,-1.1819,-1.0585,-0.9401,-0.8254,-0.739,-0.6519,-0.5247,-0.4154,-0.3159,-0.2169,-0.1668,-0.0982,-0.0785,-0.0687,-0.0687,-0.0294,0.0,0.0,0.0,0.0,0.0,0.0,0.0,0.0,0.0,0.0491,0.0687,0.0,0.1375,0.1963,0.2453,0.2944,0.3534,0.4709,0.5784,0.6861,0.7643,0.794,0.8327,0.9109,0.9304,0.8718,0.8358,0.8361,0.7973,-4.9925,-4.9925,-4.9925,-4.9831,-4.9641,-4.9357,-4.9243,-4.9243,-4.8958,-4.8844,-4.8863,-4.8272,-4.7967,-4.7476,-4.5956,-4.4459,-4.3282,-4.0813,-3.9085,-3.825,-3.6295,-3.5681,-3.5052,-3.4522,-3.4162,-3.4037,-3.4095,-3.4169,-3.4227,-3.4177,-3.4177,-3.3882,-3.3869,-3.337,-3.281,-3.2658,-3.2381,-3.1993,-3.1445,-3.0963,-3.0131,-2.8948,-2.7652,-2.661,-2.5145,-2.376,-2.2685,-2.1121,-2.0206,-1.9884,-1.8727,-1.8189,-1.7998,-1.7663,-1.7538,-1.7326,-1.7339,-1.7345,-1.7345,-1.7352,-1.7372,-1.7231,-1.6946,-1.6777,-1.6543,-1.635,-1.5736,-1.5177,-1.4785,-1.428,-1.3233,-1.2129,-1.0961,-0.9792,-0.9206,-0.8523,-0.7252,-0.5882,-0.4707,-0.3533,-0.265,-0.1865,-0.1375,-0.1276,-0.108,-0.0786,-0.0687,-0.0589,-0.0589,-0.0491,-0.0491,-0.0294,0.0,0.0,0.0,0.0196,0.0,0.0,0.0,0.108,0.1178,0.1767,0.2355,0.3238,0.4119,0.4901,0.5684,0.6078,0.647,0.7647,0.823,0.6818,0.5786,0.5821,0.6006,-4.9925,-4.9925,-4.9925,-4.9925,-4.9925,-4.9528,-4.966,-4.9831,-4.9641,-4.9357,-4.9357,-4.8844,-4.8577,-4.8485,-4.726,-4.5834,-4.4195,-4.2385,-4.0724,-3.9104,-3.7389,-3.6439,-3.5674,-3.5048,-3.4329,-3.4148,-3.3997,-3.4082,-3.4169,-3.4279,-3.4177,-3.4177,-3.4177,-3.3791,-3.3394,-3.3127,-3.3152,-3.2949,-3.257,-3.2054,-3.1321,-3.0387,-2.9141,-2.7884,-2.6498,-2.5233,-2.4007,-2.2519,-2.1261,-2.0777,-1.9739,-1.8743,-1.8361,-1.7993,-1.7843,-1.761,-1.7426,-1.7353,-1.7366,-1.7319,-1.7372,-1.7258,-1.7041,-1.7022,-1.6844,-1.6504,-1.6187,-1.569,-1.5264,-1.4818,-1.3964,-1.3311,-1.2517,-1.174,-1.1253,-1.0279,-0.8816,-0.7546,-0.6565,-0.5391,-0.4021,-0.3237,-0.2062,-0.2062,-0.2452,-0.1767,-0.1375,-0.1276,-0.1178,-0.108,-0.0982,-0.0687,0.0,0.0,0.0,0.0,0.0,0.0,0.0,0.0589,0.0687,0.0884,0.1178,0.1767,0.2552,0.3237,0.3727,0.3825,0.4119,0.5393,0.6142,0.4541,0.3352,0.3702,0.4027,-4.9925,-4.9925,-4.9925,-4.9925,-4.9925,-4.9925,-4.9925,-4.9925,-4.9925,-4.9925,-4.9831,-4.9338,-4.9148,-4.8885,-4.7841,-4.6566,-4.516,-4.3073,-4.1587,-4.0154,-3.8625,-3.7419,-3.6574,-3.5828,-3.5048,-3.4301,-3.3943,-3.3963,-3.4097,-3.4165,-3.4238,-3.4201,-3.4227,-3.4034,-3.3956,-3.3789,-3.3828,-3.3675,-3.3305,-3.2885,-3.2469,-3.1605,-3.057,-2.9442,-2.8041,-2.678,-2.5622,-2.414,-2.2738,-2.1805,-2.0963,-1.9924,-1.9118,-1.8552,-1.828,-1.8052,-1.7753,-1.7733,-1.7592,-1.7366,-1.734,-1.7366,-1.6935,-1.6716,-1.6577,-1.6396,-1.6198,-1.5854,-1.5559,-1.5118,-1.4725,-1.4203,-1.3682,-1.3397,-1.2911,-1.1842,-1.0478,-0.9304,-0.8226,-0.7151,-0.588,-0.4805,-0.3825,-0.3433,-0.3921,-0.3237,-0.265,-0.2552,-0.265,-0.2355,-0.1473,-0.108,-0.0884,-0.0589,-0.0294,-0.0294,0.0,0.0,0.0,0.0196,0.0294,0.0491,0.0687,0.0982,0.1276,0.1668,0.2257,0.2355,0.2256,0.2436,0.3293,0.221,0.2104,0.2369,0.2529,-4.9925,-4.9925,-4.9925,-4.9925,-4.9925,-4.9925,-4.9925,-4.9925,-4.9925,-4.9925,-4.9925,-4.9736,-4.9641,-4.9283,-4.842,-4.7323,-4.688,-4.4584,-4.2921,-4.2532,-4.0385,-3.9229,-3.797,-3.6798,-3.589,-3.5127,-3.4492,-3.3945,-3.3977,-3.4057,-3.4095,-3.4126,-3.4185,-3.3966,-3.3784,-3.3784,-3.3862,-3.3956,-3.3776,-3.3419,-3.3241,-3.2658,-3.1829,-3.1012,-2.9852,-2.8413,-2.7491,-2.6096,-2.4487,-2.3931,-2.2909,-2.1755,-2.0656,-1.9845,-1.9276,-1.855,-1.8089,-1.7948,-1.7874,-1.7629,-1.7719,-1.7733,-1.7161,-1.684,-1.6699,-1.6272,-1.602,-1.5855,-1.5581,-1.5406,-1.5264,-1.4779,-1.4469,-1.427,-1.3785,-1.33,-1.2031,-1.0859,-0.9783,-0.9007,-0.7836,-0.7054,-0.6271,-0.5978,-0.5684,-0.4901,-0.4119,-0.4217,-0.4413,-0.314,-0.1964,-0.1866,-0.1669,-0.1276,-0.0982,-0.0687,-0.0589,-0.0491,-0.0196,0.0098,0.0098,0.0,0.0196,0.0393,0.0589,0.0786,0.0982,0.1275,0.1568,0.1559,0.145,0.125,0.105,0.1322,0.177,-4.9925,-4.9925,-4.9925,-4.9925,-4.9925,-4.9925,-4.9925,-4.9925,-4.9925,-4.9925,-4.9925,-4.9925,-4.9925,-4.9698,-4.9038,-4.8345,-4.7767,-4.5759,-4.4977,-4.4545,-4.2585,-4.1457,-4.012,-3.8519,-3.6873,-3.5905,-3.5162,-3.4608,-3.403,-3.4034,-3.3995,-3.3792,-3.3792,-3.3771,-3.3634,-3.3482,-3.3389,-3.3641,-3.3644,-3.3709,-3.3826,-3.3239,-3.2707,-3.2481,-3.1271,-3.0338,-2.9695,-2.7952,-2.6607,-2.5814,-2.4613,-2.3298,-2.2032,-2.1645,-2.0865,-1.969,-1.9288,-1.8935,-1.8246,-1.8458,-1.832,-1.7755,-1.7399,-1.7004,-1.6891,-1.6196,-1.5948,-1.5838,-1.5664,-1.5567,-1.5528,-1.5147,-1.4857,-1.476,-1.4566,-1.3979,-1.3488,-1.2318,-1.1341,-1.0567,-0.9792,-0.891,-0.8324,-0.7933,-0.7738,-0.7151,-0.7151,-0.7151,-0.6078,-0.4609,-0.3238,-0.3042,-0.2552,-0.2062,-0.1571,-0.1276,-0.108,-0.0982,-0.0785,-0.0392,-0.0392,-0.0393,-0.0294,-0.0196,-0.0098,0.0098,0.0393,0.0589,0.0881,0.0879,0.0779,0.0581,0.0483,0.0668,0.0938,-4.9887,-4.9925,-4.9925,-4.9925,-4.9925,-4.9925,-4.9925,-4.9925,-4.9925,-4.9925,-4.9925,-4.9925,-4.9925,-4.9887,-4.983,-4.9114,-4.8289,-4.7878,-4.7136,-4.596,-4.4421,-4.3223,-4.1927,-4.0394,-3.8576,-3.6512,-3.5617,-3.5018,-3.4069,-3.4016,-3.378,-3.35,-3.342,-3.3463,-3.389,-3.342,-3.2975,-3.2612,-3.2703,-3.3029,-3.3302,-3.3255,-3.2891,-3.2653,-3.1964,-3.128,-3.0639,-2.9178,-2.8239,-2.7422,-2.6219,-2.498,-2.3647,-2.3432,-2.25,-2.1259,-2.0989,-2.0278,-1.9051,-1.9761,-1.9526,-1.8656,-1.8225,-1.7539,-1.7101,-1.6687,-1.639,-1.6301,-1.5915,-1.5721,-1.5625,-1.5528,-1.5244,-1.5051,-1.496,-1.4566,-1.427,-1.3385,-1.2706,-1.1929,-1.1346,-1.0762,-1.0275,-0.9889,-0.9792,-0.9987,-1.0088,-0.9304,-0.7937,-0.6568,-0.5297,-0.4707,-0.3825,-0.3335,-0.2846,-0.2159,-0.1767,-0.1571,-0.1471,-0.1173,-0.1075,-0.0975,-0.0877,-0.0781,-0.068,-0.0481,-0.0291,-0.0098,-0.0097,-0.0191,-0.0193,-0.0097,-0.0097,0.0,0.0,-4.9749,-4.9906,-4.9925,-4.9925,-4.9925,-4.9925,-4.9925,-4.9925,-4.9925,-4.9925,-4.9925,-4.9925,-4.9925,-4.9925,-4.9925,-4.9585,-4.9133,-4.8476,-4.7897,-4.7136,-4.6052,-4.4745,-4.3383,-4.1981,-4.0432,-3.8786,-3.7174,-3.5894,-3.5148,-3.435,-3.401,-3.3766,-3.333,-3.3085,-3.3126,-3.2982,-3.3059,-3.2966,-3.2988,-3.3022,-3.2755,-3.282,-3.2637,-3.2565,-3.1878,-3.1391,-3.0984,-3.0119,-2.9231,-2.864,-2.784,-2.6776,-2.5805,-2.4864,-2.4025,-2.3184,-2.2538,-2.2481,-2.2088,-2.21,-2.1682,-2.0423,-1.9658,-1.8804,-1.7843,-1.7169,-1.6969,-1.6872,-1.639,-1.6108,-1.6101,-1.5818,-1.5431,-1.5438,-1.5244,-1.5051,-1.4657,-1.4457,-1.3876,-1.3294,-1.3191,-1.2803,-1.2318,-1.1934,-1.1934,-1.2226,-1.174,-1.0567,-0.9397,-0.8422,-0.7252,-0.6372,-0.5393,-0.4707,-0.4219,-0.3631,-0.3139,-0.2942,-0.2639,-0.2338,-0.1936,-0.1444,-0.1345,-0.1245,-0.1142,-0.1039,-0.1037,-0.1226,-0.1221,-0.1216,-0.1125,-0.0941,-0.0853,-0.0668,-0.0761,-4.9391,-4.9694,-4.9993,-5.0091,-5.0209,-5.0284,-5.0114,-4.9925,-4.9925,-4.9925,-4.9925,-4.9925,-4.9925,-4.9925,-4.9925,-4.9925,-4.983,-4.9001,-4.8906,-4.8382,-4.7506,-4.6252,-4.5013,-4.3579,-4.1894,-4.0162,-3.8511,-3.7251,-3.6567,-3.5331,-3.4971,-3.4927,-3.4603,-3.3994,-3.3384,-3.3395,-3.3047,-3.2874,-3.2751,-3.2748,-3.2431,-3.244,-3.2448,-3.2424,-3.165,-3.1586,-3.1349,-3.0442,-3.0066,-2.9778,-2.9138,-2.84,-2.7513,-2.7034,-2.6003,-2.4781,-2.4204,-2.3762,-2.3298,-2.3667,-2.3742,-2.27,-2.1845,-2.0805,-1.9379,-1.8708,-1.822,-1.745,-1.6962,-1.6673,-1.6576,-1.6197,-1.5811,-1.5818,-1.5625,-1.5438,-1.5141,-1.5044,-1.4657,-1.4173,-1.4173,-1.4264,-1.3973,-1.3785,-1.3979,-1.4076,-1.2906,-1.1832,-1.1151,-1.0177,-0.9304,-0.8324,-0.7154,-0.6372,-0.6176,-0.5393,-0.4609,-0.4301,-0.3991,-0.3867,-0.3645,-0.2952,-0.2165,-0.1684,-0.1488,-0.1489,-0.1667,-0.2195,-0.2187,-0.183,-0.165,-0.1744,-0.1569,-0.1302,-0.1213,-4.8937,-4.9362,-4.9895,-5.031,-5.0675,-5.0697,-5.0566,-5.0209,-5.002,-5.002,-5.0114,-5.002,-4.9925,-4.9925,-4.9925,-4.9925,-4.9925,-4.9925,-4.9811,-4.934,-4.8625,-4.7502,-4.6229,-4.474,-4.3097,-4.1268,-3.9922,-3.8936,-3.8099,-3.696,-3.724,-3.7712,-3.6418,-3.6013,-3.5518,-3.4597,-3.3828,-3.3306,-3.2702,-3.2549,-3.2404,-3.2389,-3.2358,-3.2344,-3.2377,-3.2346,-3.2294,-3.1208,-3.0675,-3.0649,-2.9865,-2.9108,-2.8923,-2.8551,-2.7793,-2.666,-2.6086,-2.5523,-2.5157,-2.5534,-2.5711,-2.5324,-2.4299,-2.2795,-2.1187,-2.0614,-1.9667,-1.8523,-1.765,-1.7258,-1.6962,-1.6769,-1.6487,-1.6294,-1.6204,-1.6011,-1.5915,-1.5818,-1.5431,-1.5051,-1.4857,-1.4657,-1.4463,-1.4457,-1.456,-1.4754,-1.3682,-1.3203,-1.2517,-1.2026,-1.1156,-1.0182,-0.8913,-0.823,-0.8034,-0.7228,-0.6234,-0.5728,-0.5506,-0.5368,-0.5204,-0.4393,-0.3504,-0.3203,-0.3447,-0.2471,-0.2019,-0.3423,-0.41,-0.2954,-0.2516,-0.3062,-0.3076,-0.29,-0.2639,-4.8412,-4.86,-4.9426,-4.9925,-5.0382,-5.1045,-5.1243,-5.1036,-5.0641,-5.0547,-5.0472,-5.0114,-4.9925,-4.9925,-4.9906,-4.9925,-4.9925,-4.9925,-4.9925,-4.9641,-4.8942,-4.7999,-4.6734,-4.572,-4.4133,-4.2433,-4.1338,-4.036,-3.9746,-3.9482,-3.9394,-3.9411,-3.814,-3.7518,-3.7161,-3.6462,-3.5579,-3.4752,-3.3616,-3.28,-3.2384,-3.2333,-3.2162,-3.195,-3.1683,-3.1577,-3.1177,-3.0848,-3.0809,-3.0729,-3.0179,-2.9943,-2.985,-2.948,-2.883,-2.8458,-2.7886,-2.7513,-2.7606,-2.7712,-2.8085,-2.7513,-2.6379,-2.4781,-2.3079,-2.1473,-2.0432,-2.0241,-1.89,-1.7946,-1.7561,-1.725,-1.6969,-1.6872,-1.6776,-1.6776,-1.6673,-1.639,-1.6011,-1.5721,-1.5528,-1.5335,-1.5238,-1.5135,-1.5141,-1.5238,-1.5051,-1.4573,-1.4082,-1.3682,-1.2906,-1.2129,-1.0961,-1.008,-0.9592,-0.8692,-0.7846,-0.7226,-0.7087,-0.6913,-0.6649,-0.5909,-0.4963,-0.5443,-0.5993,-0.5247,-0.4516,-0.5498,-0.6276,-0.5444,-0.477,-0.4865,-0.469,-0.4763,-0.4684,-4.9557,-4.9412,-5.039,-5.0682,-5.0657,-5.1431,-5.1711,-5.1505,-5.1204,-5.0823,-5.0478,-5.0262,-5.0055,-4.9751,-4.9925,-4.9906,-4.9925,-4.9925,-4.9755,-4.9336,-4.8919,-4.7993,-4.674,-4.5817,-4.4919,-4.3461,-4.2484,-4.1669,-4.1773,-4.1773,-4.1773,-4.1181,-3.9922,-3.913,-3.8776,-3.7978,-3.7266,-3.6462,-3.5128,-3.3798,-3.2886,-3.2639,-3.2378,-3.1919,-3.1827,-3.1564,-3.1288,-3.1051,-3.0959,-3.0669,-3.0485,-3.0392,-3.03,-2.9943,-2.9678,-2.9678,-2.9399,-2.9387,-2.9585,-2.9399,-2.9121,-2.8656,-2.7886,-2.6753,-2.5628,-2.412,-2.288,-2.2044,-2.0328,-1.9379,-1.9187,-1.8124,-1.7746,-1.7361,-1.7161,-1.7065,-1.6865,-1.6769,-1.668,-1.6487,-1.6294,-1.6197,-1.6197,-1.6004,-1.5811,-1.5818,-1.5528,-1.5244,-1.5044,-1.4748,-1.4366,-1.3785,-1.2809,-1.1929,-1.1054,-1.0562,-0.989,-0.9676,-0.9519,-0.8686,-0.8255,-0.7572,-0.6627,-0.6652,-0.7424,-0.7638,-0.7512,-0.7667,-0.7816,-0.7431,-0.7042,-0.6462,-0.5962,-0.6111,-0.6366,-5.1416,-5.1108,-5.2074,-5.2102,-5.1654,-5.259,-5.2622,-5.2118,-5.1887,-5.1175,-5.0351,-5.0339,-4.9887,-4.9468,-4.9616,-4.9791,-4.9868,-4.9868,-4.9621,-4.8938,-4.865,-4.7685,-4.6401,-4.5767,-4.4831,-4.4095,-4.3708,-4.3708,-4.3451,-4.3365,-4.3279,-4.2761,-4.1599,-4.0902,-4.0377,-3.9499,-3.8333,-3.7978,-3.6909,-3.5489,-3.407,-3.3616,-3.3069,-3.2612,-3.2337,-3.2076,-3.1708,-3.1616,-3.1419,-3.1038,-3.0854,-3.0761,-3.0761,-3.0392,-3.03,-3.03,-3.0208,-3.0208,-3.0128,-2.9863,-2.9597,-2.9387,-2.8923,-2.8749,-2.7805,-2.6566,-2.5042,-2.3752,-2.2139,-2.1282,-2.0814,-1.9667,-1.8908,-1.8708,-1.8796,-1.8404,-1.7828,-1.822,-1.7547,-1.7258,-1.6976,-1.6969,-1.7161,-1.6776,-1.639,-1.6204,-1.6108,-1.5915,-1.5721,-1.5528,-1.5238,-1.4754,-1.3973,-1.3385,-1.2706,-1.2803,-1.2487,-1.24,-1.1683,-1.0756,-1.0307,-0.9818,-0.8673,-0.8541,-0.8496,-0.8883,-0.9612,-0.9732,-0.9316,-0.9246,-0.9242,-0.8523,-0.7562,-0.7555,-0.7815,-5.2397,-5.1514,-5.3219,-5.3867,-5.4039,-5.5491,-5.5585,-5.439,-5.3227,-5.2057,-5.0701,-4.9796,-4.9213,-4.8987,-4.9002,-4.9227,-4.9514,-4.981,-4.9449,-4.8707,-4.8079,-4.7229,-4.6242,-4.5462,-4.4856,-4.4412,-4.4155,-4.4137,-4.4137,-4.4137,-4.388,-4.3451,-4.3279,-4.2743,-4.2242,-4.1356,-4.064,-3.9851,-3.8969,-3.8172,-3.6925,-3.5833,-3.4495,-3.3082,-3.2822,-3.2717,-3.2337,-3.2167,-3.197,-3.1787,-3.1524,-3.1354,-3.1248,-3.0867,-3.0774,-3.1064,-3.0774,-3.0682,-3.059,-3.0405,-3.022,-2.993,-2.9838,-2.9572,-2.9016,-2.8259,-2.7023,-2.523,-2.3732,-2.2899,-2.2804,-2.2329,-2.2044,-2.1854,-2.1473,-2.1092,-2.0232,-1.9371,-1.87,-1.8419,-1.7754,-1.7754,-1.7843,-1.765,-1.6976,-1.6783,-1.668,-1.6494,-1.639,-1.6197,-1.6004,-1.5625,-1.5238,-1.4748,-1.4645,-1.4645,-1.4327,-1.4006,-1.3139,-1.2384,-1.2114,-1.1756,-1.2114,-1.1879,-1.1687,-1.1303,-1.1982,-1.2436,-1.1706,-1.1281,-1.1365,-1.1041,-1.0234,-0.9961,-0.9814,-5.4654,-5.3647,-5.43,-5.4245,-5.4092,-5.5725,-5.585,-5.4738,-5.4388,-5.3112,-5.133,-5.0337,-4.957,-4.8737,-4.865,-4.8832,-4.9099,-4.9295,-4.8729,-4.7987,-4.7325,-4.6607,-4.5492,-4.5132,-4.4772,-4.4668,-4.4668,-4.4649,-4.4649,-4.4564,-4.4393,-4.4051,-4.388,-4.3708,-4.3297,-4.2952,-4.2311,-4.153,-4.0553,-3.9675,-3.8865,-3.7518,-3.6536,-3.5398,-3.4857,-3.4147,-3.3601,-3.3146,-3.252,-3.2323,-3.197,-3.1892,-3.1787,-3.1603,-3.1603,-3.1787,-3.1603,-3.1419,-3.1143,-3.1051,-3.0867,-3.0485,-3.0195,-2.993,-2.9665,-2.9214,-2.8458,-2.7221,-2.5921,-2.4686,-2.4393,-2.3553,-2.3383,-2.3288,-2.3004,-2.2529,-2.1958,-2.091,-2.0719,-2.0814,-1.9954,-1.9379,-1.9187,-1.8612,-1.7746,-1.7361,-1.7161,-1.7065,-1.6962,-1.6865,-1.6776,-1.6487,-1.6294,-1.5998,-1.5998,-1.5856,-1.5518,-1.4985,-1.4187,-1.3773,-1.3445,-1.3045,-1.3528,-1.4442,-1.4571,-1.4113,-1.4376,-1.3952,-1.3674,-1.3316,-1.3111,-1.284,-1.2552,-1.2304,-1.2095,-5.7388,-5.6452,-5.607,-5.5128,-5.4379,-5.5886,-5.6023,-5.4872,-5.5265,-5.3952,-5.1508,-5.1356,-5.0254,-4.8984,-4.8811,-4.8816,-4.8708,-4.8863,-4.8296,-4.7316,-4.7055,-4.642,-4.5445,-4.5178,-4.5074,-4.4989,-4.5074,-4.497,-4.4885,-4.4885,-4.463,-4.4478,-4.4393,-4.4137,-4.3794,-4.3604,-4.3365,-4.2657,-4.1878,-4.1164,-4.0377,-3.9218,-3.814,-3.734,-3.6551,-3.5938,-3.5398,-3.4343,-3.3251,-3.2872,-3.252,-3.2612,-3.2872,-3.2872,-3.2689,-3.2429,-3.2245,-3.197,-3.1695,-3.1616,-3.1327,-3.0959,-3.0682,-3.0405,-3.022,-2.9863,-2.9399,-2.8737,-2.77,-2.6649,-2.6169,-2.5534,-2.4602,-2.4319,-2.4414,-2.413,-2.3647,-2.2984,-2.2605,-2.2889,-2.2139,-2.1291,-2.0996,-2.0519,-1.985,-1.9467,-1.9083,-1.8692,-1.8404,-1.8124,-1.7828,-1.7635,-1.7443,-1.7443,-1.7317,-1.6974,-1.6525,-1.5891,-1.5401,-1.496,-1.4762,-1.433,-1.4744,-1.591,-1.6332,-1.6063,-1.5558,-1.511,-1.4803,-1.4619,-1.4543,-1.4451,-1.4581,-1.4784,-1.4468,-5.9412,-5.9323,-6.0111,-5.9512,-5.8458,-5.9251,-5.837,-5.6162,-5.5428,-5.4417,-5.2712,-5.173,-5.0867,-4.9605,-4.9481,-4.899,-4.8674,-4.8687,-4.8502,-4.7641,-4.7496,-4.6599,-4.586,-4.5583,-4.5583,-4.5498,-4.5498,-4.5329,-4.5074,-4.4904,-4.4885,-4.4819,-4.4819,-4.4564,-4.4308,-4.4137,-4.3965,-4.3537,-4.3088,-4.2743,-4.2156,-4.1077,-3.9553,-3.8671,-3.7785,-3.7518,-3.7177,-3.6193,-3.5308,-3.5203,-3.3707,-3.3888,-3.4585,-3.4857,-3.4328,-3.2991,-3.2795,-3.2429,-3.2245,-3.2154,-3.2154,-3.2049,-3.1511,-3.134,-3.1064,-3.0603,-3.022,-2.9758,-2.9387,-2.8644,-2.8749,-2.7992,-2.791,-2.7618,-2.7233,-2.6555,-2.5606,-2.5418,-2.5136,-2.5147,-2.411,-2.3174,-2.27,-2.2139,-2.1854,-2.1378,-2.0805,-2.0423,-2.0049,-1.9762,-1.9467,-1.9179,-1.8987,-1.8892,-1.828,-1.7756,-1.7288,-1.6764,-1.639,-1.6189,-1.6153,-1.6249,-1.671,-1.7665,-1.7875,-1.7253,-1.6777,-1.6689,-1.6429,-1.5852,-1.5821,-1.6243,-1.6702,-1.7036,-1.6877,-6.0999,-6.0917,-6.0707,-6.0128,-5.9728,-6.0584,-5.9996,-5.8377,-5.7469,-5.6197,-5.4426,-5.3027,-5.1807,-5.0679,-5.0619,-5.0382,-5.0084,-5.0144,-4.9578,-4.8426,-4.7564,-4.6903,-4.6129,-4.6193,-4.6174,-4.6005,-4.6005,-4.5921,-4.5668,-4.5479,-4.5329,-4.5348,-4.4989,-4.4819,-4.463,-4.4649,-4.4393,-4.4051,-4.3965,-4.3708,-4.3365,-4.2571,-4.1495,-4.0728,-3.957,-3.9041,-3.8953,-3.7696,-3.6983,-3.673,-3.6193,-3.6103,-3.673,-3.673,-3.5938,-3.4766,-3.4208,-3.3769,-3.2886,-3.2625,-3.2598,-3.2232,-3.2062,-3.197,-3.1787,-3.1603,-3.1143,-3.0867,-3.0418,-2.9863,-2.9412,-2.9412,-2.9319,-2.8947,-2.8749,-2.8178,-2.7501,-2.7595,-2.7688,-2.7034,-2.5805,-2.4958,-2.4214,-2.3373,-2.2899,-2.2899,-2.2329,-2.213,-2.1854,-2.1482,-2.1092,-2.0901,-2.0719,-2.0155,-1.9323,-1.8779,-1.8386,-1.8012,-1.7819,-1.7786,-1.8527,-1.8777,-1.8831,-1.9142,-1.9637,-1.8935,-1.8516,-1.87,-1.8543,-1.8268,-1.8208,-1.8298,-1.8564,-1.8827,-1.8848,-6.2518,-6.2363,-6.1354,-6.0605,-6.0476,-6.1114,-6.0922,-5.9755,-5.9385,-5.8186,-5.6589,-5.5063,-5.3701,-5.2479,-5.2179,-5.1727,-5.1411,-5.1293,-5.0921,-4.9396,-4.818,-4.7431,-4.7411,-4.7515,-4.7264,-4.6678,-4.6511,-4.6342,-4.6174,-4.5921,-4.5771,-4.5752,-4.5479,-4.514,-4.5074,-4.5093,-4.4838,-4.4497,-4.4497,-4.4222,-4.3794,-4.3604,-4.326,-4.2761,-4.1617,-4.0815,-4.0448,-3.9306,-3.8776,-3.9025,-3.9025,-3.8776,-3.8583,-3.8406,-3.7607,-3.6536,-3.6088,-3.5564,-3.4509,-3.4237,-3.3874,-3.3405,-3.3146,-3.2795,-3.2612,-3.2245,-3.197,-3.1708,-3.1327,-3.0774,-3.0153,-2.977,-2.9678,-2.9585,-2.9492,-2.9307,-2.9108,-2.9294,-2.9121,-2.8551,-2.7606,-2.6742,-2.6368,-2.5545,-2.4885,-2.4225,-2.4036,-2.3931,-2.3563,-2.3288,-2.3098,-2.3098,-2.2586,-2.1725,-2.1008,-2.0555,-2.0087,-1.9729,-1.9647,-1.9735,-2.1476,-2.2214,-2.1726,-2.1584,-2.1431,-2.0882,-2.038,-2.049,-2.0396,-2.0689,-2.0718,-2.0766,-2.0718,-2.0647,-2.0723,-6.4109,-6.4109,-6.3904,-6.3071,-6.1942,-6.1885,-6.1393,-6.0108,-5.9955,-5.9651,-5.9052,-5.7753,-5.6355,-5.5327,-5.4313,-5.2774,-5.1792,-5.2201,-5.1653,-5.0921,-5.011,-4.9539,-4.9784,-4.9457,-4.8656,-4.7848,-4.7137,-4.695,-4.6678,-4.6426,-4.6258,-4.6174,-4.609,-4.5921,-4.5583,-4.5602,-4.5329,-4.4989,-4.4904,-4.4649,-4.4308,-4.4222,-4.3965,-4.3537,-4.2916,-4.2743,-4.2225,-4.1443,-4.1164,-4.2812,-4.2675,-4.1617,-4.0535,-4.001,-3.9096,-3.7987,-3.7521,-3.7328,-3.7188,-3.6602,-3.6517,-3.5294,-3.4814,-3.4433,-3.3363,-3.2775,-3.2529,-3.2506,-3.214,-3.1695,-3.1169,-3.0787,-3.0498,-3.0313,-3.0128,-3.0208,-3.03,-3.0208,-2.985,-2.9307,-2.9214,-2.9028,-2.8935,-2.8656,-2.8085,-2.639,-2.6097,-2.591,-2.5639,-2.5273,-2.5084,-2.5179,-2.453,-2.3467,-2.2893,-2.2426,-2.2111,-2.1812,-2.1975,-2.2428,-2.42,-2.4621,-2.4422,-2.4198,-2.3843,-2.3332,-2.2695,-2.2236,-2.2018,-2.2191,-2.2505,-2.2817,-2.2911,-2.2439,-2.2234,-6.4388,-6.4388,-6.4388,-6.3952,-6.3397,-6.3372,-6.3022,-6.2373,-6.1547,-6.1071,-6.0749,-5.954,-5.8584,-5.8136,-5.7473,-5.6322,-5.5178,-5.5053,-5.4075,-5.2875,-5.2047,-5.1967,-5.1807,-5.1083,-5.0435,-4.9887,-4.9702,-4.9047,-4.8325,-4.7994,-4.7431,-4.6866,-4.6426,-4.6174,-4.6005,-4.6025,-4.5837,-4.5414,-4.5329,-4.5159,-4.4734,-4.4649,-4.4374,-4.4137,-4.3965,-4.3794,-4.3365,-4.2743,-4.2743,-4.3242,-4.3346,-4.302,-4.2362,-4.1625,-4.04,-3.9021,-3.8157,-3.7462,-3.6829,-3.6555,-3.6211,-3.5795,-3.5535,-3.5317,-3.5006,-3.4223,-3.374,-3.3788,-3.316,-3.2534,-3.197,-3.1787,-3.1511,-3.1314,-3.1406,-3.1406,-3.159,-3.1406,-3.113,-3.0669,-3.0313,-3.0035,-2.9665,-2.9399,-2.8923,-2.8539,-2.8061,-2.7886,-2.7606,-2.7338,-2.7151,-2.763,-2.728,-2.6322,-2.5552,-2.5172,-2.4808,-2.4675,-2.4709,-2.4985,-2.6009,-2.6436,-2.6278,-2.6076,-2.6076,-2.5838,-2.5241,-2.4759,-2.4168,-2.383,-2.4081,-2.4192,-2.3987,-2.3609,-2.3519,-6.4388,-6.4388,-6.4388,-6.4388,-6.4388,-6.4388,-6.4363,-6.4158,-6.3071,-6.2673,-6.2266,-6.1047,-6.0404,-6.0332,-5.9644,-5.8863,-5.7628,-5.7273,-5.6027,-5.4353,-5.4206,-5.4261,-5.3869,-5.2742,-5.1887,-5.1588,-5.1346,-5.1002,-5.0131,-4.9784,-4.8985,-4.7701,-4.7495,-4.7014,-4.653,-4.6511,-4.6258,-4.594,-4.5856,-4.5668,-4.5291,-4.5118,-4.4865,-4.4659,-4.4423,-4.4149,-4.3947,-4.3776,-4.375,-4.3597,-4.3586,-4.3621,-4.353,-4.2786,-4.1834,-4.0844,-3.9895,-3.8723,-3.7697,-3.7479,-3.6911,-3.6296,-3.6241,-3.6254,-3.6443,-3.5442,-3.5188,-3.5262,-3.4276,-3.3326,-3.3118,-3.2703,-3.2337,-3.2429,-3.2963,-3.3223,-3.2858,-3.2506,-3.214,-3.176,-3.1314,-3.1038,-3.0761,-3.0405,-3.0233,-3.0035,-2.9838,-2.9758,-2.9325,-2.9022,-2.8477,-2.9231,-2.9211,-2.8561,-2.8003,-2.7689,-2.737,-2.6985,-2.7192,-2.7374,-2.7802,-2.8105,-2.7986,-2.772,-2.7306,-2.6857,-2.6727,-2.6767,-2.6308,-2.5517,-2.5773,-2.5937,-2.5546,-2.5509,-2.5583,-6.4388,-6.4388,-6.4388,-6.4388,-6.4388,-6.4388,-6.4388,-6.4363,-6.4158,-6.4084,-6.3747,-6.2518,-6.1918,-6.1354,-5.9836,-5.879,-5.8131,-5.7336,-5.648,-5.6037,-5.5966,-5.5913,-5.5527,-5.4183,-5.316,-5.2548,-5.2047,-5.1625,-5.1405,-5.1325,-5.0679,-4.9478,-4.9232,-4.8656,-4.7598,-4.7053,-4.6846,-4.6393,-4.6161,-4.6038,-4.5895,-4.5375,-4.5132,-4.5371,-4.4692,-4.4347,-4.4441,-4.4263,-4.4052,-4.3725,-4.3717,-4.3904,-4.4121,-4.3757,-4.3243,-4.2968,-4.32,-4.2052,-4.1553,-4.0692,-3.9996,-3.7995,-3.7628,-3.7131,-3.6361,-3.5905,-3.5789,-3.6369,-3.5321,-3.4682,-3.4695,-3.3965,-3.3132,-3.2781,-3.4375,-3.5113,-3.439,-3.3223,-3.2781,-3.2506,-3.2245,-3.2154,-3.2062,-3.1865,-3.1682,-3.1393,-3.1156,-3.0841,-3.058,-3.0074,-2.9841,-2.9635,-2.9467,-2.9021,-2.8844,-2.8553,-2.8452,-2.8458,-2.8929,-2.9221,-2.9625,-2.9667,-2.9582,-2.89,-2.8335,-2.791,-2.771,-2.7912,-2.7776,-2.7316,-2.733,-2.7687,-2.7808,-2.8042,-2.8241,-6.4388,-6.4388,-6.4388,-6.4388,-6.4388,-6.4388,-6.4388,-6.4388,-6.4388,-6.4388,-6.4231,-6.3699,-6.3081,-6.2327,-6.1461,-6.0187,-5.872,-5.8233,-5.7554,-5.6878,-5.6906,-5.6754,-5.6243,-5.5605,-5.5117,-5.4674,-5.4418,-5.3791,-5.2764,-5.2685,-5.2047,-5.1002,-5.076,-5.0354,-4.9866,-4.9047,-4.8081,-4.7122,-4.6345,-4.5513,-4.4778,-4.4426,-4.4265,-4.4398,-4.4122,-4.4022,-4.4092,-4.4068,-4.386,-4.3756,-4.3734,-4.3948,-4.4225,-4.3526,-4.3036,-4.3047,-4.2593,-4.2003,-4.1526,-4.1526,-4.0878,-4.0081,-3.9247,-3.8708,-3.8532,-3.6862,-3.66,-3.7126,-3.6475,-3.6005,-3.6022,-3.5502,-3.5294,-3.5096,-3.6331,-3.6894,-3.6536,-3.5368,-3.4571,-3.4208,-3.351,-3.29,-3.2703,-3.252,-3.2154,-3.1981,-3.1633,-3.121,-3.1013,-3.0612,-3.0296,-3.0056,-3.0076,-2.9995,-2.969,-2.9576,-2.9523,-3.0055,-3.0669,-3.1014,-3.1092,-3.0963,-3.1036,-3.044,-2.9968,-2.9535,-2.9404,-2.9551,-2.9504,-2.9026,-2.8705,-2.9067,-2.9442,-2.9882,-3.0557,-6.3804,-6.3957,-6.3957,-6.4129,-6.4388,-6.4388,-6.4388,-6.4388,-6.4388,-6.4388,-6.4314,-6.3938,-6.3352,-6.2645,-6.1864,-6.0656,-5.9133,-5.8851,-5.824,-5.7457,-5.7385,-5.7133,-5.6778,-5.6754,-5.6525,-5.6219,-5.6143,-5.5504,-5.4573,-5.4261,-5.3532,-5.2503,-5.2185,-5.1733,-5.087,-5.0149,-4.912,-4.7902,-4.6948,-4.5968,-4.4791,-4.4471,-4.4137,-4.394,-4.3665,-4.384,-4.4375,-4.4412,-4.4201,-4.3872,-4.3996,-4.4059,-4.3964,-4.339,-4.3068,-4.318,-4.2508,-4.2058,-4.1771,-4.1739,-4.1706,-4.1138,-4.0474,-4.0375,-4.0461,-3.9067,-3.8301,-3.8488,-3.7798,-3.718,-3.7054,-3.682,-3.6605,-3.7022,-3.7551,-3.7653,-3.7234,-3.6904,-3.6571,-3.6295,-3.5308,-3.4691,-3.4509,-3.4404,-3.4212,-3.3905,-3.3469,-3.308,-3.2762,-3.2402,-3.1771,-3.17,-3.1415,-3.1494,-3.1302,-3.112,-3.1313,-3.1824,-3.2303,-3.2615,-3.2318,-3.2137,-3.2386,-3.2174,-3.1833,-3.1551,-3.137,-3.1393,-3.1321,-3.1059,-3.0853,-3.0868,-3.102,-3.1556,-3.2299,-6.2595,-6.3188,-6.3157,-6.3616,-6.4104,-6.4153,-6.4265,-6.4202,-6.4251,-6.4104,-6.3908,-6.3141,-6.2685,-6.2164,-6.0728,-5.9696,-5.9281,-5.8802,-5.836,-5.7937,-5.7888,-5.7565,-5.7091,-5.6971,-5.6745,-5.661,-5.6554,-5.6501,-5.6243,-5.5913,-5.5172,-5.4137,-5.3712,-5.27,-5.0238,-5.036,-4.9582,-4.8702,-4.8214,-4.7615,-4.6848,-4.5802,-4.5055,-4.4351,-4.3617,-4.4014,-4.5697,-4.5748,-4.5256,-4.4351,-4.4531,-4.4387,-4.3921,-4.3604,-4.3682,-4.3717,-4.3976,-4.3632,-4.2811,-4.2859,-4.2494,-4.1776,-4.1255,-4.12,-4.1348,-4.0976,-4.0596,-4.0298,-3.9339,-3.8378,-3.7932,-3.7554,-3.7548,-3.7664,-3.8302,-3.8251,-3.7728,-3.7777,-3.8233,-3.7898,-3.7312,-3.7737,-3.7737,-3.7014,-3.6498,-3.6092,-3.5897,-3.5529,-3.4797,-3.4258,-3.4457,-3.4299,-3.3525,-3.2813,-3.2669,-3.2723,-3.3158,-3.3553,-3.3903,-3.4199,-3.3972,-3.3776,-3.4011,-3.3711,-3.3331,-3.2977,-3.2833,-3.2974,-3.3009,-3.2973,-3.3246,-3.3199,-3.3378,-3.3664,-3.4317,-6.1923,-6.2427,-6.2526,-6.2645,-6.2862,-6.2887,-6.2887,-6.2911,-6.2887,-6.2887,-6.2837,-6.2516,-6.1923,-6.1156,-6.0514,-5.9947,-5.9204,-5.8982,-5.8908,-5.871,-5.7942,-5.7425,-5.713,-5.649,-5.6418,-5.696,-5.6616,-5.6407,-5.653,-5.6473,-5.6143,-5.5788,-5.5605,-5.5163,-5.4275,-5.2487,-5.1238,-5.0145,-4.8561,-4.7207,-4.6328,-4.5911,-4.5619,-4.537,-4.5085,-4.5277,-4.5811,-4.5861,-4.5668,-4.5402,-4.5422,-4.5064,-4.4083,-4.3492,-4.339,-4.3703,-4.3875,-4.3734,-4.34,-4.3493,-4.344,-4.3344,-4.262,-4.2239,-4.2442,-4.1751,-4.123,-4.1141,-4.0959,-4.0655,-4.0028,-4.0133,-4.0605,-4.09,-4.1306,-4.1565,-4.1453,-4.1557,-4.0918,-3.9437,-3.7879,-3.6647,-3.6347,-3.6481,-3.6417,-3.5991,-3.5597,-3.5376,-3.504,-3.4561,-3.4159,-3.4127,-3.4236,-3.4063,-3.3888,-3.4938,-3.5754,-3.554,-3.5654,-3.5893,-3.5915,-3.5841,-3.5634,-3.5218,-3.4834,-3.4467,-3.4386,-3.4504,-3.4554,-3.4431,-3.4958,-3.5571,-3.5452,-3.5829,-3.6418,-6.1706,-6.2039,-6.1932,-6.2023,-6.2191,-6.2216,-6.2216,-6.2216,-6.2216,-6.2216,-6.2166,-6.1793,-6.1221,-6.06,-6.0452,-5.9471,-5.8226,-5.8103,-5.8006,-5.7736,-5.7042,-5.6718,-5.6644,-5.5997,-5.6047,-5.6547,-5.6217,-5.6055,-5.6174,-5.6074,-5.6,-5.6,-5.5827,-5.5611,-5.5053,-5.3735,-5.2635,-5.1652,-5.0335,-4.9035,-4.8252,-4.7545,-4.7653,-4.8198,-4.8291,-4.8356,-4.8576,-4.8117,-4.7653,-4.7296,-4.6727,-4.6003,-4.4898,-4.4306,-4.4007,-4.3866,-4.3624,-4.3469,-4.3508,-4.3664,-4.3875,-4.4019,-4.3371,-4.3187,-4.3306,-4.2852,-4.2188,-4.2055,-4.2436,-4.2185,-4.1454,-4.1716,-4.2032,-4.1843,-4.2149,-4.2371,-4.3015,-4.3096,-4.2615,-4.122,-3.9677,-3.8471,-3.8929,-3.8488,-3.8286,-3.8016,-3.7778,-3.7622,-3.7184,-3.6858,-3.666,-3.6212,-3.6077,-3.5924,-3.5732,-3.715,-3.7723,-3.7276,-3.6985,-3.7051,-3.6577,-3.6255,-3.6512,-3.6052,-3.6101,-3.6021,-3.7211,-3.7397,-3.7835,-3.7649,-3.7793,-3.8067,-3.7102,-3.8157,-3.8743,-6.1911,-6.1879,-6.1525,-6.1836,-6.2226,-6.2201,-6.2148,-6.2153,-6.2098,-6.207,-6.1923,-6.1152,-6.0652,-6.0553,-6.0039,-5.8575,-5.6806,-5.6831,-5.6667,-5.6312,-5.5948,-5.5758,-5.5689,-5.5614,-5.5614,-5.5898,-5.5619,-5.5579,-5.5703,-5.5326,-5.5041,-5.5044,-5.4833,-5.4106,-5.3545,-5.3777,-5.3513,-5.2648,-5.2658,-5.2587,-5.1649,-5.0451,-5.0651,-5.1984,-5.2331,-5.2342,-5.2826,-5.1948,-5.0863,-4.9939,-4.8642,-4.7298,-4.6234,-4.6019,-4.5352,-4.4371,-4.3551,-4.316,-4.3279,-4.3545,-4.3842,-4.3782,-4.3644,-4.3795,-4.4025,-4.3962,-4.3698,-4.3165,-4.3071,-4.2809,-4.2058,-4.2118,-4.1865,-4.1258,-4.0988,-4.1578,-4.239,-4.2723,-4.2841,-4.2967,-4.2669,-4.2227,-4.2743,-4.3402,-4.222,-4.1726,-4.1892,-4.1507,-4.0503,-4.0646,-4.0261,-3.9687,-3.9569,-3.9702,-3.8974,-3.9067,-3.8649,-3.8348,-3.8266,-3.764,-3.6813,-3.6337,-3.6678,-3.6969,-3.7272,-3.8152,-3.9533,-4.0276,-4.0415,-4.0622,-4.0719,-4.0884,-4.0124,-4.0706,-4.0641,-6.3083,-6.304,-6.3007,-6.3013,-6.3088,-6.2318,-6.1954,-6.1833,-6.1122,-6.0751,-6.08,-6.1086,-6.0854,-6.0131,-5.9923,-5.954,-5.8983,-5.889,-5.8796,-5.8625,-5.7758,-5.7364,-5.722,-5.5955,-5.5588,-5.6177,-5.5432,-5.5315,-5.6067,-5.5649,-5.5414,-5.5414,-5.5319,-5.51,-5.4803,-5.3938,-5.3506,-5.3118,-5.2215,-5.1747,-5.1639,-5.2093,-5.2705,-5.3001,-5.2224,-5.1729,-5.1884,-5.2093,-5.201,-5.1731,-5.0839,-4.9831,-4.8741,-4.7709,-4.6621,-4.5524,-4.5183,-4.5072,-4.5072,-4.4443,-4.411,-4.4322,-4.3598,-4.3351,-4.3739,-4.3892,-4.3812,-4.3551,-4.3571,-4.3516,-4.3231,-4.3192,-4.3094,-4.2955,-4.2955,-4.2972,-4.3252,-4.341,-4.3072,-4.2393,-4.2498,-4.1986,-4.1239,-4.1239,-4.1333,-4.1069,-4.0862,-4.0561,-4.041,-4.0467,-4.0468,-4.0071,-4.0091,-4.027,-4.07,-4.0704,-4.0741,-4.0433,-4.0344,-4.0153,-3.9643,-3.9544,-3.9613,-3.9246,-3.9229,-3.9764,-4.0619,-4.1354,-4.168,-4.2137,-4.264,-4.3143,-4.2527,-4.2008,-4.1659,-6.4833,-6.4192,-6.3778,-6.3275,-6.2709,-6.2061,-6.1476,-6.0985,-6.0361,-6.0107,-6.0247,-6.0916,-6.0472,-5.9135,-5.9485,-5.9189,-5.8594,-5.853,-5.853,-5.8449,-5.7816,-5.7468,-5.7351,-5.6183,-5.5984,-5.6544,-5.5863,-5.5771,-5.6273,-5.6125,-5.5967,-5.6033,-5.5967,-5.5967,-5.5941,-5.5027,-5.4548,-5.4523,-5.358,-5.3236,-5.3498,-5.4307,-5.4802,-5.4774,-5.3895,-5.3386,-5.3523,-5.304,-5.3086,-5.3242,-5.239,-5.164,-5.1306,-5.0461,-4.9266,-4.7622,-4.7434,-4.6993,-4.5954,-4.5215,-4.4944,-4.5159,-4.4109,-4.3593,-4.4052,-4.3703,-4.3623,-4.402,-4.4016,-4.3863,-4.3899,-4.3689,-4.3715,-4.38,-4.3625,-4.3468,-4.3722,-4.3721,-4.3466,-4.2743,-4.2529,-4.2375,-4.2123,-4.1986,-4.2006,-4.2006,-4.1756,-4.1775,-4.1698,-4.2006,-4.1867,-4.1278,-4.1136,-4.1511,-4.2184,-4.2363,-4.2519,-4.2631,-4.2698,-4.27,-4.2268,-4.2246,-4.2158,-4.1827,-4.1666,-4.1568,-4.1783,-4.2603,-4.301,-4.3451,-4.4169,-4.438,-4.3671,-4.3013,-4.2753,-6.7124,-6.5691,-6.4752,-6.3296,-6.2135,-6.1745,-6.102,-6.0122,-5.9884,-5.9988,-6.0516,-6.1028,-6.0392,-5.8915,-5.9536,-5.9107,-5.7686,-5.7319,-5.7516,-5.7543,-5.7149,-5.7095,-5.7238,-5.6803,-5.666,-5.6714,-5.6556,-5.6477,-5.6557,-5.6574,-5.6583,-5.6591,-5.6591,-5.6548,-5.6566,-5.6288,-5.6202,-5.6254,-5.5897,-5.5977,-5.6539,-5.6591,-5.6735,-5.7083,-5.6436,-5.6325,-5.6236,-5.4753,-5.3998,-5.444,-5.3284,-5.2838,-5.3303,-5.3376,-5.2303,-5.0222,-5.0031,-4.9066,-4.697,-4.6343,-4.6206,-4.5954,-4.497,-4.4455,-4.4739,-4.384,-4.3721,-4.4518,-4.4463,-4.4329,-4.4297,-4.4089,-4.4096,-4.4384,-4.3861,-4.3418,-4.3957,-4.3941,-4.3921,-4.3921,-4.3918,-4.4117,-4.4614,-4.4631,-4.4793,-4.4586,-4.4023,-4.3755,-4.3794,-4.429,-4.4212,-4.3257,-4.3103,-4.3431,-4.3495,-4.3694,-4.3774,-4.4166,-4.4344,-4.4205,-4.411,-4.4133,-4.4322,-4.3652,-4.3807,-4.3798,-4.415,-4.4738,-4.47,-4.53,-4.5705,-4.5581,-4.4821,-4.4138,-4.4032,-7.0017,-6.8745,-6.845,-6.6886,-6.4508,-6.2349,-6.1349,-6.1001,-6.0223,-6.1103,-6.3086,-6.3367,-6.3225,-6.2819,-6.2942,-6.28,-6.2512,-6.2423,-6.2395,-6.231,-6.116,-6.0618,-6.0413,-5.8504,-5.7609,-5.7548,-5.6906,-5.6591,-5.6591,-5.6591,-5.6591,-5.6591,-5.6591,-5.6591,-5.6564,-5.6522,-5.6503,-5.6467,-5.6391,-5.6448,-5.6591,-5.6591,-5.661,-5.6691,-5.6566,-5.6143,-5.5448,-5.5523,-5.5254,-5.4653,-5.3746,-5.331,-5.3461,-5.2975,-5.246,-5.199,-5.2327,-5.2373,-5.166,-4.9982,-4.8421,-4.7346,-4.6146,-4.5517,-4.5567,-4.532,-4.5336,-4.5568,-4.5596,-4.5431,-4.5431,-4.5359,-4.5373,-4.5473,-4.532,-4.5178,-4.5378,-4.54,-4.54,-4.54,-4.54,-4.5369,-4.5619,-4.5619,-4.5747,-4.5717,-4.5473,-4.54,-4.5263,-4.4834,-4.4898,-4.5056,-4.5966,-4.585,-4.476,-4.4617,-4.4749,-4.4763,-4.4907,-4.5122,-4.5074,-4.4907,-4.4835,-4.5147,-4.5206,-4.5405,-4.5179,-4.6377,-4.7487,-4.7512,-4.8392,-4.9384,-4.8367,-4.6477,-4.533,-7.0802,-6.8996,-6.8939,-6.7979,-6.6473,-6.4406,-6.3218,-6.2623,-6.2058,-6.2748,-6.41,-6.41,-6.41,-6.41,-6.41,-6.41,-6.41,-6.41,-6.41,-6.4072,-6.326,-6.2914,-6.2708,-6.1454,-6.0815,-6.0726,-6.0297,-6.0053,-6.0053,-6.0053,-6.0053,-6.0025,-6.0025,-5.9653,-5.8946,-5.7788,-5.7211,-5.7239,-5.9044,-6.0053,-6.0025,-6.0053,-5.9992,-5.9897,-5.9375,-5.8689,-5.7867,-5.7639,-5.7382,-5.6976,-5.6219,-5.5639,-5.5524,-5.4963,-5.417,-5.3009,-5.3239,-5.3343,-5.3061,-5.1735,-5.0816,-5.0298,-4.8677,-4.8109,-4.9255,-4.8463,-4.7881,-4.7952,-4.71,-4.6665,-4.6665,-4.6546,-4.6453,-4.6403,-4.6075,-4.5861,-4.5861,-4.5861,-4.5861,-4.5861,-4.5861,-4.6003,-4.6381,-4.6948,-4.7357,-4.7429,-4.7523,-4.7251,-4.6403,-4.5753,-4.5508,-4.6055,-4.6265,-4.615,-4.6047,-4.6182,-4.6734,-4.7325,-4.768,-4.7974,-4.8033,-4.8058,-4.8084,-4.8092,-4.7984,-4.7875,-4.7646,-4.8548,-4.8949,-4.8971,-4.9601,-4.9938,-4.9788,-4.787,-4.647,-7.0779,-6.8259,-6.8259,-6.8029,-6.7599,-6.6601,-6.5395,-6.4186,-6.4652,-6.4796,-6.4796,-6.4796,-6.4857,-6.4857,-6.4825,-6.4857,-6.4857,-6.4857,-6.4796,-6.4857,-6.4534,-6.4448,-6.4448,-6.4215,-6.41,-6.41,-6.41,-6.41,-6.41,-6.4072,-6.41,-6.4072,-6.41,-6.3463,-6.2076,-5.9957,-5.88,-5.8856,-6.2322,-6.41,-6.41,-6.41,-6.4036,-6.382,-6.2872,-6.2149,-6.1377,-6.0158,-5.9606,-5.9761,-5.9023,-5.8507,-5.8181,-5.781,-5.6707,-5.4541,-5.4378,-5.4032,-5.333,-5.2996,-5.3053,-5.3279,-5.1379,-5.1236,-5.3544,-5.197,-5.0765,-5.0742,-4.9408,-4.8435,-4.8435,-4.8291,-4.8172,-4.7985,-4.7443,-4.6993,-4.7202,-4.7224,-4.7318,-4.7318,-4.6948,-4.7416,-4.8192,-4.8956,-4.9515,-4.9472,-4.9202,-4.8925,-4.7456,-4.6978,-4.6965,-4.6946,-4.6207,-4.621,-4.7145,-4.8074,-4.8727,-5.0083,-5.0524,-5.0612,-5.0586,-5.0586,-5.0586,-5.118,-5.046,-5.0315,-5.053,-5.0255,-5.0394,-5.061,-5.0013,-4.9466,-4.9946,-4.8542,-4.7166,-7.1733,-7.0391,-7.0391,-6.8987,-6.6741,-6.6539,-6.5551,-6.4333,-6.6986,0.0,0.0,-6.8129,-6.8129,-6.8129,-6.8129,-6.8129,-6.8192,-6.81,-6.8192,-6.8071,-6.6721,-6.6078,-6.5991,-6.4739,-6.41,-6.41,-6.41,-6.41,-6.41,-6.41,-6.41,-6.41,-6.41,-6.4014,-6.3692,-6.3254,-6.3019,-6.3108,-6.3778,-6.41,-6.41,-6.41,-6.4129,-6.404,-6.3857,-6.3272,-6.2058,-6.1805,-6.1212,-6.0217,-5.9714,-5.9421,-5.934,-5.9346,-5.9031,-5.8627,-5.855,-5.8148,-5.7053,-5.5591,-5.438,-5.353,-5.2524,-5.3132,-5.5618,-5.4047,-5.2922,-5.2898,-5.2612,-5.2398,-5.2422,-5.235,-5.235,-5.235,-5.2183,-5.1993,-5.2065,-5.2112,-5.1756,-5.2112,-5.1733,-5.2088,-5.1924,-5.157,-5.119,-5.0519,-4.9825,-4.8842,-4.8202,-4.8747,-4.9386,-4.9492,-4.9139,-4.9192,-4.9136,-4.9198,-4.9254,-4.9759,-4.9872,-4.9768,-4.9768,-4.9768,-4.9768,-5.0334,-5.0205,-5.08,-5.1479,-5.2296,-5.33,-5.4168,-5.3895,-5.3087,-5.1359,-4.9423,-4.8512,-7.108,-6.9975,-6.9945,-6.9155,0.0,-6.7747,-6.7308,-6.6721,-6.8337,-6.8986,-6.8986,-6.8986,-6.8986,-6.8986,-6.8986,-6.8986,-6.8986,-6.8986,-6.8986,-6.8957,-6.8129,-6.7747,-6.7718,-6.6986,-6.6606,-6.6635,-6.6635,-6.6635,-6.6635,-6.6606,-6.6606,-6.6606,-6.6606,-6.6136,-6.535,-6.5321,-6.5472,-6.5806,-6.529,-6.503,-6.5061,-6.503,-6.5001,-6.503,-6.5369,0.0,0.0,0.0,0.0,0.0,0.0,0.0,0.0,0.0,0.0,-5.7889,-5.7828,-5.7556,-5.7104,-5.6184,-5.5471,-5.4877,-5.5071,-5.5323,-5.5414,-5.4449,-5.3783,-5.3759,-5.3568,-5.3472,-5.3472,-5.3472,-5.3328,-5.299,-5.2965,-5.2819,-5.2476,-5.2379,-5.2186,-5.1727,-5.1562,-5.1321,-5.0791,-5.0829,-5.0817,-5.0465,-5.0101,-4.9806,-4.9486,-4.9692,-4.9856,-4.9977,-4.998,-4.9795,-4.9557,-5.0312,-5.1261,-5.145,-5.2212,-5.2895,-5.2976,-5.3004,-5.2976,-5.303,-5.3247,-5.343,-5.3623,-5.4043,-5.4286,-5.3651,-5.2814,-5.1974,-5.1706,-5.0156,-4.9274,-6.9945,-6.9015,-6.8986,-6.8986,-6.8957,-6.8587,-6.8446,-6.8446,-6.8446,-6.8446,-6.8446,-6.8446,-6.8383,-6.8446,-6.8446,-6.8417,-6.8417,-6.8446,-6.8417,-6.8446,-6.8446,-6.8446,-6.8446,-6.8383,-6.8446,-6.8383,-6.8446,-6.8354,-6.8446,-6.8446,-6.8417,-6.8446,-6.8446,-6.7822,-6.67,0.0,0.0,0.0,-6.6357,-6.5885,-6.5885,-6.5885,-6.5885,-6.5914,-6.641,0.0,-6.6288,-6.6486,-6.6421,-6.5956,-6.4112,0.0,0.0,0.0,0.0,0.0,0.0,0.0,0.0,0.0,0.0,0.0,-5.6716,-5.6369,-5.4649,-5.4289,-5.4159,-5.4354,-5.3875,-5.3614,-5.3806,-5.383,-5.3563,-5.285,-5.2798,-5.2429,-5.165,-5.1504,-5.1185,-5.0378,-5.028,-4.9873,-4.935,-4.9792,-5.0467,-5.0372,-5.0541,-5.0728,-5.0851,-5.0465,-5.0259,-5.0529,-5.1099,-5.0908,-5.0745,-5.2344,-5.3376,-5.357,-5.5021,-5.5697,-5.5611,-5.5721,-5.5836,-5.5721,-5.6003,-5.5625,-5.5416,-5.5063,-5.4389,-5.2912,-5.1397,-5.0451,-5.1043,-5.0335,-4.9551,-6.916,-6.9015,-6.8986,-6.8986,-6.8903,-6.7058,-6.6298,-6.6298,-6.6268,-6.6298,-6.6268,-6.6298,-6.6268,-6.6298,-6.6298,-6.6298,-6.6268,-6.6298,-6.6298,-6.6298,-6.6298,-6.6268,-6.6298,-6.6298,-6.6298,-6.6298,-6.6298,-6.6268,-6.6298,-6.6298,-6.6298,-6.6298,-6.6268,-6.662,-6.7255,-6.6443,-6.6004,-6.6092,-6.5973,-6.5885,-6.5885,-6.5885,-6.5885,-6.5885,-6.5974,-6.5886,-6.5618,-6.5674,-6.5492,-6.51,-6.429,-6.3693,-6.3551,-6.2483,-6.1752,0.0,-6.0765,0.0,0.0,0.0,0.0,0.0,0.0,0.0,0.0,-5.4296,-5.4766,-5.5339,-5.4527,-5.4378,-5.5269,-5.5343,-5.4923,-5.3908,-5.3809,-5.3406,-5.234,-5.2167,-5.2117,-5.1994,-5.1969,-5.1944,-5.1613,-5.1798,-5.1568,-5.0853,-5.0778,-5.1205,-5.1541,-5.219,-5.2978,-5.4474,-5.5158,-5.4808,-5.5,-5.5,-5.4883,-5.4791,-5.4751,-5.3996,-5.4307,-5.4278,-5.4162,-5.4191,-5.4394,-5.461,-5.5736,-5.4859,-5.4411,-5.4988,-5.3209,-5.1223,-4.9955,-4.9383,-4.9337,-6.7291,-6.7262,-6.7291,-6.7291,-6.7234,-6.6298,-6.5885,-6.5885,-6.5885,-6.5885,-6.5885,-6.5885,-6.5885,-6.5885,-6.5885,-6.5885,-6.5885,-6.5885,-6.5885,-6.5885,-6.5885,-6.5885,-6.5885,-6.5885,-6.5885,-6.5885,-6.5885,-6.5885,-6.5885,-6.5885,-6.5885,-6.5885,-6.5885,-6.656,-6.782,-6.7563,-6.7095,-6.645,-6.645,-6.6227,-6.5722,-6.5691,-6.5661,-6.5722,-6.6196,-6.6425,-6.629,-6.6452,-6.638,-6.6147,-6.3896,-6.2995,-6.3662,-6.1807,-6.0568,0.0,0.0,0.0,0.0,0.0,0.0,0.0,0.0,0.0,0.0,0.0,-5.4119,-5.4406,-5.3611,-5.3761,-5.5355,-5.5208,-5.5058,-5.4893,-5.4884,-5.4546,-5.3693,-5.3262,-5.2979,-5.2967,-5.2629,-5.2171,-5.1551,-5.1335,-5.1019,-5.021,-5.224,-5.4032,-5.4331,-5.428,-5.4481,-5.5176,-5.5084,-5.4961,-5.4932,-5.5302,-5.5651,-5.568,-5.5941,-5.6209,-5.626,-5.6431,-5.6481,-5.6281,-5.6531,-5.6622,-5.5885,-5.5312,-5.4498,-5.3642,-5.1903,-5.0547,-4.986,-4.9813,-5.0066,-6.5885,-6.5885,-6.6176,-6.6085,-6.5789,-6.5702,-6.5554,-6.5459,-6.5456,-6.5634,-6.5989,-6.5634,-6.5842,-6.6379,-6.6349,-6.5965,-6.5315,-6.5813,-6.5783,-6.5459,-6.5542,-6.5542,-6.5429,-6.5629,-6.5599,-6.5315,-6.5656,-6.5769,-6.5629,-6.6011,-6.616,-6.6073,-6.5945,-6.6647,-6.8102,-6.7987,-6.7624,-6.7144,-6.67,-6.6185,-6.5527,-6.5496,-6.5496,-6.5496,-6.6185,-6.6546,-6.6628,-6.647,-6.6348,-6.6342,-6.3466,-6.2124,-6.2775,-6.0967,0.0,0.0,0.0,0.0,0.0,0.0,0.0,0.0,0.0,-5.4394,-5.4297,0.0,-5.3067,0.0,-5.251,-5.2928,-5.457,-5.454,0.0,0.0,-5.4814,-5.4553,-5.3513,-5.3206,-5.3077,-5.295,-5.2784,-5.233,-5.1506,-5.1624,-5.1527,-5.1207,-5.4121,-5.6521,-5.7149,-5.6516,-5.6138,-5.6852,-5.6613,-5.5858,-5.6201,-5.6654,-5.6991,-5.6493,-5.7275,-5.806,-5.808,-5.8316,-5.8414,-5.8228,-5.8313,-5.7623,-5.5882,-5.5073,-5.3855,-5.1775,-5.0528,-5.003,-5.0556,-5.0732,-5.1009,-6.5885,-6.5972,-6.6925,-6.666,-6.5492,-6.5156,-6.4661,-6.4121,-6.4294,-6.5038,-6.6157,-6.4886,-6.5546,-6.763,-6.766,0.0,-6.3664,-6.5432,-6.5479,-6.4174,-6.4587,-6.4556,-6.4174,-6.4847,-6.4609,-6.3604,-6.4941,-6.5249,-6.4908,-6.6274,-6.6827,-6.6615,-6.6092,-6.6631,-6.7876,-6.6561,-6.6468,-6.7947,-6.6456,-6.5601,-6.5496,-6.5496,-6.5496,-6.5527,-6.562,-6.5751,-6.592,-6.4513,-6.3812,-6.4007,-6.3084,-6.1973,-6.0855,0.0,0.0,0.0,0.0,0.0,0.0,0.0,0.0,0.0,0.0,0.0,0.0,0.0,0.0,-5.1849,-5.1983,0.0,-5.2822,-5.3492,0.0,0.0,0.0,-5.22,-5.001,-5.0817,-5.1517,-5.1517,0.0,0.0,-5.3406,-5.4058,-5.4893,-5.5871,-5.5601,-5.6255,-5.884,-5.8584,-5.9055,-6.1279,-6.1968,-6.2122,-6.1368,-6.0651,-5.9502,-5.8,-5.7514,-5.7627,-5.7703,-5.7655,-5.757,-5.7633,-5.6515,-5.5478,-5.5431,-5.3295,-5.1539,-5.1553,-5.1378,-5.1349,-5.1518,-5.1585,-5.1751,-6.6687,-6.7113,-6.6355,-6.6172,-6.6439,-6.6363,-6.6217,-6.6092,-6.6309,-6.6256,-6.5988,-6.5259,-6.5424,-6.6177,-6.6208,0.0,0.0,0.0,-6.5187,-6.4438,-6.5124,-6.49,-6.3991,-6.4209,-6.4309,-6.4306,-6.4427,-6.4804,-6.5533,-6.6182,-6.732,-6.8982,0.0,0.0,-6.9338,-6.9592,-6.9689,-6.966,-6.9852,-6.9963,-6.9963,-6.9963,-6.9963,-6.9931,-6.9131,-6.873,-6.8825,-6.6913,-6.5898,-6.5961,-6.3611,-6.2356,0.0,0.0,0.0,0.0,0.0,0.0,0.0,0.0,0.0,0.0,0.0,-5.3515,-5.3925,0.0,0.0,0.0,-5.3067,-5.3287,-5.3887,-5.4063,0.0,0.0,0.0,0.0,0.0,0.0,0.0,-5.4557,-5.4866,-5.5312,-5.6234,-5.7017,-5.7871,-5.8681,-5.9157,-5.9952,-6.1384,0.0,-6.062,-6.1187,-6.1419,-6.1377,-6.0763,-6.0775,-6.0641,-5.986,-5.9884,-6.0074,-6.0222,-5.9796,-5.9051,-5.7966,-5.6896,-5.5616,-5.3947,-5.2563,-5.1627,-5.1717,-5.1884,-5.1982,-5.2015,-5.2241,-5.2465,-6.8311,0.0,0.0,0.0,0.0,-6.7486,-6.7422,-6.7371,-6.7658,-6.7442,-6.687,-6.6314,0.0,0.0,0.0,0.0,0.0,0.0,-6.5988,-6.5477,-6.614,-6.5894,-6.4839,-6.4989,-6.5183,-6.5421,-6.5312,-6.5692,-6.6628,-6.6227,-6.7364,-6.9775,0.0,0.0,0.0,0.0,-7.1381,-7.1103,-7.158,-7.1861,-7.1781,-7.1814,-7.1861,-7.1828,-7.0457,-6.9706,-6.9796,-6.7811,-6.6602,-6.6284,-6.3976,0.0,0.0,0.0,0.0,0.0,0.0,0.0,0.0,0.0,0.0,0.0,0.0,0.0,0.0,0.0,0.0,0.0,0.0,0.0,-5.4829,-5.481,-5.4866,0.0,0.0,0.0,0.0,0.0,0.0,0.0,0.0,0.0,-5.8723,-5.9359,-5.9845,0.0,0.0,-6.1336,-6.25,-6.2148,-6.1835,-6.2011,-6.2126,0.0,-6.1266,-6.1624,-6.2014,-6.2249,-6.1928,-6.1716,-6.1774,-6.1574,-6.0823,-5.91,-5.7571,-5.5948,-5.3678,-5.2703,-5.2374,-5.2736,-5.2966,-5.3261,-5.3756,-5.411,-5.4361,0.0,0.0,0.0,0.0,0.0,0.0,0.0,0.0,-6.756,-6.828,0.0,-6.8038,0.0,0.0,0.0,0.0,-6.6737,-6.8315,0.0,0.0,-6.7527,-6.7481,-6.6977,-6.7585,-6.7556,-6.6738,-6.7856,-6.8263,-6.7882,-6.6583,0.0,0.0,0.0,0.0,0.0,0.0,-7.0077,-7.1583,-7.0219,-6.9364,-6.9386,-6.943,-6.943,-6.943,-6.804,-6.7478,-6.7482,-6.6063,-6.4598,-6.36,-6.4132,0.0,0.0,0.0,0.0,0.0,0.0,0.0,0.0,0.0,0.0,0.0,0.0,0.0,0.0,0.0,0.0,0.0,0.0,0.0,0.0,-5.5681,0.0,0.0,0.0,0.0,0.0,0.0,0.0,0.0,0.0,0.0,-6.045,-6.0688,-6.0643,-6.0583,0.0,0.0,0.0,0.0,-6.2765,-6.5219,-6.5934,-6.6017,-6.6003,-6.5012,-6.4459,-6.5075,0.0,0.0,-6.0825,-6.1872,-6.224,-6.0984,-5.8233,-5.5971,-5.5216,-5.384,-5.3302,-5.4638,-5.4905,-5.5672,-5.7206,-5.7164,-5.746,0.0,0.0,0.0,0.0,0.0,0.0,0.0,0.0,0.0,-6.9703,-6.826,-6.7822,0.0,0.0,0.0,0.0,0.0,0.0,0.0,0.0,-6.7409,-6.7136,-6.6052,-6.6236,-6.5908,0.0,-6.5032,-6.579,0.0,0.0,0.0,0.0,0.0,0.0,0.0,0.0,-6.9572,-7.1815,-7.1374,-7.1561,-7.2422,-7.2521,-7.2521,-7.2488,-7.2025,-7.1417,-7.077,-6.855,-6.7143,0.0,0.0,0.0,0.0,0.0,0.0,0.0,0.0,0.0,0.0,0.0,0.0,0.0,0.0,0.0,0.0,0.0,0.0,0.0,0.0,0.0,0.0,0.0,-5.4481,0.0,0.0,0.0,0.0,0.0,0.0,0.0,0.0,0.0,-5.841,-5.9556,-6.0167,-5.9611,-6.0433,-6.1342,-6.187,0.0,0.0,0.0,0.0,0.0,0.0,0.0,-6.7006,-6.7416,-6.7061,-6.6398,-6.5393,-6.4286,-6.3118,-6.1758,0.0,0.0,-5.6013,-5.4579,-5.3663,-5.4236,-5.4397,-5.4621,-5.5255,-5.5708,-5.6027,0.0,0.0,0.0,0.0,0.0,0.0,0.0,0.0,0.0,-6.9132,-6.7364,0.0,0.0,0.0,0.0,0.0,0.0,0.0,0.0,0.0,0.0,0.0,-6.5925,-6.5739,0.0,0.0,0.0,0.0,0.0,0.0,0.0,0.0,0.0,0.0,0.0,0.0,-6.9162,-7.1954,-7.1602,-7.2005,-7.3548,-7.3616,-7.3658,-7.3708,-7.3187,-7.2523,-7.1791,0.0,0.0,0.0,0.0,0.0,0.0,0.0,0.0,0.0,0.0,0.0,0.0,0.0,0.0,0.0,0.0,0.0,0.0,0.0,0.0,0.0,0.0,0.0,0.0,0.0,-5.4309,0.0,0.0,0.0,0.0,0.0,0.0,0.0,0.0,0.0,0.0,0.0,-6.0722,-6.0161,-6.178,-6.3062,-6.31,-6.4486,-6.5431,0.0,0.0,0.0,0.0,0.0,0.0,0.0,0.0,0.0,0.0,0.0,0.0,0.0,0.0,-5.7078,-5.6511,-5.5222,-5.4329,-5.481,0.0,0.0,0.0,0.0,0.0,0.0,0.0,0.0,0.0,0.0,0.0,0.0,0.0,0.0,0.0,-6.6705,0.0,0.0,-6.6536,0.0,0.0,0.0,0.0,0.0,0.0,0.0,0.0,0.0,0.0,0.0,0.0,0.0,0.0,0.0,0.0,0.0,0.0,0.0,0.0,0.0,0.0,-6.8645,-7.1958,-7.0331,-7.0374,-7.2113,-7.229,-7.2398,-7.2617,-7.1126,-7.0299,-7.0408,0.0,0.0,0.0,0.0,0.0,0.0,0.0,0.0,0.0,0.0,0.0,0.0,0.0,0.0,0.0,0.0,0.0,0.0,0.0,0.0,0.0,0.0,0.0,0.0,0.0,0.0,-5.7182,-5.703,-5.6231,0.0,0.0,0.0,0.0,0.0,0.0,0.0,0.0,0.0,-6.2363,-6.2827,-6.3648,-6.5026,-6.596,-6.6908,-6.821,-6.7507,-6.668,-6.6723,-6.5857,-6.5779,0.0,0.0,0.0,0.0,0.0,0.0,0.0,0.0,0.0,0.0,0.0,0.0,0.0,0.0,0.0,0.0,0.0,0.0,0.0,0.0,0.0,0.0,0.0,0.0,0.0,0.0,0.0,0.0,0.0,0.0,0.0,0.0,0.0,0.0,0.0,0.0,0.0,0.0,0.0,0.0,0.0,0.0,0.0,0.0,0.0,0.0,0.0,0.0,0.0,0.0,0.0,0.0,0.0,0.0,-6.6616,-7.0704,-6.8057,-6.7508,-6.9125,-7.0368,-7.0956,-7.1063,-7.1828,-7.1795,0.0,0.0,0.0,0.0,0.0,0.0,0.0,0.0,0.0,0.0,0.0,0.0,0.0,0.0,0.0,0.0,0.0,0.0,0.0,0.0,0.0,0.0,0.0,0.0,0.0,0.0,0.0,0.0,-5.4322,-5.4188,-5.4635,0.0,0.0,0.0,0.0,0.0,0.0,0.0,0.0,0.0,0.0,-6.404,-6.458,-6.5855,-6.6919,-6.7344,-6.7307,-6.7257,-6.7224,-6.6511,-6.6569,-6.8424,0.0,0.0,0.0,0.0,0.0,0.0,0.0,0.0,0.0,0.0,0.0,0.0,0.0,0.0,0.0,0.0,0.0,0.0,0.0,0.0,0.0,0.0,0.0,0.0,0.0,0.0,0.0,0.0,0.0,0.0,0.0,0.0,0.0,0.0,0.0,0.0,0.0,0.0,0.0,0.0,0.0,0.0,0.0,0.0,0.0,0.0,0.0,0.0,0.0,0.0,0.0,0.0,0.0,-6.7135,-7.169,-6.9292,-6.8524,-6.963,-7.0635,-7.0909,-7.0444,-7.1542,-7.1768,0.0,0.0,0.0,0.0,0.0,0.0,0.0,0.0,0.0,0.0,0.0,0.0,0.0,0.0,0.0,0.0,0.0,0.0,0.0,0.0,0.0,0.0,0.0,0.0,0.0,0.0,0.0,0.0,-5.4004,-5.4373,-5.4917,0.0,0.0,0.0,0.0,0.0,0.0,0.0,0.0,0.0,0.0,-6.4903,-6.561,-6.6589,0.0,0.0,-6.7062,-6.6942,-6.7224,-6.5917,-6.5597,-6.7704,-6.7166,0.0,0.0,0.0,0.0,0.0,0.0,0.0,0.0,0.0,0.0,0.0,0.0,0.0,0.0,0.0,0.0,0.0,0.0,0.0,0.0,0.0,0.0,0.0,0.0,0.0,0.0,0.0,0.0,0.0,0.0,0.0,0.0,0.0,0.0,0.0,0.0,0.0,0.0,0.0,0.0,0.0,0.0,0.0,0.0,0.0,0.0,0.0,0.0,0.0,0.0,0.0,0.0,-6.91,-7.3756,-7.2352,-7.1552,-7.2018,-7.216,-7.1659,-7.0467,-7.0628,-7.0781,0.0,0.0,0.0,0.0,0.0,0.0,0.0,0.0,0.0,0.0,0.0,0.0,0.0,0.0,0.0,0.0,0.0,0.0,0.0,0.0,0.0,0.0,0.0,0.0,0.0,0.0,0.0,0.0,0.0,0.0,0.0,0.0,0.0,0.0,0.0,0.0,0.0,0.0,0.0,0.0,0.0,-6.5946,-6.7614,-6.7847,-6.7895,0.0,-6.6869,-6.6277,-6.709,-6.476,-6.3706,-6.6205,0.0,0.0,0.0,0.0,0.0,0.0,0.0,0.0,0.0,0.0,0.0,0.0,0.0,0.0,0.0,0.0,0.0,0.0,0.0,0.0,0.0,0.0,0.0,0.0,0.0,0.0,0.0,0.0,0.0,0.0,0.0,0.0,0.0,0.0,0.0,0.0,0.0,0.0,0.0,0.0,0.0,0.0,0.0,0.0,0.0,0.0,0.0,0.0,0.0,0.0,0.0,0.0,0.0,0.0,-6.9415,-6.8037,-6.7301,-6.7454,-6.8632,-6.9267,-6.9296,-7.1731,0.0,0.0,0.0,0.0,0.0,0.0,0.0,0.0,0.0,0.0,0.0,0.0,0.0,0.0,0.0,0.0,0.0,0.0,0.0,0.0,0.0,0.0,0.0,0.0,0.0,0.0,0.0,-5.2959,0.0,0.0,0.0,0.0,0.0,0.0,0.0,0.0,0.0,0.0,0.0,0.0,0.0,0.0,-6.5079,-6.7481,-6.7902,-6.8064,0.0,0.0,-6.7253,-6.8599,-6.696,-6.6106,0.0,0.0,0.0,0.0,0.0,0.0,0.0,0.0,0.0,0.0,0.0,0.0,0.0,0.0,0.0,0.0,0.0,0.0,0.0,0.0,0.0,0.0,0.0,0.0,0.0,0.0,0.0,0.0,0.0,0.0,0.0,0.0,0.0,0.0,0.0,0.0,0.0,0.0,0.0,0.0,0.0,0.0,0.0,0.0,0.0,0.0,0.0,0.0,0.0,0.0,0.0,0.0,0.0,0.0,-6.8302,-6.9123,-6.9133,-6.8528,-6.73,-6.8241,-6.8616,-6.8274,-7.1549,-7.1911,0.0,0.0,0.0,0.0,0.0,0.0,0.0,0.0,0.0,0.0,0.0,0.0,0.0,0.0,0.0,0.0,0.0,0.0,0.0,0.0,0.0,0.0,0.0,0.0,0.0,0.0,0.0,0.0,0.0,0.0,0.0,0.0,0.0,0.0,0.0,0.0,0.0,0.0,0.0,0.0,0.0,0.0,-6.6948,-6.7373,0.0,0.0,0.0,-6.6916,-6.8707,0.0,0.0,0.0,0.0,0.0,0.0,0.0,0.0,0.0,0.0,0.0,0.0,0.0,0.0,0.0,0.0,0.0,0.0,0.0,0.0,0.0,0.0,0.0,0.0,0.0,0.0,0.0,0.0,0.0,0.0,0.0,0.0,0.0,0.0,0.0,0.0,0.0,0.0,0.0,0.0,0.0,0.0,0.0,0.0,0.0,0.0,0.0,0.0,0.0,0.0,0.0,0.0,0.0,0.0,0.0,0.0,0.0,-7.0571,-7.2282,-7.1849,-6.9187,-6.9209,-6.8753,-6.7645,-7.0891,-7.1153,0.0,0.0,0.0,0.0,0.0,0.0,0.0,0.0,0.0,0.0,0.0,0.0,0.0,0.0,0.0,0.0,0.0,0.0,0.0,0.0,0.0,0.0,0.0,0.0,0.0,0.0,0.0,0.0,0.0,0.0,0.0,0.0,0.0,0.0,0.0,0.0,0.0,0.0,0.0,0.0,0.0,-6.4339,-6.6005,-6.6397,-6.7206,0.0,0.0,-6.6201,-6.8222,-6.626,0.0,0.0,0.0,0.0,0.0,0.0,0.0,0.0,0.0,0.0,0.0,0.0,0.0,0.0,0.0,0.0,0.0,0.0,0.0,0.0,0.0,0.0,0.0,0.0,0.0,0.0,0.0,0.0,0.0,0.0,0.0,0.0,0.0,0.0,0.0,0.0,0.0,0.0,0.0,0.0,0.0,0.0,0.0,0.0,0.0,0.0,0.0,0.0,0.0,0.0,0.0,0.0,0.0,0.0,0.0,0.0,-6.7943,-6.9533,-6.9589,-6.7901,-6.7853,-6.7902,-6.7984,-7.112,-7.1489,0.0,0.0,0.0,0.0,0.0,0.0,0.0,0.0,0.0,0.0,0.0,0.0,0.0,0.0,0.0,0.0,0.0,0.0,0.0,0.0,0.0,0.0,0.0,0.0,0.0,0.0,0.0,0.0,0.0,0.0,0.0,0.0,0.0,0.0,0.0,0.0,0.0,0.0,0.0,0.0,0.0,-6.3043,-6.4708,-6.534,0.0,0.0,0.0,0.0,-6.8774,-6.77,0.0,0.0,0.0,0.0,0.0,0.0,0.0,0.0,0.0,0.0,0.0,0.0,0.0,0.0,0.0,0.0,0.0,0.0,0.0,0.0,0.0,0.0,0.0,0.0,0.0,0.0,0.0,0.0,0.0,0.0,0.0,0.0,0.0,0.0,0.0,0.0,0.0,0.0,0.0,0.0,0.0,0.0,0.0,0.0,0.0,0.0,0.0,0.0,0.0,0.0,0.0,0.0,0.0,0.0,0.0,0.0,-6.7394,-6.9688,-6.9933,-6.7836,-6.8629,-6.9271,-6.9609,-7.2715,-7.3019,0.0,0.0,0.0,0.0,0.0,0.0,0.0,0.0,0.0,0.0,0.0,0.0,0.0,0.0,0.0,0.0,0.0,0.0,0.0,0.0,0.0,0.0,0.0,0.0,0.0,0.0,0.0,0.0,0.0,0.0,0.0,0.0,0.0,0.0,0.0,0.0,0.0,0.0,0.0,0.0,-6.3391,-6.37,-6.4762,0.0,0.0,0.0,0.0,0.0,0.0,-6.7188,-6.6056,0.0,0.0,0.0,0.0,0.0,0.0,0.0,0.0,0.0,0.0,0.0,0.0,0.0,0.0,0.0,0.0,0.0,0.0,0.0,0.0,0.0,0.0,0.0,0.0,0.0,0.0,0.0,0.0,0.0,0.0,0.0,0.0,0.0,0.0,0.0,0.0,0.0,0.0,0.0,0.0,0.0,0.0,0.0,0.0,0.0,0.0,0.0,0.0,0.0,0.0,0.0,0.0,0.0,0.0,0.0,-6.7885,-7.0973,-7.143,-6.9085,-7.0546,-7.1436,-7.1611,-7.4561,-7.4757,-7.1876,0.0,0.0,0.0,0.0,0.0,0.0,0.0,0.0,0.0,0.0,0.0,0.0,0.0,0.0,0.0,0.0,0.0,0.0,0.0,0.0,0.0,0.0,0.0,0.0,0.0,0.0,0.0,0.0,0.0,0.0,0.0,0.0,0.0,0.0,0.0,0.0,0.0,0.0,0.0,-6.3672,-6.4663,0.0,0.0,0.0,0.0,0.0,0.0,0.0,0.0,-6.4304,0.0,0.0,0.0,0.0,0.0,0.0,0.0,0.0,0.0,0.0,0.0,0.0,0.0,0.0,0.0,0.0,0.0,0.0,0.0,0.0,0.0,0.0,0.0,0.0,0.0,0.0,0.0,0.0,0.0,0.0,0.0,0.0,0.0,0.0,0.0,0.0,0.0,0.0,0.0,0.0,0.0,0.0,0.0,0.0,0.0,0.0,0.0,0.0,0.0,0.0,0.0,0.0,0.0,0.0,0.0,0.0,-7.1969,-7.2906,-7.2818,-7.3089,-7.3269,-7.3344,-7.5189,-7.534,-7.3501,0.0,0.0,0.0,0.0,0.0,0.0,0.0,0.0,0.0,0.0,0.0,0.0,0.0,0.0,0.0,0.0,0.0,0.0,0.0,0.0,0.0,0.0,0.0,0.0,0.0,0.0,0.0,0.0,0.0,0.0,0.0,0.0,0.0,0.0,0.0,0.0,0.0,0.0,-6.2244,-6.3093,0.0,0.0,0.0,0.0,0.0,0.0,0.0,0.0,-6.3551,0.0,0.0,0.0,0.0,0.0,0.0,0.0,0.0,0.0,0.0,0.0,0.0,0.0,0.0,0.0,0.0,0.0,0.0,0.0,0.0,0.0,0.0,0.0,0.0,0.0,0.0,0.0,0.0,0.0,0.0,0.0,0.0,0.0,0.0,0.0,0.0,0.0,0.0,0.0,0.0,0.0,0.0,0.0,0.0,0.0,0.0,0.0,0.0,0.0,0.0,0.0,0.0,0.0,0.0,0.0,0.0,0.0,0.0,-7.3357,-7.3657,-7.4524,-7.5003,-7.504,-7.5847,-7.5122,0.0,0.0,0.0,0.0,0.0,0.0,0.0,0.0,0.0,0.0,0.0,0.0,0.0,0.0,0.0,0.0,0.0,0.0,0.0,0.0,0.0,0.0,0.0,0.0,0.0,0.0,0.0,0.0,0.0,0.0,0.0,0.0,0.0,0.0,0.0,0.0,0.0,0.0,0.0,0.0,0.0,0.0,0.0,0.0,0.0,0.0,0.0,0.0,0.0,0.0,0.0,0.0,0.0,0.0,0.0,0.0,0.0,0.0,0.0,0.0,0.0,0.0,0.0,0.0,0.0,0.0,0.0,0.0,0.0,0.0,0.0,0.0,0.0,0.0,0.0,0.0,0.0,0.0,0.0,0.0,0.0,0.0,0.0,0.0,0.0,0.0,0.0,0.0,0.0,0.0,0.0,0.0,0.0,0.0,0.0,0.0,0.0,0.0,0.0,0.0,0.0,0.0,0.0,0.0,0.0,0.0,0.0,0.0,-7.3791,-7.4763,-7.6019,-7.6572,-7.6236,-7.5623,-7.4067,0.0,0.0,0.0,0.0,0.0,0.0,0.0,0.0,0.0,0.0,0.0,0.0,0.0,0.0,0.0,0.0,0.0,0.0,0.0,0.0,0.0,0.0,0.0,0.0,0.0,0.0,0.0,0.0,0.0,0.0,0.0,0.0,0.0,0.0,0.0,0.0,0.0,0.0,0.0,0.0,0.0,0.0,0.0,0.0,0.0,0.0,0.0,0.0,-6.047,0.0,0.0,0.0,0.0,0.0,0.0,0.0,0.0,0.0,0.0,0.0,0.0,0.0,0.0,0.0,0.0,0.0,0.0,0.0,0.0,0.0,0.0,0.0,0.0,0.0,0.0,0.0,0.0,0.0,0.0,0.0,0.0,0.0,0.0,0.0,0.0,0.0,0.0,0.0,0.0,0.0,0.0,0.0,0.0,0.0,0.0,0.0,0.0,0.0,0.0,0.0,0.0,0.0,0.0,0.0,0.0,0.0,0.0,0.0,-7.5099,-7.8128,-7.8404,-7.7769,-7.6348,-7.3455,-7.1661,0.0,0.0,0.0,0.0,0.0,0.0,0.0,0.0,0.0,0.0,0.0,0.0,0.0,0.0,0.0,0.0,0.0,0.0,0.0,0.0,0.0,0.0,0.0,0.0,0.0,0.0,0.0,0.0,0.0,0.0,0.0,0.0,0.0,0.0,0.0,0.0,0.0,0.0,0.0,0.0,0.0,0.0,0.0,0.0,0.0,0.0,0.0,0.0,0.0,0.0,0.0,0.0,0.0,0.0,0.0,0.0,0.0,0.0,0.0,0.0,0.0,0.0,0.0,0.0,0.0,0.0,0.0,0.0,0.0,0.0,0.0,0.0,0.0,0.0,0.0,0.0,0.0,0.0,0.0,0.0,0.0,0.0,0.0,0.0,0.0,0.0,0.0,0.0,0.0,0.0,0.0,0.0,0.0,0.0,0.0,0.0,0.0,0.0,0.0,0.0,0.0,0.0,0.0,0.0,0.0,0.0,0.0,0.0,-7.4906,-7.732,-7.7372,-7.6138,-7.3506,-7.2086,-7.0464,0.0,0.0,0.0,0.0,0.0,0.0,0.0,0.0,0.0,0.0,0.0,0.0,0.0,0.0,0.0,0.0,0.0,0.0,0.0,0.0,0.0,0.0,0.0,0.0,0.0,0.0,0.0,0.0,0.0,0.0,0.0,0.0,0.0,0.0,0.0,0.0,0.0,0.0,0.0,0.0,0.0,0.0,0.0,0.0,0.0,0.0,0.0,0.0,0.0,0.0,0.0,0.0,0.0,0.0,0.0,0.0,0.0,0.0,0.0,0.0,0.0,0.0,0.0,0.0,0.0,0.0,0.0,0.0,0.0,0.0,0.0,0.0,0.0,0.0,0.0,0.0,0.0,0.0,0.0,0.0,0.0,0.0,0.0,0.0,0.0,0.0,0.0,0.0,0.0,0.0,0.0,0.0,0.0,0.0,0.0,0.0,0.0,0.0,0.0,0.0,0.0,0.0,0.0,0.0,0.0,0.0,0.0,0.0,0.0,-7.5638,-7.5264,-7.388,-7.1436,-7.0515,-6.8945,0.0,0.0,0.0,0.0,0.0,0.0,0.0,0.0,0.0,0.0,0.0,0.0,0.0,0.0,0.0,0.0,0.0,0.0,0.0,0.0,0.0,0.0,0.0,0.0,0.0,0.0,0.0,0.0,0.0,0.0,0.0,0.0,0.0,0.0,0.0,0.0,0.0,0.0,0.0,0.0,0.0,0.0,0.0,0.0,0.0,0.0,0.0,0.0,0.0,0.0,0.0,0.0,0.0,0.0,0.0,0.0,0.0,0.0,0.0,0.0,0.0,0.0,0.0,0.0,0.0,0.0,0.0,0.0,0.0,0.0,0.0,0.0,0.0,0.0,0.0,0.0,0.0,0.0,0.0,0.0,0.0,0.0,0.0,0.0,0.0,0.0,0.0,0.0,0.0,0.0,0.0,0.0,0.0,0.0,0.0,0.0,0.0,0.0,0.0,0.0,0.0,0.0,0.0,0.0,0.0,0.0,0.0,0.0,0.0,-7.3993,-7.246,-7.1511,-7.1249,-6.8384,-6.664,0.0,0.0,0.0,0.0,0.0,0.0,0.0,0.0,0.0,0.0,0.0,0.0,0.0,0.0,0.0,0.0,0.0,0.0,0.0,0.0,0.0,0.0,0.0,0.0,0.0,0.0,0.0,0.0,0.0,0.0,0.0,0.0,0.0,0.0,0.0,0.0,0.0,0.0,0.0,0.0,0.0,0.0,0.0,0.0,0.0,0.0,0.0,0.0,0.0,0.0,0.0,0.0,0.0,0.0,0.0,0.0,0.0,0.0,0.0,0.0,0.0,0.0,0.0,0.0,0.0,0.0,0.0,0.0,0.0,0.0,0.0,0.0,0.0,0.0,0.0,0.0,0.0,0.0,0.0,0.0,0.0,0.0,0.0,0.0,0.0,0.0,0.0,0.0,0.0,0.0,0.0,0.0,0.0,0.0,0.0,0.0,0.0,0.0,0.0,0.0,0.0,0.0,0.0,0.0,0.0,0.0,0.0,0.0,0.0,-7.0801,-7.0165,-6.9343,-6.8309,-6.7126,-6.5518,-6.3524,0.0,0.0,0.0,0.0,0.0,0.0,0.0,0.0,0.0,0.0,0.0,0.0,0.0,0.0,0.0,0.0,0.0,0.0,0.0,0.0,0.0,0.0,0.0,0.0,0.0,0.0,0.0,0.0,0.0,0.0,0.0,0.0,0.0,0.0,0.0,0.0,0.0,0.0,0.0,0.0,0.0,0.0,0.0,0.0,0.0,0.0,0.0,0.0,0.0,0.0,0.0,0.0,0.0,0.0,0.0,0.0,0.0,0.0,0.0,0.0,0.0,0.0,0.0,0.0,0.0,0.0,0.0,0.0,0.0,0.0,0.0,0.0,0.0,0.0,0.0,0.0,0.0,0.0,0.0,0.0,0.0,0.0,0.0,0.0,0.0,0.0,0.0,0.0,0.0,0.0,0.0,0.0,0.0,0.0,0.0,0.0,0.0,0.0,0.0,0.0,0.0,0.0,0.0,0.0,0.0,0.0,0.0,0.0,-6.9044,-6.9006,-6.8184,-6.6552,-6.5967,-6.4384,0.0,0.0,0.0,0.0,0.0,0.0,0.0,0.0,0.0,0.0,0.0,0.0,0.0,0.0,0.0,0.0,0.0,0.0,0.0,0.0,0.0,0.0,0.0,0.0,0.0,0.0,0.0,0.0,0.0,0.0,0.0,0.0,0.0,0.0,0.0,0.0,0.0,0.0,0.0,0.0,0.0,0.0,0.0,0.0,0.0,0.0,0.0,0.0,0.0,0.0,0.0,0.0,0.0,0.0,0.0,0.0,0.0,0.0,0.0,0.0,0.0,0.0,0.0,0.0,0.0,0.0,0.0,0.0,0.0,0.0,0.0,0.0,0.0,0.0,0.0,0.0,0.0,0.0,0.0,0.0,0.0,0.0,0.0,0.0,0.0,0.0,0.0,0.0,0.0,0.0,0.0,0.0,0.0,0.0,0.0,0.0,0.0,0.0,0.0,0.0,0.0,0.0,0.0,0.0,0.0,0.0,0.0,0.0,-6.878,-6.9006,-6.8969,-6.8085,-6.649,-6.4845,-6.3225,0.0,0.0,0.0,0.0,0.0,0.0,0.0,0.0,0.0,0.0,0.0,0.0,0.0,0.0,0.0,0.0,0.0,0.0,0.0,0.0,0.0,0.0,0.0,0.0,0.0,0.0,0.0,0.0,0.0,0.0,0.0,0.0,0.0,0.0,0.0,0.0,0.0,0.0,0.0,0.0,0.0,0.0,0.0,0.0,0.0,0.0,0.0,0.0,0.0,0.0,0.0,0.0,0.0,0.0,0.0,0.0,0.0,0.0,0.0,0.0,0.0,0.0,0.0,0.0,0.0,0.0,0.0,0.0,0.0,0.0,0.0,0.0,0.0,0.0,0.0,0.0,0.0,0.0,0.0,0.0,0.0,0.0,0.0,0.0,0.0,0.0,0.0,0.0,0.0,0.0,0.0,0.0,0.0,0.0,0.0,0.0,0.0,0.0,0.0,0.0,0.0,0.0,0.0,0.0,0.0,0.0,0.0,0.0,0.0,-6.8743,0.0,-6.6477,0.0,-6.3225,-6.1568,0.0,0.0,0.0,0.0,0.0,0.0,0.0,0.0,0.0,0.0,0.0,0.0,0.0,0.0,0.0,0.0,0.0,0.0,0.0,0.0,0.0,0.0,0.0,0.0,0.0,0.0,0.0,0.0,0.0,0.0,0.0,0.0,0.0,0.0,0.0,0.0,0.0,0.0,0.0,0.0,0.0,0.0,0.0,0.0,0.0,0.0,0.0,0.0,0.0,0.0,0.0,0.0,0.0,0.0,0.0,0.0,0.0,0.0,0.0,0.0,0.0,0.0,0.0,0.0,0.0,0.0,0.0,0.0,0.0,0.0,0.0,0.0,0.0,0.0,0.0,0.0,0.0,0.0,0.0,0.0,0.0,0.0,0.0,0.0,0.0,0.0,0.0,0.0,0.0,0.0,0.0,0.0,0.0,0.0,0.0,0.0,0.0,0.0,0.0,0.0,0.0,0.0,0.0,0.0,0.0,0.0,0.0,0.0,0.0,-6.8611,-6.7818,-6.6253,-6.401,-6.2402,-6.082,0.0,0.0,0.0,0.0,0.0,0.0,0.0,0.0,0.0,0.0,0.0,0.0,0.0,0.0,0.0,0.0,0.0,0.0,0.0,0.0,0.0,0.0,0.0,0.0,0.0,0.0,0.0,0.0,0.0,0.0,0.0,0.0,0.0,0.0,0.0,0.0,0.0,0.0,0.0,0.0,0.0,0.0,0.0,0.0,0.0,0.0,0.0,0.0,0.0,0.0,0.0,0.0,0.0,0.0,0.0,0.0,0.0,0.0,0.0,0.0,0.0,0.0,0.0,0.0,0.0,0.0,0.0,0.0,0.0,0.0,0.0,0.0,0.0,0.0,0.0,0.0,0.0,0.0,0.0,0.0,0.0,0.0,0.0,0.0,0.0,0.0,0.0,0.0,0.0,0.0,0.0,0.0,0.0,0.0,0.0,0.0,0.0,0.0,0.0,0.0,0.0,0.0,0.0,0.0,0.0,0.0,0.0,0.0,0.0,-6.8648,-6.885,-6.7399,-6.4047,-6.239,-6.0745,0.0,0.0,0.0,0.0,0.0,0.0,0.0,0.0,0.0,0.0,0.0,0.0,0.0,0.0,0.0,0.0,0.0,0.0,0.0,0.0,0.0,0.0,0.0,0.0,0.0,0.0,0.0,0.0,0.0,0.0,0.0,0.0,0.0,0.0,0.0,0.0,0.0,0.0,0.0,0.0,0.0,0.0,0.0,0.0,0.0,0.0,0.0,0.0,0.0,0.0,0.0,0.0,0.0,0.0,0.0,0.0,0.0,0.0,0.0,0.0,0.0,0.0,0.0,0.0,0.0,0.0,0.0,0.0,0.0,0.0,0.0,0.0,0.0,0.0,0.0,0.0,0.0,0.0,0.0,0.0,0.0,0.0,0.0,0.0,0.0,0.0,0.0,0.0,0.0,0.0,0.0,0.0,0.0,0.0,0.0,0.0,0.0,0.0,0.0,0.0,0.0,0.0,0.0,0.0,0.0,0.0,0.0,0.0,0.0,0.0,-6.885,-6.7362,-6.4084,-6.1243,-5.9549,-5.91,0.0,0.0,0.0,0.0,0.0,0.0,0.0,0.0,0.0,0.0,0.0,0.0,0.0,0.0,0.0,0.0,0.0,0.0,0.0,0.0,0.0,0.0,0.0,0.0,0.0,0.0,0.0,0.0,0.0,0.0,0.0,0.0,0.0,0.0,0.0,0.0,0.0,0.0,0.0,0.0,0.0,0.0,0.0,0.0,0.0,0.0,0.0,0.0,0.0,0.0,0.0,0.0,0.0,0.0,0.0,0.0,0.0,0.0,0.0,0.0,0.0,0.0,0.0,0.0,0.0,0.0,0.0,0.0,0.0,0.0,0.0,0.0,0.0,0.0,0.0,0.0,0.0,0.0,0.0,0.0,0.0,0.0,0.0,0.0,0.0,0.0,0.0,0.0,0.0,0.0,0.0,0.0,0.0,0.0,0.0,0.0,0.0,0.0,0.0,0.0,0.0,0.0,0.0,0.0,0.0,0.0,0.0,0.0,0.0,0.0,-6.6702,-6.401,-6.1455,-5.9773,0.0,0.0,0.0,0.0,0.0,0.0,0.0,0.0,0.0,0.0,0.0,0.0,0.0,0.0,0.0,0.0,0.0,0.0,0.0,0.0,0.0,0.0,0.0,0.0,0.0,0.0,0.0,0.0,0.0,0.0,0.0,0.0,0.0,0.0,0.0,0.0,0.0,0.0,0.0,0.0,0.0,0.0,0.0,0.0,0.0,0.0,0.0,0.0,0.0,0.0,0.0,0.0,0.0,0.0,0.0,0.0,0.0,0.0,0.0,0.0,0.0,0.0,0.0,0.0,0.0,0.0,0.0,0.0,0.0,0.0,0.0,0.0,0.0,0.0,0.0,0.0,0.0,0.0,0.0,0.0,0.0,0.0,0.0,0.0,0.0,0.0,0.0,0.0,0.0,0.0,0.0,0.0,0.0,0.0,0.0,0.0,0.0,0.0,0.0,0.0,0.0,0.0,0.0,0.0,0.0,0.0,0.0,0.0,0.0,0.0,0.0,-6.558,-6.3785,-6.2365,0.0,-5.9138,0.0,0.0,0.0,0.0,0.0,0.0,0.0,0.0,0.0,0.0,0.0,0.0,0.0,0.0,0.0,0.0,0.0,0.0,0.0,0.0,0.0,0.0,0.0,0.0,0.0,0.0,0.0,0.0,0.0,0.0,0.0,0.0,0.0,0.0,0.0,0.0,0.0,0.0,0.0,0.0,0.0,0.0,0.0,0.0,0.0,0.0,0.0,0.0,0.0,0.0,0.0,0.0,0.0,0.0,0.0,0.0,0.0,0.0,0.0,0.0,0.0,0.0,0.0,0.0,0.0,0.0,0.0,0.0,0.0,0.0,0.0,0.0,0.0,0.0,0.0,0.0,0.0,0.0,0.0,0.0,0.0,0.0,0.0,0.0,0.0,0.0,0.0,0.0,0.0,0.0,0.0,0.0,0.0,0.0,0.0,0.0,0.0,0.0,0.0,0.0,0.0,0.0,0.0,0.0,0.0,0.0,0.0,0.0,0.0,0.0,0.0,0.0,-6.1804,-6.082,-5.91,0.0,0.0,0.0,0.0,0.0,0.0,0.0,0.0,0.0,0.0,0.0,0.0,0.0,0.0,0.0,0.0,0.0,0.0,0.0,0.0,0.0,0.0,0.0,0.0,0.0,0.0,0.0,0.0,0.0,0.0,0.0,0.0,0.0,0.0,0.0,0.0,0.0,0.0,0.0,0.0,0.0,0.0,0.0,0.0,0.0,0.0,0.0,0.0,0.0,0.0,0.0,0.0,0.0,0.0,0.0,0.0,0.0,0.0,0.0,0.0,0.0,0.0,0.0,0.0,0.0,0.0,0.0,0.0,0.0,0.0,0.0,0.0,0.0,0.0,0.0,0.0,0.0,0.0,0.0,0.0,0.0,0.0,0.0,0.0,0.0,0.0,0.0,0.0,0.0,0.0,0.0,0.0,0.0,0.0,0.0,0.0,0.0,0.0,0.0,0.0,0.0,0.0,0.0,0.0,0.0,0.0,0.0,0.0,0.0,0.0,-6.4122,-6.1692,-6.0869,-6.0035,-5.91,0.0,0.0,0.0,0.0,0.0,0.0,0.0,0.0,0.0,0.0,0.0,0.0,0.0,0.0,0.0,0.0,0.0,0.0,0.0,0.0,0.0,0.0,0.0,0.0,0.0,0.0,0.0,0.0,0.0,0.0,0.0,0.0,0.0,0.0,0.0,0.0,0.0,0.0,0.0,0.0,0.0,0.0,0.0,0.0,0.0,0.0,0.0,0.0,0.0,0.0,0.0,0.0,0.0,0.0,0.0,0.0,0.0,0.0,0.0,0.0,0.0,0.0,0.0,0.0,0.0,0.0,0.0,0.0,0.0,0.0,0.0,0.0,0.0,0.0,0.0,0.0,0.0,0.0,0.0,0.0,0.0,0.0,0.0,0.0,0.0,0.0,0.0,0.0,0.0,0.0,0.0,0.0,0.0,0.0,0.0,0.0,0.0,0.0,0.0,0.0,0.0,0.0,0.0,0.0,0.0,0.0,0.0,0.0,0.0,0.0,0.0,0.0,0.0,0.0,-5.8753,0.0,0.0,0.0,0.0,0.0,0.0,0.0,0.0,0.0,0.0,0.0,0.0,0.0,0.0,0.0,0.0,0.0,0.0,0.0,0.0,0.0,0.0,0.0,0.0,0.0,0.0,0.0,0.0,0.0,0.0,0.0,0.0,0.0,0.0,0.0,0.0,0.0,0.0,0.0,0.0,0.0,0.0,0.0,0.0,0.0,0.0,0.0,0.0,0.0,0.0,0.0,0.0,0.0,0.0,0.0,0.0,0.0,0.0,0.0,0.0,0.0,0.0,0.0,0.0,0.0,0.0,0.0,0.0,0.0,0.0,0.0,0.0,0.0,0.0,0.0,0.0,0.0,0.0,0.0,0.0,0.0,0.0,0.0,0.0,0.0,0.0,0.0,0.0,0.0,0.0,0.0,0.0,0.0,0.0,0.0,0.0,0.0,0.0,0.0,0.0,0.0,0.0,0.0,0.0,0.0,0.0,0.0,0.0,0.0,0.0,0.0,0.0,0.0,0.0,0.0,0.0,0.0,0.0,0.0,0.0,0.0,0.0,0.0,0.0,0.0,0.0,0.0,0.0,0.0,0.0,0.0,0.0,0.0,0.0,0.0,0.0,0.0,0.0,0.0,0.0,0.0,0.0,0.0,0.0,0.0,0.0,0.0,0.0,0.0,0.0,0.0,0.0,0.0,0.0,0.0,0.0,0.0,0.0,0.0,0.0,0.0,0.0,0.0,0.0,0.0,0.0,0.0,0.0,0.0,0.0,0.0,0.0,0.0,0.0,0.0,0.0,0.0,0.0,0.0,0.0,0.0,0.0,0.0,0.0,0.0,0.0,0.0,0.0,0.0,0.0,0.0,0.0,0.0,0.0,0.0,0.0,0.0,0.0,0.0,0.0,0.0,0.0,0.0,0.0,0.0,0.0,0.0,0.0,0.0,0.0,0.0,0.0,0.0,0.0,0.0,0.0,0.0,0.0,0.0,0.0,0.0,0.0,0.0,0.0,0.0,0.0,0.0,0.0,0.0,0.0,0.0,0.0,0.0,0.0,0.0,0.0,0.0,0.0,0.0,0.0,0.0,0.0,0.0,0.0,0.0,0.0,0.0,0.0,0.0,0.0,0.0,0.0,0.0,0.0,0.0,0.0,0.0,0.0,0.0,0.0,0.0,0.0,0.0,0.0,0.0,0.0,0.0,0.0,0.0,0.0,0.0,0.0,0.0,0.0,0.0,0.0,0.0,0.0,0.0,0.0,0.0,0.0,0.0,0.0,0.0,0.0,0.0,0.0,0.0,0.0,0.0,0.0,0.0,0.0,0.0,0.0,0.0,0.0,0.0,0.0,0.0,0.0,0.0,0.0,0.0,0.0,0.0,0.0,0.0,0.0,0.0,0.0,0.0,0.0,0.0,0.0,0.0,0.0,0.0,0.0,0.0,0.0,0.0,0.0,0.0,0.0,0.0,0.0,0.0,0.0,0.0,0.0,0.0,0.0,0.0,0.0,0.0,0.0,0.0,0.0,0.0,0.0,0.0,0.0,0.0,0.0,0.0,0.0,0.0,0.0,0.0,0.0,0.0,0.0,0.0,0.0,0.0,0.0,0.0,0.0,0.0,0.0,0.0,0.0,0.0,0.0,0.0,0.0,0.0,0.0,0.0,0.0,0.0,0.0,0.0,0.0,0.0,0.0,0.0,0.0,0.0,0.0,0.0,0.0,0.0,0.0,0.0,0.0,0.0,0.0,0.0,0.0,0.0,0.0,0.0,0.0,0.0,0.0,0.0,0.0,0.0,0.0,0.0,0.0,0.0,0.0,0.0,0.0,0.0,0.0,0.0,0.0,0.0,0.0,0.0,0.0,0.0,0.0,0.0,0.0,0.0,0.0,0.0,0.0,0.0,0.0,0.0,0.0,0.0,0.0,0.0,0.0,0.0,0.0,0.0,0.0,0.0,0.0,0.0,0.0,0.0,0.0,0.0,0.0,0.0,0.0,0.0,0.0,0.0,0.0,0.0,0.0,0.0,0.0,0.0,0.0,0.0,0.0,0.0,0.0,0.0,0.0,0.0,0.0,0.0,0.0,0.0,0.0,0.0,0.0,0.0,0.0,0.0,0.0,0.0,0.0,0.0,0.0,0.0,0.0,0.0,0.0,0.0,0.0,0.0,0.0,0.0,0.0,0.0,0.0,0.0,0.0,0.0,0.0,0.0,0.0,0.0,0.0,0.0,0.0,0.0,0.0,0.0,0.0,0.0,0.0,0.0,0.0,0.0,0.0,0.0,0.0,0.0,0.0,0.0,0.0,0.0,0.0,0.0,0.0,0.0,0.0,0.0,0.0,0.0,0.0,0.0,0.0,0.0,0.0,0.0,0.0,0.0,0.0,0.0,0.0,0.0,0.0,0.0,0.0,0.0,0.0,0.0,0.0,0.0,0.0,0.0,0.0,0.0,0.0,0.0,0.0,0.0,0.0,0.0,0.0,0.0,0.0,0.0,0.0,0.0,0.0,0.0,0.0,0.0,0.0,0.0,0.0,0.0,0.0,0.0,0.0,0.0,0.0,0.0,0.0,0.0,0.0,0.0,0.0,0.0,0.0,0.0,0.0,0.0,0.0,0.0,0.0,0.0,0.0,0.0,0.0,0.0,0.0,0.0,0.0,0.0,0.0,0.0,0.0,0.0,0.0,0.0,0.0,0.0,0.0,0.0,0.0,0.0,0.0,0.0,0.0,0.0,0.0,0.0,0.0,0.0,0.0,0.0,0.0,0.0,0.0,0.0,0.0,0.0,0.0,0.0,0.0,0.0,0.0,0.0,0.0,0.0,0.0,0.0,0.0,0.0,0.0,0.0,0.0,0.0,0.0,0.0,0.0,0.0,0.0,0.0,0.0,0.0,0.0,0.0,0.0,0.0,0.0,0.0,0.0,0.0,0.0,0.0,0.0,0.0,0.0,0.0,0.0,0.0,0.0,0.0,0.0,0.0,0.0,0.0,0.0,0.0,0.0,0.0,0.0,0.0,0.0,0.0,0.0,0.0,0.0,0.0,0.0,0.0,0.0,0.0,0.0,0.0,0.0,0.0,0.0,0.0,0.0,0.0,0.0,0.0,0.0,0.0,0.0,0.0,0.0,0.0,0.0,0.0,0.0,0.0,0.0,0.0,0.0,0.0,0.0,0.0,0.0,0.0,0.0,0.0,0.0,0.0,0.0,0.0,0.0,0.0,0.0,0.0,0.0,0.0,0.0,0.0,0.0,0.0,0.0,0.0,0.0,0.0,0.0,0.0,0.0,0.0,0.0,0.0,0.0,0.0,0.0,0.0,0.0,0.0,0.0,0.0,0.0,0.0,0.0,0.0,0.0,0.0,0.0,0.0,0.0,0.0,0.0,0.0,0.0,0.0,0.0,0.0,0.0,0.0,0.0,0.0,0.0,0.0,0.0,0.0,0.0,0.0,0.0,0.0,0.0,0.0,0.0,0.0,0.0,0.0,0.0,0.0,0.0,0.0,0.0,0.0,0.0,0.0,0.0,0.0,0.0,0.0,0.0,0.0,0.0,0.0,0.0,0.0,0.0,0.0,0.0,0.0,0.0,0.0,0.0,0.0,0.0,0.0,0.0,0.0,0.0,0.0,0.0,0.0,0.0,0.0,0.0,0.0,0.0,0.0,0.0,0.0,0.0,0.0,0.0,0.0,0.0,0.0,0.0,0.0,0.0,0.0,0.0,0.0,0.0,0.0,0.0,0.0,0.0,0.0,0.0,0.0,0.0,0.0,0.0,0.0,0.0,0.0,0.0,0.0,0.0,0.0,0.0,0.0,0.0,0.0,0.0,0.0,0.0,0.0,0.0,0.0,0.0,0.0,0.0,0.0,0.0,0.0,0.0,0.0,0.0,0.0,0.0,0.0,0.0,0.0,0.0,0.0,0.0,0.0,0.0,0.0,0.0,0.0,0.0,0.0,0.0,0.0,0.0,0.0,0.0,0.0,0.0,0.0,0.0,0.0,0.0,0.0,0.0,0.0,0.0,0.0,0.0,0.0,0.0,0.0,0.0,0.0,0.0,0.0,0.0,0.0,0.0,0.0,0.0,0.0,0.0,0.0,0.0,0.0,0.0,0.0,0.0,0.0,0.0,0.0,0.0,0.0,0.0,0.0,0.0,0.0,0.0,0.0,0.0,0.0,0.0,0.0,0.0,0.0,0.0,0.0,0.0,0.0,0.0,0.0,0.0,0.0,0.0,0.0,0.0,0.0,0.0,0.0,0.0,0.0,0.0,0.0,0.0,0.0,0.0,0.0,0.0,0.0,0.0,0.0,0.0,0.0,0.0,0.0,0.0,0.0,0.0,0.0,0.0,0.0,0.0,0.0,0.0,0.0,0.0,0.0,0.0,0.0,0.0]}],[{"header":{"parameterUnit":"kt","parameterCategory":2,"dx":1,"dy":1,"la1":29.587661999999998,"la2":31.0,"lo1":-88.76705300000003,"lo2":-86.6583820000003,"nx":115,"ny":88,"refTime":"2022-10-17T18:00:00:Z","depth":0,"parameterNumber":2,"parameterNumberName":"V-component_of_WINDS"},"data":[8.7144,8.743,8.7693,8.8144,8.8802,8.9148,8.96,9.0285,9.1039,9.1559,9.1854,9.2354,9.2673,9.2673,9.2755,9.2923,9.3012,9.3398,9.3515,9.3595,9.3747,9.3823,9.3898,9.3935,9.4045,9.4156,9.4266,9.4338,9.4552,9.4763,9.4967,9.5326,9.5591,9.5836,9.6239,9.6559,9.6904,9.719,9.7425,9.7779,9.7802,9.7438,9.7541,9.7761,9.7999,9.8246,9.8364,9.8443,9.8481,9.8501,9.8557,9.852,9.852,9.8538,9.8538,9.852,9.852,9.8574,9.8141,9.7116,9.6559,9.6133,9.3934,9.2159,9.173,9.1019,9.0489,9.042,9.0548,9.0978,9.1225,9.1844,9.2718,9.44,9.5434,9.6124,9.6925,9.6926,9.6736,9.6091,9.5142,9.461,9.4383,9.3357,9.2219,9.1801,9.1042,9.0928,9.0472,9.0282,9.013,9.0015,9.0011,8.9921,8.9869,8.9896,8.9905,8.9758,8.9655,8.9543,8.9389,8.9209,8.913,8.9092,8.9024,8.8923,8.8849,8.8833,8.8802,8.8808,8.883,8.8798,8.8728,8.8658,8.8691,8.6941,8.7144,8.7463,8.7745,8.8075,8.8501,8.8836,8.9133,9.0425,9.1019,9.1063,9.0974,9.1063,9.1287,9.1559,9.2024,9.2374,9.253,9.3029,9.3186,9.3346,9.3138,9.3249,9.368,9.3864,9.3938,9.4156,9.4229,9.4266,9.4482,9.4658,9.4903,9.5071,9.5268,9.5717,9.5982,9.5787,9.5962,9.6273,9.6921,9.6637,9.6033,9.5475,9.5949,9.6873,9.7947,9.8148,9.825,9.8327,9.8292,9.822,9.8314,9.8407,9.852,9.852,9.8538,9.852,9.852,9.8238,9.7167,9.6545,9.5545,9.3052,9.1749,9.1506,9.0837,8.9977,8.974,8.975,8.9942,9.0011,9.0451,9.1423,9.2555,9.3138,9.3719,9.464,9.537,9.5256,9.5104,9.4079,9.294,9.2256,9.1307,9.0662,9.0396,9.0092,9.0016,8.9979,8.9979,8.9979,8.9979,8.9979,9.0013,8.9971,8.9961,8.9945,8.9859,8.9812,8.9721,8.9598,8.9438,8.9355,8.932,8.9234,8.9092,8.901,8.8996,8.8894,8.8833,8.8871,8.8855,8.8771,8.8739,8.8734,8.6746,8.6941,8.7144,8.7357,8.7483,8.8005,8.8229,8.8466,8.9538,9.0016,8.9921,9.0204,9.0517,9.0792,9.0894,9.134,9.1765,9.1436,9.1452,9.1426,9.1306,9.1742,9.2104,9.2358,9.2932,9.3792,9.4009,9.4119,9.4083,9.4266,9.4374,9.4518,9.4551,9.4432,9.39,9.4138,9.3978,9.3551,9.3769,9.3812,9.3404,9.344,9.3213,9.3459,9.4309,9.4756,9.5262,9.5464,9.6066,9.6779,9.6985,9.7266,9.822,9.8482,9.852,9.852,9.8538,9.8557,9.8145,9.7321,9.6288,9.5741,9.3933,9.2474,9.2087,9.2501,9.1639,9.0376,9.0389,8.9755,8.9819,8.9724,9.0563,9.1235,9.1794,9.2283,9.3065,9.3535,9.3353,9.3128,9.237,9.1421,9.1155,9.0282,9.0206,8.9979,8.9979,8.9979,8.9979,8.9979,8.9979,8.9979,8.9979,8.9978,8.9977,9.0009,9.0001,8.9988,8.9965,8.9832,8.9716,8.9632,8.9545,8.9498,8.9438,8.9306,8.9271,8.9271,8.9158,8.9052,8.8996,8.899,8.8864,8.878,8.8254,8.6691,8.6691,8.6908,8.7037,8.7144,8.7536,8.7745,8.7816,8.8652,8.8852,8.8802,8.9261,8.9731,8.9784,8.9712,8.9852,9.0133,8.9521,8.9461,8.9332,8.9378,8.985,9.0426,9.1286,9.2109,9.3076,9.3719,9.3935,9.3972,9.4083,9.4192,9.4266,9.4374,9.4158,9.3606,9.3696,9.316,9.2255,9.1676,9.0765,9.0641,9.0802,9.1146,9.1515,9.2559,9.3049,9.3205,9.3343,9.4196,9.4852,9.5115,9.62,9.7828,9.8333,9.8482,9.852,9.8538,9.8538,9.8258,9.7696,9.7116,9.6403,9.5444,9.3992,9.3408,9.405,9.3724,9.2257,9.1171,9.0414,8.9928,8.9724,8.9796,9.0344,9.0866,9.1311,9.1779,9.1577,9.1292,9.0844,9.0318,9.013,9.0168,9.0016,8.9979,8.9979,8.9979,8.9979,8.9979,8.9979,8.9979,8.9979,8.9979,8.9979,8.9978,9.0012,9.0009,9.0001,8.9993,8.9934,8.9863,8.9801,8.9728,8.9693,8.9623,8.9517,8.9438,8.9465,8.9422,8.9294,8.9246,8.9244,8.9134,8.8381,8.7612,8.6691,8.6691,8.6746,8.6821,8.7037,8.7144,8.7271,8.7536,8.7641,8.7641,8.7712,8.7972,8.8298,8.8549,8.8059,8.8025,8.8101,8.7431,8.7098,8.7311,8.7359,8.7954,8.8883,9.0355,9.1001,9.1894,9.2754,9.3541,9.3792,9.3937,9.4083,9.4265,9.4266,9.3944,9.362,9.3685,9.3067,9.1828,9.0377,8.9135,8.8877,8.8638,8.8964,8.945,9.0652,9.2007,9.2246,9.2679,9.3236,9.3314,9.3635,9.4367,9.5994,9.7266,9.8183,9.8445,9.852,9.852,9.8389,9.8221,9.8071,9.7641,9.6984,9.5859,9.5015,9.5127,9.3551,9.2036,9.1386,9.0706,8.9773,8.943,8.9448,8.9828,9.0132,9.0389,9.0662,9.0605,9.0455,9.037,8.9963,9.0011,8.9975,8.9976,8.9976,8.9978,8.9979,8.9979,8.9979,8.9979,8.9979,8.9979,8.9979,8.9979,8.9979,8.9977,8.9976,8.9979,9.0006,8.9957,8.9945,8.993,8.9947,8.9855,8.9754,8.9678,8.9615,8.9628,8.9554,8.9478,8.9458,8.9517,8.8827,8.7835,8.6766,8.6691,8.6691,8.6691,8.6746,8.6854,8.7016,8.7037,8.7037,8.7198,8.7218,8.7251,8.7536,8.766,8.7668,8.6888,8.6555,8.6811,8.5565,8.4782,8.4912,8.4734,8.5612,8.6486,8.7639,8.9285,9.1037,9.2109,9.2932,9.3719,9.3899,9.3899,9.4046,9.4011,9.3585,9.3299,9.3192,9.2726,9.1936,9.1001,8.9922,8.9083,8.8436,8.8373,8.8415,8.8053,8.8673,8.8915,8.926,9.0211,9.1099,9.1537,9.2497,9.4236,9.5882,9.6986,9.8258,9.8333,9.837,9.837,9.8407,9.852,9.8352,9.7977,9.7005,9.6275,9.5152,9.3408,9.1923,9.141,9.0799,8.9883,8.9119,8.927,8.9406,8.9468,8.9536,8.9648,8.9748,8.9817,8.9909,8.994,8.9959,9.0006,9.0007,9.001,9.0013,8.9976,8.9977,8.9977,8.9977,8.9977,8.9978,8.9979,8.9979,8.9979,8.9978,8.9979,8.9979,8.9979,9.001,9.0009,8.9961,8.9948,8.992,8.9846,8.9769,8.9723,8.9735,8.9708,8.9653,8.9563,8.9111,8.8271,8.7355,8.5896,8.6691,8.6691,8.6691,8.6691,8.6691,8.6875,8.6887,8.6746,8.6854,8.7016,8.7016,8.7218,8.741,8.7244,8.6143,8.5749,8.4897,8.3863,8.3036,8.2678,8.276,8.3307,8.4297,8.5668,8.7429,8.925,9.093,9.2074,9.2932,9.3862,9.3899,9.3899,9.3899,9.3474,9.3011,9.2583,9.2654,9.2404,9.1975,9.1151,9.0321,8.9197,8.8373,8.8101,8.7695,8.7277,8.7307,8.7468,8.8134,8.9107,8.9498,9.0604,9.2308,9.3657,9.5115,9.678,9.7584,9.779,9.7865,9.822,9.852,9.8501,9.7267,9.6538,9.5528,9.4201,9.2984,9.1914,9.1216,9.0366,8.9426,8.9065,8.9065,8.9171,8.9234,8.9351,8.9507,8.9623,8.9663,8.9741,8.9851,8.9882,8.9993,8.9993,8.9907,8.9961,9.0006,9.0007,9.0009,9.001,9.0011,8.9976,8.9979,8.9979,8.9979,8.9979,8.9979,8.9979,8.9979,8.9977,8.9976,9.0012,9.0009,8.9961,8.9942,8.9882,8.9863,8.9859,8.9846,8.9779,8.9236,8.8495,8.7751,8.6976,8.5784,8.6691,8.6691,8.6691,8.6691,8.6691,8.6691,8.6691,8.6691,8.6691,8.6691,8.6746,8.6983,8.7091,8.6846,8.5865,8.4878,8.3827,8.2742,8.1841,8.12,8.1435,8.1871,8.2875,8.415,8.5668,8.7358,8.9003,9.0538,9.1501,9.2609,9.3432,9.3648,9.3719,9.3507,9.3293,9.3151,9.3258,9.3152,9.2761,9.2226,9.1689,9.0503,8.9415,8.8634,8.7931,8.7252,8.6847,8.668,8.7137,8.7453,8.7737,8.8951,8.9943,9.0682,9.1899,9.3414,9.5209,9.5676,9.6088,9.7248,9.7716,9.7248,9.5435,9.4202,9.3417,9.2986,9.1864,9.1077,9.055,8.9739,8.9189,8.9043,8.8894,8.8976,8.9047,8.9196,8.9366,8.9458,8.9525,8.9618,8.971,8.9812,8.9859,8.9875,8.9817,8.9882,8.994,8.9942,8.994,8.9948,9.0004,9.001,9.0012,8.9977,8.9978,8.9978,8.9979,8.9979,8.9979,8.9978,8.9978,8.9977,8.9976,9.0011,9.0007,8.9963,8.995,8.9948,8.9912,8.93,8.8741,8.8053,8.7675,8.6833,8.5841,8.6691,8.6691,8.6691,8.6691,8.6691,8.6691,8.6691,8.6691,8.6691,8.6691,8.6691,8.68,8.6854,8.6446,8.5583,8.4502,8.414,8.2542,8.1149,8.1054,8.1001,8.1103,8.1659,8.265,8.4041,8.5595,8.7283,8.8718,8.9681,9.1394,9.2109,9.2503,9.329,9.3006,9.2507,9.2507,9.2721,9.3293,9.3116,9.276,9.2582,9.1904,9.0827,9.0066,8.8897,8.7772,8.719,8.6706,8.6464,8.6659,8.7013,8.7661,8.8589,8.9514,9.0686,9.169,9.3058,9.3975,9.4144,9.5117,9.5023,9.5097,9.3157,9.198,9.1775,9.1119,9.0277,8.992,8.9506,8.9074,8.8829,8.891,8.8846,8.884,8.8916,8.899,8.9132,8.9244,8.9331,8.945,8.956,8.9625,8.9684,8.9704,8.9723,8.9769,8.9846,8.9842,8.9832,8.9924,8.9995,8.9997,9.0001,9.0007,9.0011,8.9976,8.9977,8.9977,8.9978,8.9978,8.9978,8.9979,8.9978,8.9978,8.9977,9.0013,9.0011,8.9932,8.9851,8.932,8.8638,8.8109,8.7542,8.6552,8.5366,8.6691,8.6691,8.6691,8.6691,8.6691,8.6691,8.6691,8.6691,8.6691,8.6691,8.6691,8.6691,8.6691,8.6515,8.5799,8.5233,8.4644,8.2765,8.1982,8.1829,8.1155,8.0927,8.1132,8.1904,8.2576,8.4076,8.5416,8.6747,8.779,8.9537,9.0323,9.0683,9.129,9.1541,9.0863,9.0757,9.1115,9.2115,9.2437,9.2615,9.2936,9.226,9.1725,9.1725,9.0178,8.9053,8.8429,8.7322,8.7027,8.7147,8.6547,8.6949,8.7553,8.804,8.9047,8.9742,9.0257,9.1533,9.2254,9.1747,9.1581,9.1344,9.0562,9.0097,9.004,8.9011,8.8747,8.8689,8.8836,8.8853,8.8629,8.8733,8.8782,8.8798,8.883,8.8886,8.8923,8.9055,8.9146,8.9279,8.9406,8.946,8.9516,8.9552,8.9569,8.9618,8.9618,8.9618,8.9735,8.9822,8.992,8.9927,8.9942,8.9993,9.0003,9.0007,9.001,9.0011,8.9975,8.9902,8.994,8.9978,8.994,8.9713,8.9865,8.9978,8.9978,8.9977,8.9784,8.9557,8.9254,8.88,8.8497,8.7508,8.6025,8.6625,8.6691,8.6691,8.6691,8.6691,8.6691,8.6691,8.6691,8.6691,8.6691,8.6691,8.6691,8.6691,8.6625,8.6527,8.5931,8.5134,8.4625,8.3953,8.2914,8.2026,8.172,8.1625,8.1463,8.1794,8.2736,8.3909,8.5065,8.594,8.7755,8.8577,8.9008,8.8795,8.8617,8.8576,8.8795,8.9083,8.9297,8.9547,9.0438,9.1187,9.1366,9.1296,9.126,9.0578,8.9571,8.8669,8.7521,8.6911,8.6973,8.6431,8.6402,8.6737,8.707,8.7394,8.7705,8.7848,8.8716,9.0113,8.8677,8.8534,8.8722,8.9082,8.8678,8.8493,8.8418,8.8435,8.849,8.856,8.8594,8.8612,8.8629,8.8716,8.8749,8.8803,8.883,8.884,8.8901,8.9,8.9108,8.9184,8.9256,8.9314,8.9395,8.9406,8.9384,8.9411,8.9458,8.959,8.97,8.9822,8.9817,8.9859,8.9879,8.9934,8.9953,8.9961,9.0003,8.9891,8.9629,8.9592,8.9366,8.9329,8.9444,8.9065,8.8269,8.8915,8.9637,8.8612,8.7624,8.827,8.8726,8.9371,8.8953,8.7777,8.5521,8.6658,8.6691,8.6691,8.6691,8.6691,8.6691,8.6691,8.6691,8.6691,8.6691,8.6691,8.6691,8.6691,8.6691,8.6318,8.5964,8.5246,8.4658,8.3953,8.308,8.2196,8.1807,8.1511,8.1317,8.1316,8.2524,8.3295,8.3819,8.5828,8.6616,8.6549,8.5985,8.5632,8.5738,8.6485,8.7836,8.8762,8.9118,8.9511,8.969,8.9868,8.9975,9.0082,8.9401,8.8647,8.8106,8.7162,8.6422,8.622,8.6002,8.5902,8.608,8.6356,8.6633,8.6901,8.7149,8.7321,8.7774,8.7418,8.7366,8.7591,8.7766,8.7992,8.8192,8.8325,8.8325,8.8344,8.8435,8.8525,8.8488,8.8577,8.8645,8.8683,8.8716,8.8749,8.8777,8.8771,8.8864,8.8953,8.893,8.8986,8.9055,8.9145,8.9145,8.9106,8.9171,8.9279,8.941,8.9507,8.9648,8.9715,8.9779,8.9817,8.988,8.9905,8.9886,8.9854,8.956,8.9303,8.8743,8.8258,8.807,8.7768,8.7238,8.6593,8.6441,8.6477,8.6097,8.5718,8.5947,8.6253,8.6899,8.7508,8.7242,8.4059,8.5641,8.551,8.5893,8.6527,8.644,8.6582,8.6691,8.6691,8.6691,8.6691,8.6691,8.6691,8.6691,8.6691,8.6691,8.6527,8.5733,8.5569,8.5081,8.4181,8.3013,8.2049,8.1745,8.1343,8.0773,8.1195,8.1739,8.213,8.3742,8.4427,8.4322,8.3798,8.3351,8.3679,8.4777,8.5809,8.6769,8.7018,8.7588,8.7908,8.8228,8.8549,8.9083,8.8152,8.7973,8.7614,8.6566,8.6095,8.5873,8.5531,8.5499,8.5629,8.5742,8.606,8.642,8.6544,8.6784,8.6949,8.681,8.6711,8.699,8.7208,8.7501,8.7867,8.8012,8.8076,8.8231,8.8288,8.8343,8.8361,8.847,8.854,8.8577,8.8612,8.8683,8.8695,8.8712,8.8777,8.8855,8.8855,8.8802,8.8849,8.8916,8.8886,8.8871,8.901,8.9121,8.9208,8.9325,8.9458,8.9516,8.9656,8.9715,8.9728,8.9779,8.9822,8.9534,8.9168,8.8565,8.7891,8.7271,8.6269,8.5748,8.5258,8.5296,8.4875,8.3837,8.3534,8.3884,8.404,8.4114,8.4573,8.5261,8.5528,8.2255,8.3592,8.3451,8.4354,8.5815,8.6066,8.6275,8.6527,8.6637,8.6637,8.6582,8.6637,8.6691,8.6691,8.6691,8.6691,8.6691,8.6691,8.6494,8.6108,8.5292,8.3747,8.2547,8.1549,8.0841,8.0127,8.051,8.0949,8.1472,8.2287,8.1952,8.1569,8.2279,8.2333,8.2671,8.3267,8.3992,8.4282,8.464,8.5349,8.6095,8.6627,8.7125,8.8263,8.8655,8.8869,8.8726,8.7221,8.6323,8.6251,8.5521,8.514,8.5203,8.5329,8.5539,8.5859,8.5995,8.6164,8.6311,8.62,8.6108,8.6183,8.6517,8.6965,8.7409,8.7546,8.7803,8.809,8.823,8.8269,8.8288,8.8325,8.8417,8.8452,8.8507,8.8543,8.856,8.8577,8.8645,8.8749,8.8782,8.8777,8.8808,8.8771,8.8793,8.8761,8.8894,8.9005,8.9065,8.9095,8.9246,8.9362,8.9498,8.9563,8.9581,8.9345,8.9153,8.8883,8.8441,8.7764,8.6633,8.5614,8.4477,8.3843,8.3111,8.3868,8.4108,8.2542,8.1637,8.2029,8.2347,8.2518,8.2898,8.3056,8.3407,7.978,8.0287,8.1252,8.268,8.4266,8.5374,8.5919,8.5998,8.6187,8.6242,8.633,8.6582,8.6691,8.6691,8.6658,8.6691,8.6691,8.6691,8.6691,8.6198,8.5198,8.3769,8.2393,8.1222,8.0236,7.9387,7.9835,8.0291,8.0597,8.0727,8.077,8.0804,8.1328,8.1616,8.1779,8.2135,8.2563,8.2873,8.3463,8.4073,8.464,8.4782,8.5171,8.5454,8.5594,8.5593,8.5658,8.5333,8.5226,8.5295,8.4928,8.485,8.4883,8.5012,8.5235,8.536,8.5508,8.5629,8.5599,8.5605,8.5483,8.5629,8.5946,8.642,8.689,8.734,8.7628,8.7672,8.7971,8.8209,8.8287,8.8232,8.8325,8.8344,8.8362,8.8362,8.8343,8.8435,8.8543,8.8594,8.8629,8.8662,8.8679,8.8658,8.8695,8.8679,8.8749,8.8868,8.8908,8.8894,8.901,8.9119,8.927,8.9336,8.9389,8.9253,8.8569,8.8126,8.7604,8.6628,8.4478,8.3201,8.2616,8.1673,8.0644,8.1419,8.2718,8.1174,7.9747,8.0379,8.0878,8.0987,8.1035,8.0764,8.0921,7.723,7.8313,7.9671,8.1504,8.348,8.4964,8.5638,8.5718,8.5853,8.5638,8.5269,8.5969,8.6046,8.5739,8.6472,8.6658,8.6691,8.6691,8.6395,8.5453,8.473,8.3335,8.1778,8.0775,7.9799,7.9219,7.9274,7.962,7.9608,7.9608,7.9608,7.9959,8.051,8.0898,8.1068,8.1445,8.1773,8.2135,8.2756,8.339,8.3754,8.3931,8.4073,8.4249,8.4283,8.4423,8.4525,8.4451,8.4485,8.455,8.4617,8.465,8.4683,8.485,8.4984,8.4984,8.508,8.5044,8.5016,8.508,8.5176,8.5334,8.5508,8.583,8.6172,8.6607,8.6903,8.7197,8.7613,8.7867,8.7909,8.8096,8.8211,8.8288,8.8288,8.8307,8.8307,8.8325,8.838,8.8417,8.8452,8.847,8.847,8.8505,8.854,8.8577,8.8629,8.8716,8.8712,8.8723,8.8824,8.8916,8.9024,8.9108,8.922,8.9242,8.8517,8.7471,8.6915,8.5323,8.2887,8.1427,8.0823,8.0059,7.9839,8.0238,8.0784,8.0541,8.0259,7.9915,7.9492,7.9884,8.0228,7.9874,7.9778,7.4811,7.6852,7.8489,8.0423,8.2464,8.4162,8.5036,8.5257,8.5087,8.4542,8.3798,8.4822,8.4692,8.419,8.5291,8.6023,8.6374,8.6374,8.5946,8.4763,8.4052,8.2593,8.0572,8.0279,7.9239,7.8738,7.8649,7.8649,7.8792,7.8839,7.8887,7.9168,7.9699,8.0059,8.0325,8.0761,8.1279,8.1445,8.1935,8.2602,8.3279,8.3463,8.3682,8.3861,8.3967,8.4108,8.4247,8.4282,8.4315,8.4415,8.4483,8.4516,8.4516,8.465,8.4683,8.4683,8.4716,8.4716,8.4785,8.4919,8.5052,8.5044,8.5203,8.5302,8.5575,8.5888,8.6265,8.6748,8.7173,8.7386,8.7538,8.7803,8.8008,8.8012,8.7955,8.7999,8.8117,8.8076,8.8212,8.8269,8.8363,8.8325,8.8288,8.8362,8.8435,8.8507,8.8525,8.856,8.8594,8.8629,8.8679,8.8761,8.8849,8.8901,8.9,8.8986,8.8149,8.6858,8.5846,8.4551,8.3192,8.2181,8.082,8.0415,7.9999,8.0301,8.1211,8.1464,8.0978,8.0375,7.9573,7.9424,7.9445,7.9369,7.9344,7.3289,7.4605,7.7073,7.8378,7.9181,8.1499,8.2993,8.3554,8.295,8.2704,8.3142,8.267,8.2311,8.2136,8.2569,8.3363,8.4691,8.6056,8.5432,8.4151,8.3066,8.1803,8.0094,7.9141,7.8482,7.8298,7.8443,7.841,7.841,7.841,7.8554,7.8792,7.8887,7.9135,7.9446,7.9869,8.0193,8.0588,8.1018,8.1396,8.197,8.2411,8.3022,8.3717,8.386,8.386,8.3967,8.4073,8.4107,8.4177,8.4316,8.442,8.4419,8.4519,8.4552,8.4487,8.4552,8.4586,8.4619,8.4686,8.4752,8.4814,8.4847,8.498,8.5172,8.5386,8.5705,8.6211,8.6674,8.6977,8.7002,8.7125,8.7197,8.7245,8.734,8.7433,8.7635,8.783,8.7975,8.8073,8.8248,8.8248,8.8192,8.823,8.8363,8.8399,8.838,8.8454,8.8435,8.847,8.8505,8.8612,8.8679,8.8723,8.8702,8.8702,8.7369,8.5998,8.4752,8.3484,8.291,8.2348,8.291,8.256,8.1859,8.107,8.2008,8.2593,8.1358,8.0268,7.9604,7.919,7.9068,7.8988,7.8509,7.2859,7.3838,7.5428,7.64,7.7251,7.9769,8.0884,8.0771,8.0824,8.0625,8.0378,8.0556,8.0496,8.0515,8.0967,8.1875,8.2733,8.3895,8.3347,8.2285,8.1353,8.0321,7.8993,7.8368,7.8136,7.8152,7.8152,7.8119,7.8119,7.8168,7.8265,7.8458,7.8554,7.8649,7.892,7.9108,7.9367,7.9778,8.0237,8.0675,8.1026,8.1616,8.2061,8.264,8.287,8.3206,8.3428,8.361,8.3896,8.3932,8.4107,8.4178,8.4177,8.4246,8.4246,8.4177,8.4246,8.4315,8.4417,8.4451,8.4519,8.4617,8.468,8.4814,8.4948,8.5144,8.536,8.5682,8.6125,8.6447,8.6491,8.6763,8.6887,8.6913,8.6988,8.7113,8.7258,8.7515,8.7561,8.7538,8.7738,8.7867,8.7909,8.8033,8.8211,8.8288,8.8288,8.8307,8.8288,8.8307,8.8362,8.8417,8.8452,8.8468,8.8468,8.7683,8.6355,8.4985,8.3659,8.2304,8.1435,8.0654,8.1383,8.296,8.3169,8.2131,8.2586,8.2274,8.1166,8.0109,7.9412,7.8841,7.8695,7.8235,7.746,7.296,7.3736,7.4407,7.5013,7.5885,7.8168,7.8723,7.8003,7.8562,7.8135,7.727,7.8145,7.8317,7.8581,7.9848,8.0645,8.1064,8.1724,8.1178,8.0126,7.9883,7.92,7.8318,7.7858,7.7875,7.7924,7.7875,7.7891,7.794,7.794,7.8086,7.8216,7.8265,7.841,7.8602,7.8664,7.8839,7.9181,7.9596,7.9925,8.0325,8.0856,8.1328,8.1698,8.2095,8.2407,8.264,8.3167,8.3609,8.3718,8.3896,8.3861,8.3718,8.3718,8.379,8.3932,8.4002,8.4107,8.4211,8.4282,8.4349,8.4485,8.4586,8.4686,8.4752,8.4919,8.508,8.5266,8.5569,8.5823,8.593,8.62,8.651,8.659,8.6564,8.6643,8.6737,8.6915,8.7014,8.694,8.7173,8.7423,8.7456,8.7569,8.7723,8.7809,8.7893,8.7938,8.7999,8.8096,8.8117,8.8156,8.8194,8.8194,8.8064,8.6816,8.5511,8.4202,8.3096,8.1711,8.1129,7.9741,7.955,8.1376,8.2106,8.2159,8.1947,8.1528,8.0852,8.0345,7.9433,7.8446,7.7727,7.6954,7.6203,7.3532,7.375,7.5065,7.5153,7.4823,7.6179,7.6761,7.642,7.5594,7.5764,7.5807,7.4917,7.5414,7.5661,7.6195,7.7457,7.9041,8.0234,8.0125,7.9092,7.9047,7.8521,7.7855,7.7578,7.7578,7.7628,7.7628,7.7727,7.7875,7.7973,7.794,7.8022,7.8022,7.8168,7.8313,7.841,7.8506,7.8745,7.8947,7.9135,7.9492,7.997,8.065,8.1076,8.1493,8.1616,8.1814,8.2254,8.2679,8.2682,8.3427,8.3353,8.2984,8.287,8.3132,8.3753,8.3789,8.3932,8.4002,8.4037,8.4037,8.4037,8.428,8.4385,8.4487,8.4655,8.4752,8.4915,8.5044,8.5298,8.5302,8.5514,8.558,8.5635,8.5719,8.5852,8.61,8.6155,8.6238,8.6275,8.657,8.6865,8.699,8.7173,8.7245,8.7363,8.7501,8.7591,8.7716,8.7781,8.7809,8.7872,8.7913,8.7934,8.7404,8.6311,8.4973,8.38,8.2868,8.2327,8.2141,8.0767,7.9897,8.0936,8.1045,8.1607,8.1551,8.0677,8.0304,8.0614,7.9536,7.7668,7.6522,7.567,7.3837,7.4493,7.4559,7.4633,7.4418,7.4253,7.5318,7.5594,7.4887,7.439,7.4406,7.4398,7.349,7.3475,7.4257,7.4344,7.4871,7.6209,7.7032,7.7262,7.7497,7.7807,7.7675,7.7343,7.726,7.7228,7.7328,7.7328,7.7378,7.7528,7.7595,7.7727,7.7759,7.7924,7.8022,7.8086,7.8119,7.8265,7.8458,7.8506,7.8649,7.8839,7.9228,7.9711,8.0148,8.0684,8.0941,8.0983,8.1534,8.186,8.2015,8.2254,8.2294,8.2015,8.2015,8.2407,8.2908,8.3099,8.3319,8.3754,8.3896,8.3825,8.3967,8.4072,8.4107,8.4177,8.4246,8.4417,8.4519,8.4721,8.4919,8.5116,8.5116,8.5148,8.5275,8.5302,8.5453,8.5593,8.5563,8.5533,8.5742,8.608,8.6329,8.658,8.685,8.6977,8.6977,8.7125,8.7136,8.7245,8.7377,8.7433,8.7478,8.7561,8.7302,8.6713,8.5589,8.4237,8.2958,8.164,8.1065,8.1054,8.0529,7.9971,7.935,7.8759,7.9634,8.02,7.9416,7.8751,7.8737,7.8089,7.6585,7.5153,7.3795,7.1908,7.5504,7.5484,7.4594,7.4177,7.4184,7.5134,7.4898,7.3792,7.3992,7.3975,7.3582,7.2741,7.2905,7.3743,7.3491,7.3531,7.3937,7.4111,7.4091,7.5162,7.5992,7.6462,7.6429,7.641,7.6565,7.6924,7.7025,7.7127,7.7228,7.7378,7.7511,7.7478,7.7595,7.7793,7.7875,7.7907,7.8055,7.8249,7.8249,7.8362,7.8602,7.8664,7.8853,7.9168,7.9733,8.0104,8.0247,8.0813,8.1068,8.0907,8.0907,8.1068,8.1118,8.1202,8.1575,8.2061,8.2259,8.2528,8.3057,8.3169,8.3318,8.3466,8.361,8.3789,8.3861,8.4002,8.4107,8.4247,8.4349,8.4552,8.4856,8.4951,8.4984,8.5016,8.5048,8.5112,8.514,8.5076,8.5176,8.5329,8.5599,8.5793,8.5909,8.6237,8.6429,8.6617,8.6669,8.6659,8.6799,8.6913,8.6963,8.6963,8.6941,8.673,8.5851,8.4398,8.2871,8.1395,7.9539,7.8422,7.8435,7.8111,7.8012,7.75,7.6951,7.7259,7.81,7.7482,7.7468,7.6879,7.632,7.552,7.4391,7.2004,7.0242,7.6402,7.6402,7.6326,7.5834,7.5142,7.5239,7.4808,7.3897,7.3874,7.3827,7.3578,7.2769,7.2948,7.3588,7.3066,7.2971,7.3624,7.3522,7.3768,7.4091,7.4642,7.5023,7.486,7.5077,7.5644,7.6202,7.6733,7.6803,7.6924,7.7076,7.7177,7.7228,7.7278,7.7378,7.7578,7.7611,7.7727,7.7924,7.7973,7.8119,7.8313,7.8362,7.8506,7.8745,7.9041,7.9135,7.9413,7.9824,7.9925,7.9055,7.9215,7.9733,8.0203,8.0467,8.083,8.1232,8.1155,8.1203,8.1601,8.1491,8.1778,8.2148,8.2517,8.3129,8.336,8.3471,8.3648,8.3861,8.4002,8.4211,8.4488,8.4588,8.4652,8.4719,8.4785,8.4716,8.4683,8.4716,8.4883,8.5112,8.5144,8.5208,8.5239,8.5334,8.5483,8.5982,8.6031,8.6088,8.6209,8.6356,8.6411,8.6384,8.6255,8.6078,8.4699,8.3331,8.1804,8.0351,7.8573,7.7576,7.7638,7.6629,7.6294,7.6166,7.6199,7.6317,7.6311,7.6288,7.6469,7.5826,7.4188,7.4052,7.3785,7.063,6.8942,7.6564,7.6564,7.6564,7.6385,7.6057,7.6028,7.5776,7.5329,7.4829,7.4581,7.4353,7.3526,7.3321,7.358,7.3232,7.3069,7.2892,7.2892,7.2912,7.2944,7.3305,7.3362,7.3475,7.398,7.4423,7.4837,7.4914,7.5345,7.5855,7.6065,7.6462,7.6854,7.7076,7.7228,7.7328,7.7361,7.7428,7.7677,7.7727,7.7825,7.8071,7.8119,7.8232,7.841,7.8506,7.8602,7.8839,7.9135,7.9135,7.882,7.8806,7.9028,7.9254,7.8699,7.8653,7.9346,7.8669,7.854,7.8755,7.8841,7.9,7.9231,7.9347,8.0026,8.0991,8.1613,8.2471,8.3107,8.3645,8.3932,8.4107,8.4177,8.428,8.4313,8.4279,8.4279,8.421,8.4279,8.4381,8.455,8.4719,8.4817,8.4948,8.508,8.5203,8.5293,8.5411,8.5508,8.5599,8.5725,8.5784,8.5671,8.5544,8.4771,8.3578,8.298,8.1781,8.071,7.9269,7.8346,7.7452,7.57,7.5514,7.5463,7.5463,7.5305,7.4625,7.4267,7.4381,7.3613,7.1971,7.1012,7.016,6.8082,6.7349,7.6564,7.6564,7.6564,7.6564,7.6564,7.6564,7.6535,7.646,7.5834,7.5523,7.5367,7.4551,7.4096,7.4008,7.3491,7.2853,7.2286,7.1841,7.1712,7.1802,7.1771,7.1681,7.1976,7.276,7.3418,7.3675,7.3843,7.4035,7.4674,7.486,7.5431,7.6338,7.6378,7.6719,7.7058,7.7025,7.7177,7.7411,7.7461,7.7528,7.7661,7.7366,7.7513,7.7939,7.7724,7.7836,7.8473,7.8568,7.8322,7.745,7.763,7.809,7.8531,7.7988,7.7857,7.8252,7.7461,7.7035,7.7078,7.7057,7.6952,7.6741,7.706,7.7306,7.86,7.914,8.0208,8.1583,8.2496,8.3007,8.354,8.3825,8.3967,8.3932,8.3682,8.3539,8.3683,8.3861,8.4002,8.4106,8.4313,8.4415,8.4516,8.4686,8.4788,8.4817,8.4847,8.4915,8.4865,8.4889,8.4192,8.4295,8.394,8.3241,8.2789,8.2454,8.18,8.0648,7.9536,7.8388,7.6907,7.5421,7.5101,7.4389,7.4016,7.3291,7.2692,7.207,7.1552,7.1314,7.0333,7.007,6.8555,6.7108,6.643,7.6564,7.6564,7.6564,7.6564,7.6564,7.6564,7.6564,7.6535,7.646,7.6373,7.6309,7.5504,7.5113,7.4594,7.3236,7.2277,7.1785,7.0963,7.0531,7.0448,7.0359,7.0449,7.0753,7.174,7.2501,7.2993,7.3305,7.3557,7.3756,7.3812,7.4257,7.5108,7.527,7.5644,7.6358,7.6784,7.6822,7.683,7.7014,7.6999,7.6952,7.5892,7.586,7.7218,7.6252,7.6234,7.7363,7.764,7.6492,7.4046,7.5151,7.6621,7.7983,7.8535,7.8213,7.8321,7.854,7.7653,7.693,7.653,7.6425,7.5999,7.5884,7.634,7.6878,7.7218,7.7856,7.9345,8.0273,8.1213,8.2485,8.3281,8.3575,8.3754,8.2989,8.2721,8.3024,8.3539,8.3754,8.3861,8.4002,8.4037,8.4072,8.4107,8.4176,8.4244,8.4169,8.4164,8.4017,8.3191,8.2548,8.1977,8.1513,8.1108,8.1171,8.0912,8.0626,7.9536,7.8678,7.7638,7.6427,7.5555,7.5099,7.3368,7.2162,7.1309,7.0572,6.9961,6.9402,6.8687,6.8722,6.9397,6.8612,6.7078,6.6129,7.6564,7.6564,7.6564,7.6564,7.6564,7.6564,7.6564,7.6564,7.6564,7.6564,7.6547,7.625,7.5678,7.4774,7.4063,7.285,7.155,7.1115,7.0443,6.977,6.9649,6.9773,7.0234,7.0693,7.1025,7.1414,7.1563,7.2035,7.279,7.2848,7.3305,7.4035,7.4202,7.4478,7.4806,7.5345,7.529,7.4864,7.5259,7.5188,7.4523,7.3937,7.4034,7.4441,7.4163,7.4179,7.4667,7.4813,7.4275,7.3365,7.3511,7.4796,7.6216,7.5962,7.6066,7.667,7.6446,7.5775,7.5301,7.5301,7.5093,7.479,7.4202,7.4356,7.5216,7.5162,7.5669,7.7186,7.8669,7.9927,8.0669,8.1893,8.2148,8.12,8.1362,8.1901,8.2061,8.2571,8.2949,8.3099,8.3465,8.3789,8.3825,8.3896,8.4037,8.386,8.322,8.265,8.2399,8.1333,8.0762,8.0123,7.9385,7.9172,7.9408,7.937,7.9227,7.8296,7.7363,7.6284,7.5062,7.4293,7.3563,7.1712,7.0387,6.9581,6.8646,6.7962,6.7652,6.6162,6.5432,6.606,6.6518,6.5571,6.5343,7.5368,7.5885,7.5885,7.6088,7.6564,7.6564,7.6564,7.6564,7.6564,7.6564,7.6477,7.6198,7.55,7.4657,7.3726,7.2608,7.1258,7.0604,7.0026,6.9392,6.9305,6.9463,6.9803,6.9773,6.9959,7.0205,7.0266,7.0723,7.1444,7.1681,7.218,7.2932,7.316,7.3201,7.3158,7.3654,7.334,7.2372,7.2814,7.2854,7.2381,7.1865,7.2026,7.259,7.2313,7.154,7.0672,7.0559,7.0736,7.0896,7.1444,7.2607,7.4081,7.3846,7.4035,7.4979,7.4751,7.4526,7.4208,7.4531,7.4854,7.4214,7.3583,7.3594,7.4326,7.4254,7.4566,7.5537,7.707,7.817,7.8566,8.0099,8.0322,7.8497,7.9171,7.9836,8.0535,8.0979,8.1421,8.2001,8.2679,8.2981,8.3057,8.3059,8.2851,8.2362,8.1556,8.0607,8.0081,7.8711,7.7902,7.7726,7.7269,7.6744,7.7232,7.7511,7.6777,7.5661,7.4962,7.4123,7.2801,7.1759,7.1064,6.9991,6.8853,6.7854,6.6891,6.6376,6.641,6.5484,6.4867,6.4355,6.3776,6.3639,6.3734,7.2806,7.4148,7.4274,7.498,7.6059,7.6117,7.6419,7.6175,7.6233,7.6059,7.5826,7.5083,7.4375,7.392,7.2053,7.0986,7.0492,6.9306,6.8785,6.8893,6.8835,6.8908,6.9104,6.8957,6.9143,6.9597,6.9838,6.9929,7.0234,7.0449,7.0935,7.168,7.2093,7.2039,7.1747,7.1754,7.114,7.0041,6.9825,7.0097,7.0612,6.9528,6.9879,7.1671,7.083,6.8923,6.6026,6.5945,6.6467,6.7165,6.8409,7.035,7.2202,7.2748,7.2879,7.33,7.4471,7.4629,7.3964,7.4988,7.5108,7.4597,7.4236,7.4136,7.4402,7.4304,7.4382,7.4803,7.5569,7.5934,7.6497,7.8075,7.85,7.6586,7.6821,7.7779,7.8876,7.8979,7.9265,8.0812,8.1168,8.139,8.139,8.1221,8.0788,7.9888,7.9226,7.8643,7.7473,7.6051,7.4959,7.4614,7.4424,7.4574,7.5135,7.5484,7.4256,7.3202,7.2705,7.2104,7.0825,6.9444,6.8779,6.7614,6.6488,6.5603,6.4613,6.4541,6.4609,6.4712,6.5425,6.4981,6.3948,6.2981,6.2714,7.1078,7.245,7.2565,7.2864,7.3278,7.3306,7.3306,7.3335,7.3306,7.3306,7.3249,7.2874,7.2183,7.1289,7.054,6.9726,6.8862,6.8302,6.8065,6.8136,6.7394,6.7087,6.7039,6.6288,6.6349,6.7284,6.7772,6.8733,6.9808,7.005,7.0266,7.0451,7.0693,7.0605,7.0573,7.0449,6.9721,6.8545,6.8237,6.789,6.7251,6.6801,6.7001,6.7581,6.7315,6.6498,6.5577,6.5496,6.5677,6.5907,6.64,6.7284,6.8699,7.0283,7.1681,7.2733,7.3382,7.3511,7.3312,7.3653,7.4301,7.4884,7.4381,7.4467,7.5399,7.4742,7.438,7.4603,7.5438,7.5861,7.5679,7.6482,7.7177,7.672,7.7278,7.8172,7.879,7.8778,7.8813,7.9098,7.8972,7.8589,7.8393,7.8457,7.8319,7.7847,7.6774,7.6082,7.5359,7.4116,7.3047,7.2978,7.2591,7.284,7.288,7.2635,7.1516,7.1283,7.0929,7.0255,6.9176,6.7585,6.6319,6.5033,6.3989,6.3151,6.2677,6.2568,6.2497,6.2435,6.3228,6.3843,6.2822,6.2214,6.1826,6.8532,6.9508,7.0465,7.1192,7.17,7.1729,7.1729,7.1729,7.1729,7.1729,7.1672,7.1242,7.0582,6.9713,6.8328,6.7219,6.6394,6.64,6.6435,6.6418,6.5764,6.5391,6.5305,6.4559,6.4616,6.5338,6.5822,6.6656,6.7842,6.8023,6.8085,6.8085,6.8177,6.7913,6.7682,6.8009,6.7521,6.641,6.6796,6.6723,6.6261,6.5741,6.5288,6.4839,6.4817,6.5053,6.5646,6.5324,6.5288,6.5547,6.5208,6.5396,6.6251,6.774,6.9243,7.0542,7.1538,7.1988,7.2053,7.2491,7.3382,7.4357,7.3814,7.4053,7.5388,7.5167,7.4758,7.5094,7.5969,7.5326,7.4212,7.4109,7.4671,7.4908,7.565,7.6439,7.7601,7.7947,7.8081,7.814,7.7871,7.7585,7.7866,7.7619,7.7423,7.6878,7.5979,7.5251,7.4579,7.3723,7.293,7.2433,7.2161,7.1856,7.089,6.9685,6.9117,6.9013,6.8653,6.771,6.6671,6.507,6.4534,6.3398,6.2845,6.2234,6.2857,6.2703,6.235,6.2197,6.1976,6.212,6.0396,6.0769,6.0667,6.5241,6.5636,6.8031,6.9739,7.1268,7.1239,7.1336,7.1028,7.1278,7.1403,7.1078,7.0038,6.9466,6.8745,6.5378,6.3784,6.3645,6.3674,6.3769,6.393,6.3796,6.3861,6.3921,6.3836,6.3836,6.3739,6.3982,6.4218,6.4362,6.4636,6.473,6.4877,6.5203,6.4624,6.3955,6.4947,6.4772,6.4009,6.4883,6.5963,6.6556,6.5898,6.4831,6.3767,6.3483,6.4063,6.5235,6.487,6.481,6.5525,6.4697,6.4654,6.5419,6.557,6.5987,6.6879,6.8858,7.0086,7.028,7.1409,7.2428,7.2686,7.2636,7.343,7.4926,7.5007,7.5118,7.5906,7.5741,7.4711,7.2119,7.204,7.1967,7.2186,7.2078,7.3489,7.6081,7.6287,7.709,7.7715,7.7575,7.7169,7.7708,7.8299,7.6956,7.6057,7.5966,7.5268,7.3827,7.3705,7.3007,7.2153,7.1568,7.0711,6.7675,6.6655,6.6108,6.5756,6.5452,6.4543,6.3442,6.2622,6.2422,6.1985,6.1271,6.1354,6.2504,6.2616,6.1938,6.1666,6.1374,6.0899,5.9626,5.9644,5.8721,6.4054,6.415,6.482,6.5395,6.5902,6.6682,6.7021,6.7184,6.7883,6.8215,6.8121,6.725,6.5401,6.2951,6.1782,6.1253,6.1212,6.1249,6.1286,6.124,6.0335,5.9924,5.9904,5.9742,6.0135,6.1038,6.197,6.2936,6.3792,6.4158,6.4311,6.4311,6.4342,6.423,6.3884,6.3574,6.3343,6.3024,6.2642,6.2635,6.2922,6.3335,6.3371,6.3024,6.2238,6.2059,6.2522,6.3335,6.3942,6.4168,6.4345,6.4794,6.5571,6.4918,6.491,6.5776,6.6516,6.6821,6.6821,6.7787,6.8907,7.0077,7.0798,7.1793,7.3154,7.3593,7.3641,7.3751,7.3784,7.3508,7.2485,7.2419,7.2434,7.256,7.256,7.2771,7.3795,7.3879,7.3857,7.3242,7.3794,7.2906,7.2153,7.2153,7.2318,7.1857,7.1494,7.0967,7.0703,7.0802,7.0626,7.011,6.9967,6.8194,6.4506,6.3739,6.3491,6.3011,6.3023,6.2424,6.09,6.0602,6.042,6.0434,5.9128,5.8953,5.9657,5.989,5.9525,5.976,6.0055,5.9929,5.8266,5.7422,5.617,6.3157,6.2944,6.3362,6.3275,6.2983,6.3568,6.366,6.329,6.3885,6.4176,6.4044,6.3356,6.1671,5.9523,5.9226,5.8932,5.8722,5.8786,5.8786,5.8705,5.7943,5.7593,5.7602,5.7422,5.7721,5.8553,5.9255,6.0069,6.0743,6.0982,6.1077,6.1016,6.1077,6.1077,6.1049,6.1518,6.1791,6.1763,6.2182,6.1376,5.9677,5.9918,6.0597,6.1235,6.1051,6.1144,6.198,6.2792,6.3547,6.4158,6.4122,6.463,6.5669,6.5171,6.5082,6.5545,6.5588,6.5578,6.5477,6.5943,6.6632,6.7586,6.8411,6.9594,7.1187,7.1668,7.1361,7.0446,7.027,7.0365,7.0253,7.0429,7.0815,7.1475,7.1715,7.2165,7.2766,7.2944,7.2698,7.2024,7.1842,7.158,7.0626,7.0398,7.043,7.043,7.0711,7.1097,7.0789,7.043,6.985,6.8698,6.6963,6.4846,6.2541,6.1638,6.1577,6.1453,6.1406,6.1266,6.0225,5.9915,5.9652,5.891,5.8279,5.7742,5.7116,5.7313,5.6818,5.6626,5.7174,5.706,5.5396,5.4562,5.2679,6.2457,6.1932,6.2804,6.2609,6.1461,6.1476,6.102,6.0254,6.0277,6.0119,5.9859,5.9063,5.8575,5.8022,5.7493,5.6954,5.6564,5.645,5.6521,5.6547,5.6406,5.6353,5.637,5.6432,5.6414,5.6467,5.6679,5.6972,5.7053,5.6822,5.6706,5.6591,5.6591,5.6795,5.6937,5.8799,5.9875,5.993,6.2216,6.1222,5.691,5.6591,5.7358,5.8982,5.9602,6.0798,6.232,6.2571,6.3224,6.4592,6.3925,6.4098,6.5386,6.562,6.5607,6.5451,6.5645,6.5707,6.5547,6.5574,6.5532,6.5477,6.6202,6.7324,6.8727,6.9483,6.8794,6.71,6.6544,6.6815,6.6609,6.6928,6.7741,6.9002,6.9515,7.0507,7.1557,7.2234,7.2202,7.2202,7.1492,7.1993,7.088,7.0735,7.0992,7.0494,7.0623,7.0879,7.0944,7.0366,6.9067,6.6611,6.3753,6.117,6.0003,6.014,5.9564,5.9416,5.952,5.9198,5.8936,5.8967,5.9489,5.7666,5.7739,5.6694,5.613,5.537,5.4225,5.4468,5.4228,5.3487,5.1788,5.1224,4.9551,6.1809,6.0954,6.1229,6.0357,5.8853,5.9167,5.9114,5.9037,5.983,5.8877,5.6803,5.6433,5.6307,5.6192,5.6054,5.5928,5.5794,5.5837,5.5812,5.5736,5.5311,5.5061,5.5117,5.5276,5.539,5.5453,5.6166,5.6591,5.6591,5.6591,5.6591,5.6591,5.6591,5.6591,5.6564,5.7142,5.7373,5.7462,5.8014,5.7693,5.6591,5.6591,5.6733,5.7188,5.7311,5.7884,5.9072,6.0196,6.1365,6.2457,6.279,6.3111,6.3431,6.3837,6.4065,6.4203,6.5199,6.5842,6.5825,6.573,6.5288,6.4572,6.5295,6.592,6.63,6.6561,6.6274,6.5839,6.5726,6.5795,6.5795,6.5844,6.6019,6.6319,6.6561,6.6979,6.7118,6.7149,6.7149,6.7149,6.7149,6.7262,6.7001,6.7001,6.7189,6.7302,6.71,6.7149,6.7105,6.6157,6.427,6.1731,5.9769,5.803,5.5645,5.5468,5.5508,5.5155,5.5332,5.5597,5.5538,5.5332,5.5243,5.5381,5.4596,5.4232,5.4322,5.3705,5.3439,5.3467,5.3392,5.3307,5.1867,4.9841,4.6634,6.1141,5.9978,5.9928,5.9354,5.8423,5.8118,5.7676,5.7258,5.787,5.7121,5.5599,5.5599,5.5599,5.5599,5.5599,5.5599,5.5599,5.5599,5.5599,5.5574,5.5234,5.5053,5.5115,5.5212,5.524,5.5281,5.586,5.6123,5.6123,5.6123,5.6123,5.6097,5.6097,5.5994,5.5693,5.5806,5.5855,5.5881,5.6031,5.6123,5.6097,5.6123,5.6188,5.6345,5.6839,5.7548,5.8374,5.9818,6.1266,6.2726,6.3405,6.3864,6.4014,6.4496,6.4273,6.3314,6.4013,6.4567,6.4799,6.4749,6.475,6.4961,6.5335,6.5613,6.5661,6.5494,6.5451,6.5398,6.5126,6.4972,6.4972,6.5104,6.5124,6.5206,6.5345,6.5496,6.5496,6.5496,6.5496,6.5496,6.5496,6.5396,6.5175,6.5516,6.5783,6.5732,6.5711,6.5485,6.5206,6.2256,5.9307,5.777,5.6625,5.5489,5.4635,5.4072,5.3998,5.4441,5.413,5.3869,5.3817,5.3845,5.3873,5.3764,5.2942,5.2476,5.2684,5.2062,5.1581,5.1717,5.1588,5.1262,5.0665,4.8184,4.468,6.0585,5.9206,5.9206,5.9007,5.8634,5.7641,5.6597,5.5673,5.5831,5.5955,5.5955,5.5955,5.5884,5.5884,5.598,5.5884,5.5884,5.5884,5.5955,5.5884,5.5852,5.5777,5.5777,5.5698,5.5599,5.5599,5.5599,5.5599,5.5599,5.5574,5.5599,5.5574,5.5599,5.529,5.4799,5.4941,5.5072,5.5124,5.538,5.5599,5.5599,5.5599,5.5788,5.6092,5.6984,5.7828,5.8756,5.9896,6.1455,6.3251,6.3991,6.4412,6.4758,6.5343,6.4947,6.3158,6.3248,6.3544,6.3838,6.3721,6.4216,6.5356,6.5467,6.5579,6.5973,6.5629,6.5416,6.5386,6.4975,6.4568,6.4568,6.4817,6.4953,6.4997,6.53,6.5578,6.5568,6.5599,6.5578,6.5578,6.5516,6.5413,6.5127,6.5411,6.556,6.5355,6.4558,6.434,6.2691,5.8928,5.5847,5.4967,5.4101,5.3748,5.364,5.3627,5.3292,5.4418,5.3592,5.2985,5.2958,5.2958,5.2958,5.323,5.2025,5.1425,5.1532,5.0255,4.9739,4.9843,4.8934,4.8082,4.8022,4.5864,4.2937,6.0459,5.9459,5.9459,5.8531,5.7128,5.6956,5.6358,5.5678,5.6959,0.0,0.0,5.7548,5.7548,5.7548,5.7548,5.7548,5.7474,5.7523,5.7474,5.7499,5.686,5.6561,5.6487,5.5905,5.5599,5.5599,5.5599,5.5599,5.5599,5.5599,5.5599,5.5599,5.5599,5.5524,5.5489,5.5472,5.5509,5.5466,5.5564,5.5599,5.5599,5.5599,5.5624,5.5669,5.5878,5.6597,5.787,5.814,5.8983,6.0481,6.1031,6.1264,6.1448,6.3224,6.4139,6.384,6.56,6.6159,6.52,6.4659,6.4095,6.3372,6.3717,6.4741,6.6577,6.6151,6.5792,6.5763,6.57,6.558,6.5609,6.5666,6.5666,6.5666,6.5751,6.5805,6.5748,6.5808,6.5653,6.5808,6.5623,6.5778,6.5424,6.4832,6.4067,6.2804,6.1803,6.045,5.8866,5.6824,5.4489,5.2842,5.2237,5.1612,5.0771,5.0393,5.0231,5.0746,5.0529,5.0204,5.0204,5.0204,5.0204,5.0444,4.966,4.9704,5.0368,4.9519,4.9055,4.9963,4.8741,4.6968,4.514,4.268,4.0527,5.9643,5.8716,5.8691,5.8157,0.0,5.7352,5.7107,5.686,5.7596,5.7886,5.7886,5.7886,5.7886,5.7886,5.7886,5.7886,5.7886,5.7886,5.7886,5.7861,5.7548,5.7352,5.7328,5.6959,5.6761,5.6786,5.6786,5.6786,5.6786,5.6761,5.6761,5.6761,5.6761,5.661,5.6185,5.616,5.6042,5.5709,5.4907,5.4567,5.4472,5.4567,5.4543,5.4567,5.5461,0.0,0.0,0.0,0.0,0.0,0.0,0.0,0.0,0.0,0.0,6.0472,6.1473,6.24,6.2866,6.2673,6.2698,6.3268,6.4054,6.4489,6.4311,6.5178,6.568,6.5651,6.5856,6.5885,6.5885,6.5885,6.5562,6.4857,6.4682,6.436,6.3658,6.3541,6.3307,6.275,6.2689,6.2396,6.1751,6.1523,6.1237,6.0543,5.9708,5.8964,5.7941,5.4827,5.208,5.0746,5.0529,5.0231,4.9557,4.9334,4.9394,4.9361,4.9331,4.9325,4.9293,4.9319,4.9293,4.9236,4.9113,4.8745,4.8815,4.8235,4.7503,4.6844,4.5608,4.3902,4.1964,4.0075,3.8497,5.8691,5.791,5.7886,5.7886,5.7861,5.7297,5.7052,5.7052,5.7052,5.7052,5.7052,5.7052,5.7127,5.7052,5.7052,5.7028,5.7028,5.7052,5.7028,5.7052,5.7052,5.7052,5.7052,5.7127,5.7052,5.7127,5.7052,5.7102,5.7052,5.7052,5.7028,5.7052,5.7052,5.691,5.6591,0.0,0.0,0.0,5.4095,5.3472,5.3472,5.3472,5.3472,5.3496,5.4988,0.0,5.649,5.8178,5.9283,5.9517,5.9786,0.0,0.0,0.0,0.0,0.0,0.0,0.0,0.0,0.0,0.0,0.0,6.3267,6.3017,6.1499,6.3424,6.4975,6.5209,6.5211,6.5328,6.5563,6.5592,6.4977,6.3546,6.3342,6.276,6.1282,6.1108,6.0731,5.9773,5.9657,5.9305,5.8554,5.8428,5.87,5.8331,5.763,5.7212,5.6849,5.2601,4.9605,4.9547,4.9561,4.9376,4.9326,4.9025,4.8804,4.8873,4.8678,4.831,4.8235,4.8224,4.8324,4.8224,4.8362,4.7929,4.7121,4.6717,4.6044,4.4202,4.2936,4.122,3.8814,3.7672,3.6499,5.8032,5.791,5.7886,5.7886,5.7689,5.5156,5.4047,5.4047,5.4023,5.4047,5.4023,5.4047,5.4023,5.4047,5.4047,5.4047,5.4023,5.4047,5.4047,5.4047,5.4047,5.4023,5.4047,5.4047,5.4047,5.4047,5.4047,5.4023,5.4047,5.4047,5.4047,5.4047,5.4023,5.4673,5.5812,5.4529,5.3807,5.3759,5.3544,5.3472,5.3472,5.3472,5.3472,5.3472,5.3663,5.4071,5.4574,5.4863,5.5198,5.5601,5.6133,5.6351,5.6225,5.713,5.7585,0.0,5.8297,0.0,0.0,0.0,0.0,0.0,0.0,0.0,0.0,6.1101,6.2862,6.4224,6.3421,6.3248,6.4285,6.4371,6.3882,6.2701,6.2586,6.1981,6.0744,6.0543,6.0485,6.0341,6.0313,6.0284,5.9768,5.8547,5.7021,5.5618,5.3979,5.2678,5.1654,5.0399,4.9403,5.0135,4.9665,4.8918,4.8874,4.8128,4.7394,4.7211,4.6556,4.5509,4.567,4.5646,4.5548,4.5572,4.5743,4.5722,4.615,4.5424,4.4953,4.4727,4.3184,4.0563,3.6461,3.4981,3.4386,5.547,5.5446,5.547,5.547,5.5301,5.4047,5.3472,5.3472,5.3472,5.3472,5.3472,5.3472,5.3472,5.3472,5.3472,5.3472,5.3472,5.3472,5.3472,5.3472,5.3472,5.3472,5.3472,5.3472,5.3472,5.3472,5.3472,5.3472,5.3472,5.3472,5.3472,5.3472,5.3472,5.33,5.2868,5.196,5.1136,5.0415,5.0415,5.0019,4.93,4.9278,4.9255,4.93,4.9996,5.0511,5.0751,5.2152,5.3038,5.3208,5.3142,5.3329,5.3894,5.3492,5.3351,0.0,0.0,0.0,0.0,0.0,0.0,0.0,0.0,0.0,0.0,0.0,5.932,6.1359,6.1401,6.1573,6.2293,6.2677,6.2506,6.1637,6.1493,6.098,5.9501,5.8508,5.7944,5.8057,5.7183,5.6314,5.5646,5.481,5.3646,5.2108,5.1001,5.0165,4.9785,4.8767,4.82,4.8388,4.7568,4.6837,4.6812,4.661,4.649,4.6514,4.6319,4.6233,4.6171,4.5901,4.584,4.6086,4.5778,4.5241,4.4155,4.3409,4.2292,4.079,3.8935,3.6809,3.4028,3.3284,3.2903,5.3472,5.3472,5.3112,5.2921,5.2683,5.2731,5.2613,5.2185,5.2066,5.2208,5.2372,5.2208,5.2373,5.2918,5.2895,5.2706,5.2304,5.235,5.2326,5.2185,5.2018,5.2018,5.2161,5.197,5.1947,5.2304,5.1875,5.1732,5.197,5.2038,5.2156,5.2205,5.1754,5.0909,4.9593,4.9169,4.857,4.7673,4.7577,4.6992,4.5882,4.5861,4.5861,4.5861,4.6992,4.7467,4.7416,4.9185,5.011,4.9992,4.9808,4.9971,5.0495,4.9591,0.0,0.0,0.0,0.0,0.0,0.0,0.0,0.0,0.0,5.0612,5.3242,0.0,5.5313,0.0,5.8318,5.8912,5.9163,5.9912,0.0,0.0,5.8781,5.8246,5.6514,5.5337,5.4723,5.4951,5.3948,5.2904,5.1957,5.1624,5.0968,4.9558,4.8945,4.8809,4.9243,4.8056,4.7209,4.7599,4.6876,4.5943,4.6123,4.6289,4.6357,4.5645,4.5457,4.5566,4.5479,4.5051,4.4924,4.5289,4.4745,4.352,4.1729,4.0845,3.9038,3.5667,3.3922,3.2957,3.2285,3.2009,3.1565,5.3472,5.3304,5.2288,5.1266,5.0481,5.0791,5.0066,4.8648,4.823,4.8566,4.9289,4.8453,4.9281,5.131,5.1333,0.0,4.9183,4.9307,4.9118,4.8578,4.7901,4.7878,4.8578,4.7548,4.7808,4.9137,4.7291,4.6865,4.7593,4.804,4.8441,4.8732,4.6926,4.6224,4.6759,4.6391,4.6325,4.659,4.621,4.6041,4.5861,4.5861,4.5861,4.5882,4.5948,4.5826,4.5517,4.5278,4.4889,4.4611,4.5519,4.5753,4.503,0.0,0.0,0.0,0.0,0.0,0.0,0.0,0.0,0.0,0.0,0.0,0.0,0.0,0.0,5.1399,5.3245,0.0,5.3752,5.5272,0.0,0.0,0.0,5.2658,5.0339,5.0928,5.1517,5.1517,0.0,0.0,5.2253,5.1523,5.0521,4.9322,4.8015,4.7835,4.9482,4.8186,4.7609,4.8962,4.9071,4.8754,4.8054,4.7921,4.6803,4.4404,4.2075,4.101,4.0969,4.0841,4.0499,4.0542,3.9756,3.9118,3.8723,3.7404,3.5339,3.2057,3.1254,3.1083,3.0802,3.069,3.0408,4.9911,4.9209,4.8765,4.863,4.8715,4.8883,4.8441,4.7579,4.708,4.6825,4.6744,4.6656,4.7207,4.8302,4.8324,0.0,0.0,0.0,4.747,4.7464,4.6453,4.6829,4.8002,4.5905,4.5765,4.7259,4.5532,4.5061,4.5674,4.5805,4.5622,4.4904,0.0,0.0,4.4493,4.487,4.4718,4.4058,4.4393,4.4572,4.4572,4.4572,4.4572,4.4551,4.4041,4.3681,4.3531,4.3558,4.3514,4.3349,4.3311,4.346,0.0,0.0,0.0,0.0,0.0,0.0,0.0,0.0,0.0,0.0,0.0,4.353,4.5651,0.0,0.0,0.0,5.003,5.1011,5.1811,5.2666,0.0,0.0,0.0,0.0,0.0,0.0,0.0,5.1659,5.1275,5.113,5.1642,5.089,4.9975,4.9021,4.8983,4.9092,4.9376,0.0,4.6726,4.6423,4.6178,4.5728,4.4962,4.5074,4.4872,4.3691,4.2224,4.1288,4.1004,4.0143,3.955,3.919,3.8196,3.6899,3.5707,3.3728,3.1792,3.0616,3.0182,3.0088,2.9955,2.9481,2.9082,4.673,0.0,0.0,0.0,0.0,4.7254,4.6882,4.6087,4.5528,4.517,4.4999,4.494,0.0,0.0,0.0,0.0,0.0,0.0,4.5884,4.5954,4.4927,4.5287,4.6785,4.4458,4.4174,4.5702,4.3846,4.3275,4.3787,4.2803,4.1788,4.1101,0.0,0.0,0.0,0.0,4.2784,4.1988,4.2375,4.2646,4.2705,4.2725,4.2646,4.2627,4.1813,4.1368,4.1216,4.1351,4.1215,4.0718,4.0757,0.0,0.0,0.0,0.0,0.0,0.0,0.0,0.0,0.0,0.0,0.0,0.0,0.0,0.0,0.0,0.0,0.0,0.0,0.0,4.9803,5.0555,5.1052,0.0,0.0,0.0,0.0,0.0,0.0,0.0,0.0,0.0,5.0265,4.9808,4.9223,0.0,0.0,4.8462,4.8392,4.6726,4.5236,4.4539,4.4314,0.0,4.2899,4.305,4.3221,4.2882,4.187,4.0752,3.983,3.8944,3.8284,3.7741,3.6324,3.4622,3.2733,3.0736,2.9632,2.9685,2.9586,2.9447,2.9492,2.8998,2.8525,0.0,0.0,0.0,0.0,0.0,0.0,0.0,0.0,4.2833,4.3186,0.0,4.2929,0.0,0.0,0.0,0.0,4.4172,4.4258,0.0,0.0,4.2813,4.2887,4.3599,4.2437,4.2625,4.3964,4.1786,4.1118,4.1598,3.8055,0.0,0.0,0.0,0.0,0.0,0.0,4.0357,4.0706,4.0337,4.0148,4.0262,4.0186,4.0186,4.0186,3.9481,3.886,3.8471,3.8045,3.7014,3.5618,3.7213,0.0,0.0,0.0,0.0,0.0,0.0,0.0,0.0,0.0,0.0,0.0,0.0,0.0,0.0,0.0,0.0,0.0,0.0,0.0,0.0,4.8617,0.0,0.0,0.0,0.0,0.0,0.0,0.0,0.0,0.0,0.0,4.7869,4.8058,4.8237,4.819,0.0,0.0,0.0,0.0,4.3137,4.4928,4.4893,4.4634,4.452,4.3748,4.2867,4.1857,0.0,0.0,3.565,3.5812,3.5934,3.4767,3.3536,3.1909,2.9746,2.8778,2.8416,2.8975,2.904,2.9213,2.9305,2.897,2.8805,0.0,0.0,0.0,0.0,0.0,0.0,0.0,0.0,0.0,4.0548,4.0008,3.9553,0.0,0.0,0.0,0.0,0.0,0.0,0.0,0.0,3.9806,4.0339,4.1878,3.97,3.9211,0.0,3.8307,3.7222,0.0,0.0,0.0,0.0,0.0,0.0,0.0,0.0,3.8862,4.0218,4.0073,4.0282,4.0766,4.0822,4.0822,4.0803,4.0542,3.9996,3.9128,3.7413,3.6266,0.0,0.0,0.0,0.0,0.0,0.0,0.0,0.0,0.0,0.0,0.0,0.0,0.0,0.0,0.0,0.0,0.0,0.0,0.0,0.0,0.0,0.0,0.0,4.5817,0.0,0.0,0.0,0.0,0.0,0.0,0.0,0.0,0.0,4.3419,4.4676,4.5442,4.4412,4.4514,4.4364,4.3624,0.0,0.0,0.0,0.0,0.0,0.0,0.0,4.2074,4.1414,4.0095,3.8528,3.6998,3.5634,3.4449,3.3532,0.0,0.0,2.8386,2.7436,2.6975,2.7189,2.7121,2.701,2.7099,2.6422,2.5829,0.0,0.0,0.0,0.0,0.0,0.0,0.0,0.0,0.0,3.7536,3.6575,0.0,0.0,0.0,0.0,0.0,0.0,0.0,0.0,0.0,0.0,0.0,3.8736,3.7004,0.0,0.0,0.0,0.0,0.0,0.0,0.0,0.0,0.0,0.0,0.0,0.0,3.6677,3.8057,3.8072,3.8285,3.8696,3.8731,3.8651,3.8472,3.8404,3.7954,3.6975,0.0,0.0,0.0,0.0,0.0,0.0,0.0,0.0,0.0,0.0,0.0,0.0,0.0,0.0,0.0,0.0,0.0,0.0,0.0,0.0,0.0,0.0,0.0,0.0,0.0,4.3393,0.0,0.0,0.0,0.0,0.0,0.0,0.0,0.0,0.0,0.0,0.0,4.3013,4.2028,4.2759,4.3038,4.1963,4.1579,4.1084,0.0,0.0,0.0,0.0,0.0,0.0,0.0,0.0,0.0,0.0,0.0,0.0,0.0,0.0,2.838,2.703,2.6118,2.5696,2.5923,0.0,0.0,0.0,0.0,0.0,0.0,0.0,0.0,0.0,0.0,0.0,0.0,0.0,0.0,0.0,3.4079,0.0,0.0,3.3993,0.0,0.0,0.0,0.0,0.0,0.0,0.0,0.0,0.0,0.0,0.0,0.0,0.0,0.0,0.0,0.0,0.0,0.0,0.0,0.0,0.0,0.0,3.3852,3.4419,3.4208,3.3945,3.3915,3.3805,3.3664,3.3189,3.2978,3.2594,3.1994,0.0,0.0,0.0,0.0,0.0,0.0,0.0,0.0,0.0,0.0,0.0,0.0,0.0,0.0,0.0,0.0,0.0,0.0,0.0,0.0,0.0,0.0,0.0,0.0,0.0,0.0,4.3285,4.4356,4.4329,0.0,0.0,0.0,0.0,0.0,0.0,0.0,0.0,0.0,4.1082,4.0509,4.0353,4.1227,4.052,4.0202,4.0985,4.0163,3.9474,3.9401,3.8023,3.6932,0.0,0.0,0.0,0.0,0.0,0.0,0.0,0.0,0.0,0.0,0.0,0.0,0.0,0.0,0.0,0.0,0.0,0.0,0.0,0.0,0.0,0.0,0.0,0.0,0.0,0.0,0.0,0.0,0.0,0.0,0.0,0.0,0.0,0.0,0.0,0.0,0.0,0.0,0.0,0.0,0.0,0.0,0.0,0.0,0.0,0.0,0.0,0.0,0.0,0.0,0.0,0.0,0.0,0.0,3.1329,3.3252,3.2279,3.1929,3.2417,3.2626,3.2711,3.2479,3.2262,3.1778,0.0,0.0,0.0,0.0,0.0,0.0,0.0,0.0,0.0,0.0,0.0,0.0,0.0,0.0,0.0,0.0,0.0,0.0,0.0,0.0,0.0,0.0,0.0,0.0,0.0,0.0,0.0,0.0,3.9558,4.0189,4.0798,0.0,0.0,0.0,0.0,0.0,0.0,0.0,0.0,0.0,0.0,3.9148,3.9284,3.9375,3.9517,3.9768,3.9154,3.8635,3.8616,3.6867,3.5488,3.5714,0.0,0.0,0.0,0.0,0.0,0.0,0.0,0.0,0.0,0.0,0.0,0.0,0.0,0.0,0.0,0.0,0.0,0.0,0.0,0.0,0.0,0.0,0.0,0.0,0.0,0.0,0.0,0.0,0.0,0.0,0.0,0.0,0.0,0.0,0.0,0.0,0.0,0.0,0.0,0.0,0.0,0.0,0.0,0.0,0.0,0.0,0.0,0.0,0.0,0.0,0.0,0.0,0.0,2.9453,3.1451,3.0489,2.9973,3.0095,3.0256,3.0099,2.954,2.9269,2.8814,0.0,0.0,0.0,0.0,0.0,0.0,0.0,0.0,0.0,0.0,0.0,0.0,0.0,0.0,0.0,0.0,0.0,0.0,0.0,0.0,0.0,0.0,0.0,0.0,0.0,0.0,0.0,0.0,3.7116,3.7984,3.8991,0.0,0.0,0.0,0.0,0.0,0.0,0.0,0.0,0.0,0.0,3.7851,3.8071,3.8349,0.0,0.0,3.7749,3.7107,3.6594,3.4773,3.3243,3.2839,3.1409,0.0,0.0,0.0,0.0,0.0,0.0,0.0,0.0,0.0,0.0,0.0,0.0,0.0,0.0,0.0,0.0,0.0,0.0,0.0,0.0,0.0,0.0,0.0,0.0,0.0,0.0,0.0,0.0,0.0,0.0,0.0,0.0,0.0,0.0,0.0,0.0,0.0,0.0,0.0,0.0,0.0,0.0,0.0,0.0,0.0,0.0,0.0,0.0,0.0,0.0,0.0,0.0,2.7918,2.9053,2.8683,2.7915,2.7016,2.7069,2.6347,2.4954,2.4837,2.4631,0.0,0.0,0.0,0.0,0.0,0.0,0.0,0.0,0.0,0.0,0.0,0.0,0.0,0.0,0.0,0.0,0.0,0.0,0.0,0.0,0.0,0.0,0.0,0.0,0.0,0.0,0.0,0.0,0.0,0.0,0.0,0.0,0.0,0.0,0.0,0.0,0.0,0.0,0.0,0.0,0.0,3.6555,3.7383,3.7511,3.7345,0.0,3.6213,3.5148,3.3908,3.2288,3.0642,2.9304,0.0,0.0,0.0,0.0,0.0,0.0,0.0,0.0,0.0,0.0,0.0,0.0,0.0,0.0,0.0,0.0,0.0,0.0,0.0,0.0,0.0,0.0,0.0,0.0,0.0,0.0,0.0,0.0,0.0,0.0,0.0,0.0,0.0,0.0,0.0,0.0,0.0,0.0,0.0,0.0,0.0,0.0,0.0,0.0,0.0,0.0,0.0,0.0,0.0,0.0,0.0,0.0,0.0,0.0,2.6386,2.5522,2.4996,2.4801,2.4895,2.4359,2.3102,2.348,0.0,0.0,0.0,0.0,0.0,0.0,0.0,0.0,0.0,0.0,0.0,0.0,0.0,0.0,0.0,0.0,0.0,0.0,0.0,0.0,0.0,0.0,0.0,0.0,0.0,0.0,0.0,3.2453,0.0,0.0,0.0,0.0,0.0,0.0,0.0,0.0,0.0,0.0,0.0,0.0,0.0,0.0,3.5611,3.7309,3.7253,3.6956,0.0,0.0,3.4175,3.4202,3.1491,2.9432,0.0,0.0,0.0,0.0,0.0,0.0,0.0,0.0,0.0,0.0,0.0,0.0,0.0,0.0,0.0,0.0,0.0,0.0,0.0,0.0,0.0,0.0,0.0,0.0,0.0,0.0,0.0,0.0,0.0,0.0,0.0,0.0,0.0,0.0,0.0,0.0,0.0,0.0,0.0,0.0,0.0,0.0,0.0,0.0,0.0,0.0,0.0,0.0,0.0,0.0,0.0,0.0,0.0,0.0,2.4691,2.4988,2.4397,2.3596,2.2845,2.2668,2.1882,2.0548,2.0855,2.0281,0.0,0.0,0.0,0.0,0.0,0.0,0.0,0.0,0.0,0.0,0.0,0.0,0.0,0.0,0.0,0.0,0.0,0.0,0.0,0.0,0.0,0.0,0.0,0.0,0.0,0.0,0.0,0.0,0.0,0.0,0.0,0.0,0.0,0.0,0.0,0.0,0.0,0.0,0.0,0.0,0.0,0.0,3.6067,3.5917,0.0,0.0,0.0,3.2637,3.268,0.0,0.0,0.0,0.0,0.0,0.0,0.0,0.0,0.0,0.0,0.0,0.0,0.0,0.0,0.0,0.0,0.0,0.0,0.0,0.0,0.0,0.0,0.0,0.0,0.0,0.0,0.0,0.0,0.0,0.0,0.0,0.0,0.0,0.0,0.0,0.0,0.0,0.0,0.0,0.0,0.0,0.0,0.0,0.0,0.0,0.0,0.0,0.0,0.0,0.0,0.0,0.0,0.0,0.0,0.0,0.0,0.0,2.3956,2.3748,2.274,2.107,2.0336,1.9309,1.7888,1.7922,1.7658,0.0,0.0,0.0,0.0,0.0,0.0,0.0,0.0,0.0,0.0,0.0,0.0,0.0,0.0,0.0,0.0,0.0,0.0,0.0,0.0,0.0,0.0,0.0,0.0,0.0,0.0,0.0,0.0,0.0,0.0,0.0,0.0,0.0,0.0,0.0,0.0,0.0,0.0,0.0,0.0,0.0,3.394,3.436,3.4014,3.3508,0.0,0.0,3.0782,3.0374,2.8896,0.0,0.0,0.0,0.0,0.0,0.0,0.0,0.0,0.0,0.0,0.0,0.0,0.0,0.0,0.0,0.0,0.0,0.0,0.0,0.0,0.0,0.0,0.0,0.0,0.0,0.0,0.0,0.0,0.0,0.0,0.0,0.0,0.0,0.0,0.0,0.0,0.0,0.0,0.0,0.0,0.0,0.0,0.0,0.0,0.0,0.0,0.0,0.0,0.0,0.0,0.0,0.0,0.0,0.0,0.0,0.0,2.0853,2.0844,2.0119,1.8831,1.8578,1.7956,1.6714,1.7156,1.6587,0.0,0.0,0.0,0.0,0.0,0.0,0.0,0.0,0.0,0.0,0.0,0.0,0.0,0.0,0.0,0.0,0.0,0.0,0.0,0.0,0.0,0.0,0.0,0.0,0.0,0.0,0.0,0.0,0.0,0.0,0.0,0.0,0.0,0.0,0.0,0.0,0.0,0.0,0.0,0.0,0.0,3.2731,3.3148,3.24,0.0,0.0,0.0,0.0,2.9104,2.8129,0.0,0.0,0.0,0.0,0.0,0.0,0.0,0.0,0.0,0.0,0.0,0.0,0.0,0.0,0.0,0.0,0.0,0.0,0.0,0.0,0.0,0.0,0.0,0.0,0.0,0.0,0.0,0.0,0.0,0.0,0.0,0.0,0.0,0.0,0.0,0.0,0.0,0.0,0.0,0.0,0.0,0.0,0.0,0.0,0.0,0.0,0.0,0.0,0.0,0.0,0.0,0.0,0.0,0.0,0.0,0.0,1.9644,1.949,1.8739,1.7307,1.6793,1.6231,1.5432,1.5622,1.5105,0.0,0.0,0.0,0.0,0.0,0.0,0.0,0.0,0.0,0.0,0.0,0.0,0.0,0.0,0.0,0.0,0.0,0.0,0.0,0.0,0.0,0.0,0.0,0.0,0.0,0.0,0.0,0.0,0.0,0.0,0.0,0.0,0.0,0.0,0.0,0.0,0.0,0.0,0.0,0.0,3.2387,3.2282,3.2113,0.0,0.0,0.0,0.0,0.0,0.0,2.6975,2.602,0.0,0.0,0.0,0.0,0.0,0.0,0.0,0.0,0.0,0.0,0.0,0.0,0.0,0.0,0.0,0.0,0.0,0.0,0.0,0.0,0.0,0.0,0.0,0.0,0.0,0.0,0.0,0.0,0.0,0.0,0.0,0.0,0.0,0.0,0.0,0.0,0.0,0.0,0.0,0.0,0.0,0.0,0.0,0.0,0.0,0.0,0.0,0.0,0.0,0.0,0.0,0.0,0.0,0.0,0.0,1.8747,1.852,1.7644,1.6029,1.5236,1.4696,1.4407,1.4156,1.394,1.3646,0.0,0.0,0.0,0.0,0.0,0.0,0.0,0.0,0.0,0.0,0.0,0.0,0.0,0.0,0.0,0.0,0.0,0.0,0.0,0.0,0.0,0.0,0.0,0.0,0.0,0.0,0.0,0.0,0.0,0.0,0.0,0.0,0.0,0.0,0.0,0.0,0.0,0.0,0.0,3.1746,3.1713,0.0,0.0,0.0,0.0,0.0,0.0,0.0,0.0,2.4764,0.0,0.0,0.0,0.0,0.0,0.0,0.0,0.0,0.0,0.0,0.0,0.0,0.0,0.0,0.0,0.0,0.0,0.0,0.0,0.0,0.0,0.0,0.0,0.0,0.0,0.0,0.0,0.0,0.0,0.0,0.0,0.0,0.0,0.0,0.0,0.0,0.0,0.0,0.0,0.0,0.0,0.0,0.0,0.0,0.0,0.0,0.0,0.0,0.0,0.0,0.0,0.0,0.0,0.0,0.0,0.0,1.6698,1.5996,1.4567,1.4373,1.4242,1.4257,1.4105,1.3709,1.3208,0.0,0.0,0.0,0.0,0.0,0.0,0.0,0.0,0.0,0.0,0.0,0.0,0.0,0.0,0.0,0.0,0.0,0.0,0.0,0.0,0.0,0.0,0.0,0.0,0.0,0.0,0.0,0.0,0.0,0.0,0.0,0.0,0.0,0.0,0.0,0.0,0.0,0.0,3.1544,3.0688,0.0,0.0,0.0,0.0,0.0,0.0,0.0,0.0,2.4395,0.0,0.0,0.0,0.0,0.0,0.0,0.0,0.0,0.0,0.0,0.0,0.0,0.0,0.0,0.0,0.0,0.0,0.0,0.0,0.0,0.0,0.0,0.0,0.0,0.0,0.0,0.0,0.0,0.0,0.0,0.0,0.0,0.0,0.0,0.0,0.0,0.0,0.0,0.0,0.0,0.0,0.0,0.0,0.0,0.0,0.0,0.0,0.0,0.0,0.0,0.0,0.0,0.0,0.0,0.0,0.0,0.0,0.0,1.5342,1.4234,1.4149,1.407,1.4077,1.3886,1.3415,0.0,0.0,0.0,0.0,0.0,0.0,0.0,0.0,0.0,0.0,0.0,0.0,0.0,0.0,0.0,0.0,0.0,0.0,0.0,0.0,0.0,0.0,0.0,0.0,0.0,0.0,0.0,0.0,0.0,0.0,0.0,0.0,0.0,0.0,0.0,0.0,0.0,0.0,0.0,0.0,0.0,0.0,0.0,0.0,0.0,0.0,0.0,0.0,0.0,0.0,0.0,0.0,0.0,0.0,0.0,0.0,0.0,0.0,0.0,0.0,0.0,0.0,0.0,0.0,0.0,0.0,0.0,0.0,0.0,0.0,0.0,0.0,0.0,0.0,0.0,0.0,0.0,0.0,0.0,0.0,0.0,0.0,0.0,0.0,0.0,0.0,0.0,0.0,0.0,0.0,0.0,0.0,0.0,0.0,0.0,0.0,0.0,0.0,0.0,0.0,0.0,0.0,0.0,0.0,0.0,0.0,0.0,0.0,1.4929,1.411,1.4004,1.3933,1.3872,1.3419,1.306,0.0,0.0,0.0,0.0,0.0,0.0,0.0,0.0,0.0,0.0,0.0,0.0,0.0,0.0,0.0,0.0,0.0,0.0,0.0,0.0,0.0,0.0,0.0,0.0,0.0,0.0,0.0,0.0,0.0,0.0,0.0,0.0,0.0,0.0,0.0,0.0,0.0,0.0,0.0,0.0,0.0,0.0,0.0,0.0,0.0,0.0,0.0,0.0,2.2234,0.0,0.0,0.0,0.0,0.0,0.0,0.0,0.0,0.0,0.0,0.0,0.0,0.0,0.0,0.0,0.0,0.0,0.0,0.0,0.0,0.0,0.0,0.0,0.0,0.0,0.0,0.0,0.0,0.0,0.0,0.0,0.0,0.0,0.0,0.0,0.0,0.0,0.0,0.0,0.0,0.0,0.0,0.0,0.0,0.0,0.0,0.0,0.0,0.0,0.0,0.0,0.0,0.0,0.0,0.0,0.0,0.0,0.0,0.0,1.4173,1.3864,1.3825,1.3713,1.3462,1.3035,1.2716,0.0,0.0,0.0,0.0,0.0,0.0,0.0,0.0,0.0,0.0,0.0,0.0,0.0,0.0,0.0,0.0,0.0,0.0,0.0,0.0,0.0,0.0,0.0,0.0,0.0,0.0,0.0,0.0,0.0,0.0,0.0,0.0,0.0,0.0,0.0,0.0,0.0,0.0,0.0,0.0,0.0,0.0,0.0,0.0,0.0,0.0,0.0,0.0,0.0,0.0,0.0,0.0,0.0,0.0,0.0,0.0,0.0,0.0,0.0,0.0,0.0,0.0,0.0,0.0,0.0,0.0,0.0,0.0,0.0,0.0,0.0,0.0,0.0,0.0,0.0,0.0,0.0,0.0,0.0,0.0,0.0,0.0,0.0,0.0,0.0,0.0,0.0,0.0,0.0,0.0,0.0,0.0,0.0,0.0,0.0,0.0,0.0,0.0,0.0,0.0,0.0,0.0,0.0,0.0,0.0,0.0,0.0,0.0,1.3968,1.3634,1.3556,1.334,1.2961,1.2711,1.2504,0.0,0.0,0.0,0.0,0.0,0.0,0.0,0.0,0.0,0.0,0.0,0.0,0.0,0.0,0.0,0.0,0.0,0.0,0.0,0.0,0.0,0.0,0.0,0.0,0.0,0.0,0.0,0.0,0.0,0.0,0.0,0.0,0.0,0.0,0.0,0.0,0.0,0.0,0.0,0.0,0.0,0.0,0.0,0.0,0.0,0.0,0.0,0.0,0.0,0.0,0.0,0.0,0.0,0.0,0.0,0.0,0.0,0.0,0.0,0.0,0.0,0.0,0.0,0.0,0.0,0.0,0.0,0.0,0.0,0.0,0.0,0.0,0.0,0.0,0.0,0.0,0.0,0.0,0.0,0.0,0.0,0.0,0.0,0.0,0.0,0.0,0.0,0.0,0.0,0.0,0.0,0.0,0.0,0.0,0.0,0.0,0.0,0.0,0.0,0.0,0.0,0.0,0.0,0.0,0.0,0.0,0.0,0.0,0.0,1.3337,1.3271,1.3027,1.2677,1.2434,1.2157,0.0,0.0,0.0,0.0,0.0,0.0,0.0,0.0,0.0,0.0,0.0,0.0,0.0,0.0,0.0,0.0,0.0,0.0,0.0,0.0,0.0,0.0,0.0,0.0,0.0,0.0,0.0,0.0,0.0,0.0,0.0,0.0,0.0,0.0,0.0,0.0,0.0,0.0,0.0,0.0,0.0,0.0,0.0,0.0,0.0,0.0,0.0,0.0,0.0,0.0,0.0,0.0,0.0,0.0,0.0,0.0,0.0,0.0,0.0,0.0,0.0,0.0,0.0,0.0,0.0,0.0,0.0,0.0,0.0,0.0,0.0,0.0,0.0,0.0,0.0,0.0,0.0,0.0,0.0,0.0,0.0,0.0,0.0,0.0,0.0,0.0,0.0,0.0,0.0,0.0,0.0,0.0,0.0,0.0,0.0,0.0,0.0,0.0,0.0,0.0,0.0,0.0,0.0,0.0,0.0,0.0,0.0,0.0,0.0,1.3047,1.2777,1.269,1.2643,1.2058,1.1675,0.0,0.0,0.0,0.0,0.0,0.0,0.0,0.0,0.0,0.0,0.0,0.0,0.0,0.0,0.0,0.0,0.0,0.0,0.0,0.0,0.0,0.0,0.0,0.0,0.0,0.0,0.0,0.0,0.0,0.0,0.0,0.0,0.0,0.0,0.0,0.0,0.0,0.0,0.0,0.0,0.0,0.0,0.0,0.0,0.0,0.0,0.0,0.0,0.0,0.0,0.0,0.0,0.0,0.0,0.0,0.0,0.0,0.0,0.0,0.0,0.0,0.0,0.0,0.0,0.0,0.0,0.0,0.0,0.0,0.0,0.0,0.0,0.0,0.0,0.0,0.0,0.0,0.0,0.0,0.0,0.0,0.0,0.0,0.0,0.0,0.0,0.0,0.0,0.0,0.0,0.0,0.0,0.0,0.0,0.0,0.0,0.0,0.0,0.0,0.0,0.0,0.0,0.0,0.0,0.0,0.0,0.0,0.0,0.0,1.2564,1.2451,1.2305,1.2045,1.1761,1.1479,1.1201,0.0,0.0,0.0,0.0,0.0,0.0,0.0,0.0,0.0,0.0,0.0,0.0,0.0,0.0,0.0,0.0,0.0,0.0,0.0,0.0,0.0,0.0,0.0,0.0,0.0,0.0,0.0,0.0,0.0,0.0,0.0,0.0,0.0,0.0,0.0,0.0,0.0,0.0,0.0,0.0,0.0,0.0,0.0,0.0,0.0,0.0,0.0,0.0,0.0,0.0,0.0,0.0,0.0,0.0,0.0,0.0,0.0,0.0,0.0,0.0,0.0,0.0,0.0,0.0,0.0,0.0,0.0,0.0,0.0,0.0,0.0,0.0,0.0,0.0,0.0,0.0,0.0,0.0,0.0,0.0,0.0,0.0,0.0,0.0,0.0,0.0,0.0,0.0,0.0,0.0,0.0,0.0,0.0,0.0,0.0,0.0,0.0,0.0,0.0,0.0,0.0,0.0,0.0,0.0,0.0,0.0,0.0,0.0,1.2252,1.2245,1.2099,1.1735,1.1558,1.1353,0.0,0.0,0.0,0.0,0.0,0.0,0.0,0.0,0.0,0.0,0.0,0.0,0.0,0.0,0.0,0.0,0.0,0.0,0.0,0.0,0.0,0.0,0.0,0.0,0.0,0.0,0.0,0.0,0.0,0.0,0.0,0.0,0.0,0.0,0.0,0.0,0.0,0.0,0.0,0.0,0.0,0.0,0.0,0.0,0.0,0.0,0.0,0.0,0.0,0.0,0.0,0.0,0.0,0.0,0.0,0.0,0.0,0.0,0.0,0.0,0.0,0.0,0.0,0.0,0.0,0.0,0.0,0.0,0.0,0.0,0.0,0.0,0.0,0.0,0.0,0.0,0.0,0.0,0.0,0.0,0.0,0.0,0.0,0.0,0.0,0.0,0.0,0.0,0.0,0.0,0.0,0.0,0.0,0.0,0.0,0.0,0.0,0.0,0.0,0.0,0.0,0.0,0.0,0.0,0.0,0.0,0.0,0.0,1.3058,1.2245,1.2239,1.2005,1.1649,1.1361,1.1148,0.0,0.0,0.0,0.0,0.0,0.0,0.0,0.0,0.0,0.0,0.0,0.0,0.0,0.0,0.0,0.0,0.0,0.0,0.0,0.0,0.0,0.0,0.0,0.0,0.0,0.0,0.0,0.0,0.0,0.0,0.0,0.0,0.0,0.0,0.0,0.0,0.0,0.0,0.0,0.0,0.0,0.0,0.0,0.0,0.0,0.0,0.0,0.0,0.0,0.0,0.0,0.0,0.0,0.0,0.0,0.0,0.0,0.0,0.0,0.0,0.0,0.0,0.0,0.0,0.0,0.0,0.0,0.0,0.0,0.0,0.0,0.0,0.0,0.0,0.0,0.0,0.0,0.0,0.0,0.0,0.0,0.0,0.0,0.0,0.0,0.0,0.0,0.0,0.0,0.0,0.0,0.0,0.0,0.0,0.0,0.0,0.0,0.0,0.0,0.0,0.0,0.0,0.0,0.0,0.0,0.0,0.0,0.0,0.0,1.3051,0.0,1.1722,0.0,1.1148,1.0925,0.0,0.0,0.0,0.0,0.0,0.0,0.0,0.0,0.0,0.0,0.0,0.0,0.0,0.0,0.0,0.0,0.0,0.0,0.0,0.0,0.0,0.0,0.0,0.0,0.0,0.0,0.0,0.0,0.0,0.0,0.0,0.0,0.0,0.0,0.0,0.0,0.0,0.0,0.0,0.0,0.0,0.0,0.0,0.0,0.0,0.0,0.0,0.0,0.0,0.0,0.0,0.0,0.0,0.0,0.0,0.0,0.0,0.0,0.0,0.0,0.0,0.0,0.0,0.0,0.0,0.0,0.0,0.0,0.0,0.0,0.0,0.0,0.0,0.0,0.0,0.0,0.0,0.0,0.0,0.0,0.0,0.0,0.0,0.0,0.0,0.0,0.0,0.0,0.0,0.0,0.0,0.0,0.0,0.0,0.0,0.0,0.0,0.0,0.0,0.0,0.0,0.0,0.0,0.0,0.0,0.0,0.0,0.0,0.0,1.3337,1.2416,1.1682,1.1287,1.1003,1.0793,0.0,0.0,0.0,0.0,0.0,0.0,0.0,0.0,0.0,0.0,0.0,0.0,0.0,0.0,0.0,0.0,0.0,0.0,0.0,0.0,0.0,0.0,0.0,0.0,0.0,0.0,0.0,0.0,0.0,0.0,0.0,0.0,0.0,0.0,0.0,0.0,0.0,0.0,0.0,0.0,0.0,0.0,0.0,0.0,0.0,0.0,0.0,0.0,0.0,0.0,0.0,0.0,0.0,0.0,0.0,0.0,0.0,0.0,0.0,0.0,0.0,0.0,0.0,0.0,0.0,0.0,0.0,0.0,0.0,0.0,0.0,0.0,0.0,0.0,0.0,0.0,0.0,0.0,0.0,0.0,0.0,0.0,0.0,0.0,0.0,0.0,0.0,0.0,0.0,0.0,0.0,0.0,0.0,0.0,0.0,0.0,0.0,0.0,0.0,0.0,0.0,0.0,0.0,0.0,0.0,0.0,0.0,0.0,0.0,1.3344,1.2683,1.196,1.1293,1.1071,1.0779,0.0,0.0,0.0,0.0,0.0,0.0,0.0,0.0,0.0,0.0,0.0,0.0,0.0,0.0,0.0,0.0,0.0,0.0,0.0,0.0,0.0,0.0,0.0,0.0,0.0,0.0,0.0,0.0,0.0,0.0,0.0,0.0,0.0,0.0,0.0,0.0,0.0,0.0,0.0,0.0,0.0,0.0,0.0,0.0,0.0,0.0,0.0,0.0,0.0,0.0,0.0,0.0,0.0,0.0,0.0,0.0,0.0,0.0,0.0,0.0,0.0,0.0,0.0,0.0,0.0,0.0,0.0,0.0,0.0,0.0,0.0,0.0,0.0,0.0,0.0,0.0,0.0,0.0,0.0,0.0,0.0,0.0,0.0,0.0,0.0,0.0,0.0,0.0,0.0,0.0,0.0,0.0,0.0,0.0,0.0,0.0,0.0,0.0,0.0,0.0,0.0,0.0,0.0,0.0,0.0,0.0,0.0,0.0,0.0,0.0,1.2683,1.1953,1.13,1.0799,1.0567,1.0487,0.0,0.0,0.0,0.0,0.0,0.0,0.0,0.0,0.0,0.0,0.0,0.0,0.0,0.0,0.0,0.0,0.0,0.0,0.0,0.0,0.0,0.0,0.0,0.0,0.0,0.0,0.0,0.0,0.0,0.0,0.0,0.0,0.0,0.0,0.0,0.0,0.0,0.0,0.0,0.0,0.0,0.0,0.0,0.0,0.0,0.0,0.0,0.0,0.0,0.0,0.0,0.0,0.0,0.0,0.0,0.0,0.0,0.0,0.0,0.0,0.0,0.0,0.0,0.0,0.0,0.0,0.0,0.0,0.0,0.0,0.0,0.0,0.0,0.0,0.0,0.0,0.0,0.0,0.0,0.0,0.0,0.0,0.0,0.0,0.0,0.0,0.0,0.0,0.0,0.0,0.0,0.0,0.0,0.0,0.0,0.0,0.0,0.0,0.0,0.0,0.0,0.0,0.0,0.0,0.0,0.0,0.0,0.0,0.0,0.0,1.1761,1.1287,1.0905,1.0607,0.0,0.0,0.0,0.0,0.0,0.0,0.0,0.0,0.0,0.0,0.0,0.0,0.0,0.0,0.0,0.0,0.0,0.0,0.0,0.0,0.0,0.0,0.0,0.0,0.0,0.0,0.0,0.0,0.0,0.0,0.0,0.0,0.0,0.0,0.0,0.0,0.0,0.0,0.0,0.0,0.0,0.0,0.0,0.0,0.0,0.0,0.0,0.0,0.0,0.0,0.0,0.0,0.0,0.0,0.0,0.0,0.0,0.0,0.0,0.0,0.0,0.0,0.0,0.0,0.0,0.0,0.0,0.0,0.0,0.0,0.0,0.0,0.0,0.0,0.0,0.0,0.0,0.0,0.0,0.0,0.0,0.0,0.0,0.0,0.0,0.0,0.0,0.0,0.0,0.0,0.0,0.0,0.0,0.0,0.0,0.0,0.0,0.0,0.0,0.0,0.0,0.0,0.0,0.0,0.0,0.0,0.0,0.0,0.0,0.0,0.0,1.1564,1.1247,1.0997,0.0,1.0494,0.0,0.0,0.0,0.0,0.0,0.0,0.0,0.0,0.0,0.0,0.0,0.0,0.0,0.0,0.0,0.0,0.0,0.0,0.0,0.0,0.0,0.0,0.0,0.0,0.0,0.0,0.0,0.0,0.0,0.0,0.0,0.0,0.0,0.0,0.0,0.0,0.0,0.0,0.0,0.0,0.0,0.0,0.0,0.0,0.0,0.0,0.0,0.0,0.0,0.0,0.0,0.0,0.0,0.0,0.0,0.0,0.0,0.0,0.0,0.0,0.0,0.0,0.0,0.0,0.0,0.0,0.0,0.0,0.0,0.0,0.0,0.0,0.0,0.0,0.0,0.0,0.0,0.0,0.0,0.0,0.0,0.0,0.0,0.0,0.0,0.0,0.0,0.0,0.0,0.0,0.0,0.0,0.0,0.0,0.0,0.0,0.0,0.0,0.0,0.0,0.0,0.0,0.0,0.0,0.0,0.0,0.0,0.0,0.0,0.0,0.0,0.0,1.0898,1.0793,1.0487,0.0,0.0,0.0,0.0,0.0,0.0,0.0,0.0,0.0,0.0,0.0,0.0,0.0,0.0,0.0,0.0,0.0,0.0,0.0,0.0,0.0,0.0,0.0,0.0,0.0,0.0,0.0,0.0,0.0,0.0,0.0,0.0,0.0,0.0,0.0,0.0,0.0,0.0,0.0,0.0,0.0,0.0,0.0,0.0,0.0,0.0,0.0,0.0,0.0,0.0,0.0,0.0,0.0,0.0,0.0,0.0,0.0,0.0,0.0,0.0,0.0,0.0,0.0,0.0,0.0,0.0,0.0,0.0,0.0,0.0,0.0,0.0,0.0,0.0,0.0,0.0,0.0,0.0,0.0,0.0,0.0,0.0,0.0,0.0,0.0,0.0,0.0,0.0,0.0,0.0,0.0,0.0,0.0,0.0,0.0,0.0,0.0,0.0,0.0,0.0,0.0,0.0,0.0,0.0,0.0,0.0,0.0,0.0,0.0,0.0,1.1306,1.0878,1.0733,1.0653,1.0487,0.0,0.0,0.0,0.0,0.0,0.0,0.0,0.0,0.0,0.0,0.0,0.0,0.0,0.0,0.0,0.0,0.0,0.0,0.0,0.0,0.0,0.0,0.0,0.0,0.0,0.0,0.0,0.0,0.0,0.0,0.0,0.0,0.0,0.0,0.0,0.0,0.0,0.0,0.0,0.0,0.0,0.0,0.0,0.0,0.0,0.0,0.0,0.0,0.0,0.0,0.0,0.0,0.0,0.0,0.0,0.0,0.0,0.0,0.0,0.0,0.0,0.0,0.0,0.0,0.0,0.0,0.0,0.0,0.0,0.0,0.0,0.0,0.0,0.0,0.0,0.0,0.0,0.0,0.0,0.0,0.0,0.0,0.0,0.0,0.0,0.0,0.0,0.0,0.0,0.0,0.0,0.0,0.0,0.0,0.0,0.0,0.0,0.0,0.0,0.0,0.0,0.0,0.0,0.0,0.0,0.0,0.0,0.0,0.0,0.0,0.0,0.0,0.0,0.0,1.0492,0.0,0.0,0.0,0.0,0.0,0.0,0.0,0.0,0.0,0.0,0.0,0.0,0.0,0.0,0.0,0.0,0.0,0.0,0.0,0.0,0.0,0.0,0.0,0.0,0.0,0.0,0.0,0.0,0.0,0.0,0.0,0.0,0.0,0.0,0.0,0.0,0.0,0.0,0.0,0.0,0.0,0.0,0.0,0.0,0.0,0.0,0.0,0.0,0.0,0.0,0.0,0.0,0.0,0.0,0.0,0.0,0.0,0.0,0.0,0.0,0.0,0.0,0.0,0.0,0.0,0.0,0.0,0.0,0.0,0.0,0.0,0.0,0.0,0.0,0.0,0.0,0.0,0.0,0.0,0.0,0.0,0.0,0.0,0.0,0.0,0.0,0.0,0.0,0.0,0.0,0.0,0.0,0.0,0.0,0.0,0.0,0.0,0.0,0.0,0.0,0.0,0.0,0.0,0.0,0.0,0.0,0.0,0.0,0.0,0.0,0.0,0.0,0.0,0.0,0.0,0.0,0.0,0.0,0.0,0.0,0.0,0.0,0.0,0.0,0.0,0.0,0.0,0.0,0.0,0.0,0.0,0.0,0.0,0.0,0.0,0.0,0.0,0.0,0.0,0.0,0.0,0.0,0.0,0.0,0.0,0.0,0.0,0.0,0.0,0.0,0.0,0.0,0.0,0.0,0.0,0.0,0.0,0.0,0.0,0.0,0.0,0.0,0.0,0.0,0.0,0.0,0.0,0.0,0.0,0.0,0.0,0.0,0.0,0.0,0.0,0.0,0.0,0.0,0.0,0.0,0.0,0.0,0.0,0.0,0.0,0.0,0.0,0.0,0.0,0.0,0.0,0.0,0.0,0.0,0.0,0.0,0.0,0.0,0.0,0.0,0.0,0.0,0.0,0.0,0.0,0.0,0.0,0.0,0.0,0.0,0.0,0.0,0.0,0.0,0.0,0.0,0.0,0.0,0.0,0.0,0.0,0.0,0.0,0.0,0.0,0.0,0.0,0.0,0.0,0.0,0.0,0.0,0.0,0.0,0.0,0.0,0.0,0.0,0.0,0.0,0.0,0.0,0.0,0.0,0.0,0.0,0.0,0.0,0.0,0.0,0.0,0.0,0.0,0.0,0.0,0.0,0.0,0.0,0.0,0.0,0.0,0.0,0.0,0.0,0.0,0.0,0.0,0.0,0.0,0.0,0.0,0.0,0.0,0.0,0.0,0.0,0.0,0.0,0.0,0.0,0.0,0.0,0.0,0.0,0.0,0.0,0.0,0.0,0.0,0.0,0.0,0.0,0.0,0.0,0.0,0.0,0.0,0.0,0.0,0.0,0.0,0.0,0.0,0.0,0.0,0.0,0.0,0.0,0.0,0.0,0.0,0.0,0.0,0.0,0.0,0.0,0.0,0.0,0.0,0.0,0.0,0.0,0.0,0.0,0.0,0.0,0.0,0.0,0.0,0.0,0.0,0.0,0.0,0.0,0.0,0.0,0.0,0.0,0.0,0.0,0.0,0.0,0.0,0.0,0.0,0.0,0.0,0.0,0.0,0.0,0.0,0.0,0.0,0.0,0.0,0.0,0.0,0.0,0.0,0.0,0.0,0.0,0.0,0.0,0.0,0.0,0.0,0.0,0.0,0.0,0.0,0.0,0.0,0.0,0.0,0.0,0.0,0.0,0.0,0.0,0.0,0.0,0.0,0.0,0.0,0.0,0.0,0.0,0.0,0.0,0.0,0.0,0.0,0.0,0.0,0.0,0.0,0.0,0.0,0.0,0.0,0.0,0.0,0.0,0.0,0.0,0.0,0.0,0.0,0.0,0.0,0.0,0.0,0.0,0.0,0.0,0.0,0.0,0.0,0.0,0.0,0.0,0.0,0.0,0.0,0.0,0.0,0.0,0.0,0.0,0.0,0.0,0.0,0.0,0.0,0.0,0.0,0.0,0.0,0.0,0.0,0.0,0.0,0.0,0.0,0.0,0.0,0.0,0.0,0.0,0.0,0.0,0.0,0.0,0.0,0.0,0.0,0.0,0.0,0.0,0.0,0.0,0.0,0.0,0.0,0.0,0.0,0.0,0.0,0.0,0.0,0.0,0.0,0.0,0.0,0.0,0.0,0.0,0.0,0.0,0.0,0.0,0.0,0.0,0.0,0.0,0.0,0.0,0.0,0.0,0.0,0.0,0.0,0.0,0.0,0.0,0.0,0.0,0.0,0.0,0.0,0.0,0.0,0.0,0.0,0.0,0.0,0.0,0.0,0.0,0.0,0.0,0.0,0.0,0.0,0.0,0.0,0.0,0.0,0.0,0.0,0.0,0.0,0.0,0.0,0.0,0.0,0.0,0.0,0.0,0.0,0.0,0.0,0.0,0.0,0.0,0.0,0.0,0.0,0.0,0.0,0.0,0.0,0.0,0.0,0.0,0.0,0.0,0.0,0.0,0.0,0.0,0.0,0.0,0.0,0.0,0.0,0.0,0.0,0.0,0.0,0.0,0.0,0.0,0.0,0.0,0.0,0.0,0.0,0.0,0.0,0.0,0.0,0.0,0.0,0.0,0.0,0.0,0.0,0.0,0.0,0.0,0.0,0.0,0.0,0.0,0.0,0.0,0.0,0.0,0.0,0.0,0.0,0.0,0.0,0.0,0.0,0.0,0.0,0.0,0.0,0.0,0.0,0.0,0.0,0.0,0.0,0.0,0.0,0.0,0.0,0.0,0.0,0.0,0.0,0.0,0.0,0.0,0.0,0.0,0.0,0.0,0.0,0.0,0.0,0.0,0.0,0.0,0.0,0.0,0.0,0.0,0.0,0.0,0.0,0.0,0.0,0.0,0.0,0.0,0.0,0.0,0.0,0.0,0.0,0.0,0.0,0.0,0.0,0.0,0.0,0.0,0.0,0.0,0.0,0.0,0.0,0.0,0.0,0.0,0.0,0.0,0.0,0.0,0.0,0.0,0.0,0.0,0.0,0.0,0.0,0.0,0.0,0.0,0.0,0.0,0.0,0.0,0.0,0.0,0.0,0.0,0.0,0.0,0.0,0.0,0.0,0.0,0.0,0.0,0.0,0.0,0.0,0.0,0.0,0.0,0.0,0.0,0.0,0.0,0.0,0.0,0.0,0.0,0.0,0.0,0.0,0.0,0.0,0.0,0.0,0.0,0.0,0.0,0.0,0.0,0.0,0.0,0.0,0.0,0.0,0.0,0.0,0.0,0.0,0.0,0.0,0.0,0.0,0.0,0.0,0.0,0.0,0.0,0.0,0.0,0.0,0.0,0.0,0.0,0.0,0.0,0.0,0.0,0.0,0.0,0.0,0.0,0.0,0.0,0.0,0.0,0.0,0.0,0.0,0.0,0.0,0.0,0.0,0.0,0.0,0.0,0.0,0.0,0.0,0.0,0.0,0.0,0.0,0.0,0.0,0.0,0.0,0.0,0.0,0.0,0.0,0.0,0.0,0.0,0.0,0.0,0.0,0.0,0.0,0.0,0.0,0.0,0.0,0.0,0.0,0.0,0.0,0.0,0.0,0.0,0.0,0.0,0.0,0.0,0.0,0.0,0.0,0.0,0.0,0.0,0.0,0.0,0.0,0.0,0.0,0.0,0.0,0.0,0.0,0.0,0.0,0.0,0.0,0.0,0.0,0.0,0.0,0.0,0.0,0.0,0.0,0.0,0.0,0.0,0.0,0.0,0.0,0.0,0.0,0.0,0.0,0.0,0.0,0.0,0.0,0.0,0.0,0.0,0.0,0.0,0.0,0.0,0.0,0.0,0.0,0.0,0.0,0.0,0.0,0.0,0.0,0.0,0.0,0.0,0.0,0.0,0.0,0.0,0.0,0.0,0.0,0.0,0.0,0.0,0.0,0.0,0.0,0.0,0.0,0.0,0.0,0.0,0.0,0.0,0.0,0.0,0.0,0.0,0.0,0.0,0.0,0.0,0.0,0.0,0.0,0.0,0.0,0.0,0.0,0.0,0.0,0.0,0.0,0.0,0.0,0.0,0.0,0.0,0.0,0.0,0.0,0.0,0.0,0.0,0.0,0.0,0.0,0.0,0.0,0.0,0.0,0.0,0.0,0.0,0.0,0.0,0.0,0.0,0.0,0.0,0.0,0.0,0.0,0.0,0.0,0.0,0.0,0.0,0.0,0.0,0.0,0.0,0.0,0.0,0.0,0.0,0.0,0.0,0.0,0.0,0.0,0.0,0.0,0.0,0.0,0.0,0.0,0.0,0.0,0.0,0.0,0.0,0.0,0.0,0.0,0.0,0.0,0.0,0.0,0.0,0.0,0.0,0.0,0.0,0.0,0.0,0.0,0.0,0.0,0.0,0.0,0.0,0.0,0.0,0.0,0.0,0.0,0.0,0.0,0.0,0.0,0.0]}]]]